<?xml version="1.0" encoding="UTF-8" standalone="no" ?>
<gpx xmlns="http://www.topografix.com/GPX/1/1" xmlns:xsi="http://www.w3.org/2001/XMLSchema-instance" xsi:schemaLocation="http://www.topografix.com/GPX/1/1 http://www.topografix.com/GPX/1/1/gpx.xsd" version="1.1" creator="VisuGPX - https://www.visugpx.com">
  <metadata>
    <name>Rando Eure / Iton</name>
  </metadata>
  <trk>
    <name><![CDATA[Rando Eure / Iton_1]]></name>
    <trkseg>
      <trkpt lat="49.15564" lon="1.15942">
        <ele>26.7</ele>
        <time>2018-10-27T14:20:01Z</time>
      </trkpt>
      <trkpt lat="49.15517" lon="1.15991">
        <ele>27.9</ele>
        <time>2018-10-27T14:20:09Z</time>
      </trkpt>
      <trkpt lat="49.15444" lon="1.16049">
        <ele>28.6</ele>
        <time>2018-10-27T14:20:11Z</time>
      </trkpt>
      <trkpt lat="49.15254" lon="1.15624">
        <ele>23.8</ele>
        <time>2018-10-27T14:20:16Z</time>
      </trkpt>
      <trkpt lat="49.14892" lon="1.14901">
        <ele>25</ele>
        <time>2018-10-27T14:20:22Z</time>
      </trkpt>
      <trkpt lat="49.14692" lon="1.15">
        <ele>25.7</ele>
        <time>2018-10-27T14:20:26Z</time>
      </trkpt>
      <trkpt lat="49.14555" lon="1.15108">
        <ele>26</ele>
        <time>2018-10-27T14:20:29Z</time>
      </trkpt>
      <trkpt lat="49.14457" lon="1.15278">
        <ele>44</ele>
        <time>2018-10-27T14:20:34Z</time>
      </trkpt>
      <trkpt lat="49.14786" lon="1.15882">
        <ele>36.1</ele>
        <time>2018-10-27T14:20:41Z</time>
      </trkpt>
      <trkpt lat="49.1496" lon="1.16283">
        <ele>37.5</ele>
        <time>2018-10-27T14:20:46Z</time>
      </trkpt>
      <trkpt lat="49.15118" lon="1.16726">
        <ele>25.4</ele>
        <time>2018-10-27T14:20:50Z</time>
      </trkpt>
      <trkpt lat="49.15141" lon="1.16786">
        <ele>25.9</ele>
        <time>2018-10-27T14:20:55Z</time>
      </trkpt>
      <trkpt lat="49.15139" lon="1.16885">
        <ele>30.1</ele>
        <time>2018-10-27T14:21:00Z</time>
      </trkpt>
      <trkpt lat="49.15155" lon="1.16963">
        <ele>32.4</ele>
        <time>2018-10-27T14:21:07Z</time>
      </trkpt>
      <trkpt lat="49.1518" lon="1.17137">
        <ele>37.9</ele>
        <time>2018-10-27T14:21:13Z</time>
      </trkpt>
      <trkpt lat="49.15168" lon="1.17208">
        <ele>41.6</ele>
        <time>2018-10-27T14:21:19Z</time>
      </trkpt>
      <trkpt lat="49.15033" lon="1.17099">
        <ele>48.1</ele>
        <time>2018-10-27T14:21:25Z</time>
      </trkpt>
      <trkpt lat="49.14841" lon="1.16812">
        <ele>68.6</ele>
        <time>2018-10-27T14:21:31Z</time>
      </trkpt>
      <trkpt lat="49.1482" lon="1.16722">
        <ele>78.2</ele>
        <time>2018-10-27T14:21:35Z</time>
      </trkpt>
      <trkpt lat="49.14748" lon="1.16601">
        <ele>93.2</ele>
        <time>2018-10-27T14:21:42Z</time>
      </trkpt>
      <trkpt lat="49.14651" lon="1.16408">
        <ele>114.6</ele>
        <time>2018-10-27T14:21:48Z</time>
      </trkpt>
      <trkpt lat="49.14363" lon="1.15844">
        <ele>124.2</ele>
        <time>2018-10-27T14:21:55Z</time>
      </trkpt>
      <trkpt lat="49.14254" lon="1.15583">
        <ele>129</ele>
        <time>2018-10-27T14:21:59Z</time>
      </trkpt>
      <trkpt lat="49.14136" lon="1.15456">
        <ele>124.4</ele>
        <time>2018-10-27T14:22:04Z</time>
      </trkpt>
      <trkpt lat="49.14057" lon="1.15333">
        <ele>121.4</ele>
        <time>2018-10-27T14:22:11Z</time>
      </trkpt>
      <trkpt lat="49.13825" lon="1.15101">
        <ele>120.3</ele>
        <time>2018-10-27T14:22:17Z</time>
      </trkpt>
      <trkpt lat="49.13727" lon="1.14959">
        <ele>120.8</ele>
        <time>2018-10-27T14:22:22Z</time>
      </trkpt>
      <trkpt lat="49.1346" lon="1.14948">
        <ele>118</ele>
        <time>2018-10-27T14:22:29Z</time>
      </trkpt>
      <trkpt lat="49.13306" lon="1.14968">
        <ele>122.1</ele>
        <time>2018-10-27T14:22:35Z</time>
      </trkpt>
      <trkpt lat="49.13245" lon="1.14942">
        <ele>126.1</ele>
        <time>2018-10-27T14:22:37Z</time>
      </trkpt>
      <trkpt lat="49.13129" lon="1.14918">
        <ele>129.3</ele>
        <time>2018-10-27T14:22:44Z</time>
      </trkpt>
      <trkpt lat="49.13039" lon="1.14879">
        <ele>128.8</ele>
        <time>2018-10-27T14:22:51Z</time>
      </trkpt>
      <trkpt lat="49.12918" lon="1.14929">
        <ele>129.5</ele>
        <time>2018-10-27T14:22:54Z</time>
      </trkpt>
      <trkpt lat="49.12876" lon="1.14927">
        <ele>129.9</ele>
        <time>2018-10-27T14:22:57Z</time>
      </trkpt>
      <trkpt lat="49.12811" lon="1.14879">
        <ele>127.2</ele>
        <time>2018-10-27T14:23:04Z</time>
      </trkpt>
      <trkpt lat="49.12739" lon="1.14716">
        <ele>123.2</ele>
        <time>2018-10-27T14:23:07Z</time>
      </trkpt>
      <trkpt lat="49.12636" lon="1.14587">
        <ele>125.3</ele>
        <time>2018-10-27T14:23:09Z</time>
      </trkpt>
      <trkpt lat="49.12549" lon="1.14563">
        <ele>126.1</ele>
        <time>2018-10-27T14:23:10Z</time>
      </trkpt>
      <trkpt lat="49.12489" lon="1.14574">
        <ele>124.3</ele>
        <time>2018-10-27T14:23:16Z</time>
      </trkpt>
      <trkpt lat="49.12493" lon="1.14619">
        <ele>124.1</ele>
        <time>2018-10-27T14:23:20Z</time>
      </trkpt>
      <trkpt lat="49.12478" lon="1.14671">
        <ele>124.5</ele>
        <time>2018-10-27T14:23:21Z</time>
      </trkpt>
      <trkpt lat="49.12391" lon="1.14664">
        <ele>124.4</ele>
        <time>2018-10-27T14:23:24Z</time>
      </trkpt>
      <trkpt lat="49.12328" lon="1.146">
        <ele>126.2</ele>
        <time>2018-10-27T14:23:27Z</time>
      </trkpt>
      <trkpt lat="49.12247" lon="1.14597">
        <ele>127.1</ele>
        <time>2018-10-27T14:23:33Z</time>
      </trkpt>
      <trkpt lat="49.12165" lon="1.14634">
        <ele>127.1</ele>
        <time>2018-10-27T14:23:34Z</time>
      </trkpt>
      <trkpt lat="49.12013" lon="1.14808">
        <ele>122.6</ele>
        <time>2018-10-27T14:23:37Z</time>
      </trkpt>
      <trkpt lat="49.11927" lon="1.14857">
        <ele>123.4</ele>
        <time>2018-10-27T14:23:38Z</time>
      </trkpt>
      <trkpt lat="49.1181" lon="1.14955">
        <ele>123.7</ele>
        <time>2018-10-27T14:23:41Z</time>
      </trkpt>
      <trkpt lat="49.11793" lon="1.15001">
        <ele>121.2</ele>
        <time>2018-10-27T14:23:44Z</time>
      </trkpt>
      <trkpt lat="49.11726" lon="1.15125">
        <ele>120.9</ele>
        <time>2018-10-27T14:23:53Z</time>
      </trkpt>
      <trkpt lat="49.11627" lon="1.15262">
        <ele>124.4</ele>
        <time>2018-10-27T14:24:02Z</time>
      </trkpt>
      <trkpt lat="49.11609" lon="1.15296">
        <ele>124.4</ele>
        <time>2018-10-27T14:24:07Z</time>
      </trkpt>
      <trkpt lat="49.11561" lon="1.15481">
        <ele>121.9</ele>
        <time>2018-10-27T14:24:14Z</time>
      </trkpt>
      <trkpt lat="49.11565" lon="1.15544">
        <ele>120.1</ele>
        <time>2018-10-27T14:24:19Z</time>
      </trkpt>
      <trkpt lat="49.11526" lon="1.15675">
        <ele>122.9</ele>
        <time>2018-10-27T14:24:20Z</time>
      </trkpt>
      <trkpt lat="49.11532" lon="1.15702">
        <ele>123.6</ele>
        <time>2018-10-27T14:24:22Z</time>
      </trkpt>
      <trkpt lat="49.1156" lon="1.15748">
        <ele>125.9</ele>
        <time>2018-10-27T14:24:25Z</time>
      </trkpt>
      <trkpt lat="49.11693" lon="1.15902">
        <ele>133.7</ele>
        <time>2018-10-27T14:24:26Z</time>
      </trkpt>
      <trkpt lat="49.11806" lon="1.16048">
        <ele>135.6</ele>
        <time>2018-10-27T14:24:33Z</time>
      </trkpt>
      <trkpt lat="49.11826" lon="1.16067">
        <ele>136.2</ele>
        <time>2018-10-27T14:24:42Z</time>
      </trkpt>
      <trkpt lat="49.11836" lon="1.16118">
        <ele>136.7</ele>
        <time>2018-10-27T14:24:51Z</time>
      </trkpt>
      <trkpt lat="49.11834" lon="1.16178">
        <ele>136.8</ele>
        <time>2018-10-27T14:24:54Z</time>
      </trkpt>
      <trkpt lat="49.1184" lon="1.16539">
        <ele>144.9</ele>
        <time>2018-10-27T14:24:57Z</time>
      </trkpt>
      <trkpt lat="49.1188" lon="1.16595">
        <ele>144.9</ele>
        <time>2018-10-27T14:25:04Z</time>
      </trkpt>
      <trkpt lat="49.11917" lon="1.1661">
        <ele>144.6</ele>
        <time>2018-10-27T14:25:11Z</time>
      </trkpt>
      <trkpt lat="49.12027" lon="1.16604">
        <ele>143</ele>
        <time>2018-10-27T14:25:18Z</time>
      </trkpt>
      <trkpt lat="49.1206" lon="1.16599">
        <ele>142.7</ele>
        <time>2018-10-27T14:25:23Z</time>
      </trkpt>
      <trkpt lat="49.12236" lon="1.16559">
        <ele>138.6</ele>
        <time>2018-10-27T14:25:29Z</time>
      </trkpt>
      <trkpt lat="49.12296" lon="1.165">
        <ele>137.3</ele>
        <time>2018-10-27T14:25:36Z</time>
      </trkpt>
      <trkpt lat="49.12373" lon="1.16391">
        <ele>139.5</ele>
        <time>2018-10-27T14:25:45Z</time>
      </trkpt>
      <trkpt lat="49.12488" lon="1.16382">
        <ele>137.4</ele>
        <time>2018-10-27T14:25:50Z</time>
      </trkpt>
      <trkpt lat="49.12494" lon="1.16415">
        <ele>137.9</ele>
        <time>2018-10-27T14:25:53Z</time>
      </trkpt>
      <trkpt lat="49.12548" lon="1.16473">
        <ele>136.7</ele>
        <time>2018-10-27T14:25:54Z</time>
      </trkpt>
      <trkpt lat="49.12665" lon="1.16436">
        <ele>133.9</ele>
        <time>2018-10-27T14:25:57Z</time>
      </trkpt>
      <trkpt lat="49.12707" lon="1.16452">
        <ele>133.2</ele>
        <time>2018-10-27T14:25:58Z</time>
      </trkpt>
      <trkpt lat="49.12767" lon="1.16519">
        <ele>134.1</ele>
        <time>2018-10-27T14:26:03Z</time>
      </trkpt>
      <trkpt lat="49.12806" lon="1.16637">
        <ele>132.7</ele>
        <time>2018-10-27T14:26:04Z</time>
      </trkpt>
      <trkpt lat="49.1293" lon="1.16754">
        <ele>121</ele>
        <time>2018-10-27T14:26:07Z</time>
      </trkpt>
      <trkpt lat="49.1292" lon="1.16848">
        <ele>120</ele>
        <time>2018-10-27T14:26:11Z</time>
      </trkpt>
      <trkpt lat="49.12999" lon="1.1688">
        <ele>118.4</ele>
        <time>2018-10-27T14:26:13Z</time>
      </trkpt>
      <trkpt lat="49.13038" lon="1.16906">
        <ele>114.4</ele>
        <time>2018-10-27T14:26:18Z</time>
      </trkpt>
      <trkpt lat="49.13055" lon="1.16951">
        <ele>113.1</ele>
        <time>2018-10-27T14:26:23Z</time>
      </trkpt>
      <trkpt lat="49.13058" lon="1.17025">
        <ele>111.6</ele>
        <time>2018-10-27T14:26:29Z</time>
      </trkpt>
      <trkpt lat="49.13134" lon="1.17211">
        <ele>98.8</ele>
        <time>2018-10-27T14:26:34Z</time>
      </trkpt>
      <trkpt lat="49.13213" lon="1.17434">
        <ele>86</ele>
        <time>2018-10-27T14:26:39Z</time>
      </trkpt>
      <trkpt lat="49.13233" lon="1.17513">
        <ele>83.5</ele>
        <time>2018-10-27T12:30:03Z</time>
      </trkpt>
      <trkpt lat="49.13199" lon="1.17893">
        <ele>64.8</ele>
        <time>2018-10-27T12:30:03Z</time>
      </trkpt>
      <trkpt lat="49.1322" lon="1.18119">
        <ele>63.6</ele>
        <time>2018-10-27T12:30:03Z</time>
      </trkpt>
      <trkpt lat="49.13229" lon="1.18353">
        <ele>63.3</ele>
        <time>2018-10-27T12:30:12Z</time>
      </trkpt>
      <trkpt lat="49.1326" lon="1.18403">
        <ele>63.4</ele>
        <time>2018-10-27T12:30:14Z</time>
      </trkpt>
      <trkpt lat="49.13292" lon="1.18432">
        <ele>61.7</ele>
        <time>2018-10-27T12:30:17Z</time>
      </trkpt>
      <trkpt lat="49.13329" lon="1.18418">
        <ele>63.5</ele>
        <time>2018-10-27T12:30:20Z</time>
      </trkpt>
      <trkpt lat="49.13452" lon="1.18307">
        <ele>59.2</ele>
        <time>2018-10-27T12:30:22Z</time>
      </trkpt>
      <trkpt lat="49.13703" lon="1.18278">
        <ele>51.6</ele>
        <time>2018-10-27T12:30:25Z</time>
      </trkpt>
      <trkpt lat="49.13778" lon="1.18304">
        <ele>46.9</ele>
        <time>2018-10-27T12:30:28Z</time>
      </trkpt>
      <trkpt lat="49.13838" lon="1.18342">
        <ele>41.7</ele>
        <time>2018-10-27T12:30:30Z</time>
      </trkpt>
      <trkpt lat="49.13883" lon="1.18401">
        <ele>40.2</ele>
        <time>2018-10-27T12:30:32Z</time>
      </trkpt>
      <trkpt lat="49.13938" lon="1.18495">
        <ele>30.9</ele>
        <time>2018-10-27T12:30:36Z</time>
      </trkpt>
      <trkpt lat="49.13953" lon="1.18555">
        <ele>25.9</ele>
        <time>2018-10-27T12:30:38Z</time>
      </trkpt>
      <trkpt lat="49.13986" lon="1.18755">
        <ele>22.4</ele>
        <time>2018-10-27T12:30:40Z</time>
      </trkpt>
      <trkpt lat="49.14022" lon="1.18841">
        <ele>22.3</ele>
        <time>2018-10-27T12:30:45Z</time>
      </trkpt>
      <trkpt lat="49.14062" lon="1.19108">
        <ele>22.4</ele>
        <time>2018-10-27T12:30:46Z</time>
      </trkpt>
      <trkpt lat="49.14092" lon="1.19336">
        <ele>22.4</ele>
        <time>2018-10-27T12:30:50Z</time>
      </trkpt>
      <trkpt lat="49.14186" lon="1.19832">
        <ele>22.4</ele>
        <time>2018-10-27T12:30:51Z</time>
      </trkpt>
      <trkpt lat="49.14196" lon="1.19967">
        <ele>27.799999237061</ele>
        <time>2018-10-27T12:30:56Z</time>
      </trkpt>
      <trkpt lat="49.14194" lon="1.19973">
        <ele>31.2</ele>
        <time>2018-10-27T12:30:59Z</time>
      </trkpt>
      <trkpt lat="49.14194" lon="1.19973">
        <ele>31.2</ele>
        <time>2018-10-27T12:31:02Z</time>
      </trkpt>
      <trkpt lat="49.14181" lon="1.19992">
        <ele>28.39999961853</ele>
        <time>2018-10-27T12:31:06Z</time>
      </trkpt>
      <trkpt lat="49.14175" lon="1.19999">
        <ele>28.60000038147</ele>
        <time>2018-10-27T12:31:08Z</time>
      </trkpt>
      <trkpt lat="49.14161" lon="1.20017">
        <ele>28.60000038147</ele>
        <time>2018-10-27T12:31:13Z</time>
      </trkpt>
      <trkpt lat="49.14142" lon="1.20039">
        <ele>28.39999961853</ele>
        <time>2018-10-27T12:31:14Z</time>
      </trkpt>
      <trkpt lat="49.14128" lon="1.20058">
        <ele>28.200000762939</ele>
        <time>2018-10-27T12:31:21Z</time>
      </trkpt>
      <trkpt lat="49.14121" lon="1.20074">
        <ele>28.200000762939</ele>
        <time>2018-10-27T12:31:22Z</time>
      </trkpt>
      <trkpt lat="49.14107" lon="1.20095">
        <ele>28</ele>
        <time>2018-10-27T12:31:23Z</time>
      </trkpt>
      <trkpt lat="49.1408" lon="1.20128">
        <ele>27</ele>
        <time>2018-10-27T12:31:25Z</time>
      </trkpt>
      <trkpt lat="49.14063" lon="1.20148">
        <ele>27.39999961853</ele>
        <time>2018-10-27T12:31:31Z</time>
      </trkpt>
      <trkpt lat="49.1405" lon="1.20149">
        <ele>27.60000038147</ele>
        <time>2018-10-27T12:31:37Z</time>
      </trkpt>
      <trkpt lat="49.14034" lon="1.20163">
        <ele>27.60000038147</ele>
        <time>2018-10-27T12:31:39Z</time>
      </trkpt>
      <trkpt lat="49.1402" lon="1.20189">
        <ele>27.60000038147</ele>
        <time>2018-10-27T12:31:41Z</time>
      </trkpt>
      <trkpt lat="49.14" lon="1.20219">
        <ele>27.60000038147</ele>
        <time>2018-10-27T12:31:45Z</time>
      </trkpt>
      <trkpt lat="49.13979" lon="1.20249">
        <ele>28</ele>
        <time>2018-10-27T12:31:48Z</time>
      </trkpt>
      <trkpt lat="49.13958" lon="1.20276">
        <ele>28</ele>
        <time>2018-10-27T12:31:49Z</time>
      </trkpt>
      <trkpt lat="49.13942" lon="1.20296">
        <ele>28</ele>
        <time>2018-10-27T12:31:57Z</time>
      </trkpt>
      <trkpt lat="49.13924" lon="1.20318">
        <ele>28</ele>
        <time>2018-10-27T12:31:58Z</time>
      </trkpt>
      <trkpt lat="49.13911" lon="1.20331">
        <ele>28.200000762939</ele>
        <time>2018-10-27T12:32:02Z</time>
      </trkpt>
      <trkpt lat="49.13892" lon="1.20355">
        <ele>28.200000762939</ele>
        <time>2018-10-27T12:32:06Z</time>
      </trkpt>
      <trkpt lat="49.13875" lon="1.20376">
        <ele>28.200000762939</ele>
        <time>2018-10-27T12:32:07Z</time>
      </trkpt>
      <trkpt lat="49.13852" lon="1.20403">
        <ele>28.200000762939</ele>
        <time>2018-10-27T12:32:12Z</time>
      </trkpt>
      <trkpt lat="49.13835" lon="1.20421">
        <ele>28.39999961853</ele>
        <time>2018-10-27T12:32:14Z</time>
      </trkpt>
      <trkpt lat="49.13819" lon="1.20441">
        <ele>28.39999961853</ele>
        <time>2018-10-27T12:32:18Z</time>
      </trkpt>
      <trkpt lat="49.13793" lon="1.2047">
        <ele>28.39999961853</ele>
        <time>2018-10-27T12:32:21Z</time>
      </trkpt>
      <trkpt lat="49.13772" lon="1.20494">
        <ele>28.39999961853</ele>
        <time>2018-10-27T12:32:24Z</time>
      </trkpt>
      <trkpt lat="49.13756" lon="1.20512">
        <ele>28.39999961853</ele>
        <time>2018-10-27T12:32:30Z</time>
      </trkpt>
      <trkpt lat="49.13727" lon="1.20537">
        <ele>28.39999961853</ele>
        <time>2018-10-27T12:32:35Z</time>
      </trkpt>
      <trkpt lat="49.13703" lon="1.20564">
        <ele>28.200000762939</ele>
        <time>2018-10-27T12:32:36Z</time>
      </trkpt>
      <trkpt lat="49.13694" lon="1.20571">
        <ele>28.39999961853</ele>
        <time>2018-10-27T12:32:37Z</time>
      </trkpt>
      <trkpt lat="49.13667" lon="1.20592">
        <ele>28.39999961853</ele>
        <time>2018-10-27T12:32:46Z</time>
      </trkpt>
      <trkpt lat="49.13642" lon="1.20608">
        <ele>28.60000038147</ele>
        <time>2018-10-27T12:32:47Z</time>
      </trkpt>
      <trkpt lat="49.13631" lon="1.20616">
        <ele>28.39999961853</ele>
        <time>2018-10-27T12:32:54Z</time>
      </trkpt>
      <trkpt lat="49.13619" lon="1.20621">
        <ele>28.200000762939</ele>
        <time>2018-10-27T12:32:56Z</time>
      </trkpt>
      <trkpt lat="49.13587" lon="1.20639">
        <ele>28.60000038147</ele>
        <time>2018-10-27T12:33:02Z</time>
      </trkpt>
      <trkpt lat="49.13575" lon="1.20646">
        <ele>28.60000038147</ele>
        <time>2018-10-27T12:33:04Z</time>
      </trkpt>
      <trkpt lat="49.13567" lon="1.2065">
        <ele>29</ele>
        <time>2018-10-27T12:33:09Z</time>
      </trkpt>
      <trkpt lat="49.13564" lon="1.20652">
        <ele>29.200000762939</ele>
        <time>2018-10-27T12:33:14Z</time>
      </trkpt>
      <trkpt lat="49.13542" lon="1.20663">
        <ele>28.60000038147</ele>
        <time>2018-10-27T12:33:16Z</time>
      </trkpt>
      <trkpt lat="49.1353" lon="1.20672">
        <ele>28.799999237061</ele>
        <time>2018-10-27T12:33:24Z</time>
      </trkpt>
      <trkpt lat="49.13527" lon="1.20672">
        <ele>28.799999237061</ele>
        <time>2018-10-27T12:33:25Z</time>
      </trkpt>
      <trkpt lat="49.13515" lon="1.20676">
        <ele>28.60000038147</ele>
        <time>2018-10-27T12:33:31Z</time>
      </trkpt>
      <trkpt lat="49.13503" lon="1.20682">
        <ele>28.60000038147</ele>
        <time>2018-10-27T12:33:32Z</time>
      </trkpt>
      <trkpt lat="49.13482" lon="1.20694">
        <ele>28.799999237061</ele>
        <time>2018-10-27T12:33:39Z</time>
      </trkpt>
      <trkpt lat="49.1348" lon="1.20697">
        <ele>28.799999237061</ele>
        <time>2018-10-27T12:33:45Z</time>
      </trkpt>
      <trkpt lat="49.13471" lon="1.207">
        <ele>29</ele>
        <time>2018-10-27T12:33:46Z</time>
      </trkpt>
      <trkpt lat="49.13467" lon="1.20701">
        <ele>28.799999237061</ele>
        <time>2018-10-27T12:33:50Z</time>
      </trkpt>
      <trkpt lat="49.13456" lon="1.20705">
        <ele>29</ele>
        <time>2018-10-27T12:33:51Z</time>
      </trkpt>
      <trkpt lat="49.13444" lon="1.20712">
        <ele>28.799999237061</ele>
        <time>2018-10-27T12:33:56Z</time>
      </trkpt>
      <trkpt lat="49.13408" lon="1.2073">
        <ele>28.60000038147</ele>
        <time>2018-10-27T12:33:57Z</time>
      </trkpt>
      <trkpt lat="49.1337" lon="1.20749">
        <ele>28.60000038147</ele>
        <time>2018-10-27T12:33:59Z</time>
      </trkpt>
      <trkpt lat="49.13356" lon="1.20755">
        <ele>29.200000762939</ele>
        <time>2018-10-27T12:34:03Z</time>
      </trkpt>
      <trkpt lat="49.13335" lon="1.20765">
        <ele>28.799999237061</ele>
        <time>2018-10-27T12:34:10Z</time>
      </trkpt>
      <trkpt lat="49.1332" lon="1.20778">
        <ele>28.799999237061</ele>
        <time>2018-10-27T12:34:13Z</time>
      </trkpt>
      <trkpt lat="49.13318" lon="1.20779">
        <ele>29</ele>
        <time>2018-10-27T12:34:18Z</time>
      </trkpt>
      <trkpt lat="49.13314" lon="1.20777">
        <ele>29</ele>
        <time>2018-10-27T12:34:22Z</time>
      </trkpt>
      <trkpt lat="49.13306" lon="1.20778">
        <ele>28.799999237061</ele>
        <time>2018-10-27T12:34:28Z</time>
      </trkpt>
      <trkpt lat="49.13303" lon="1.2078">
        <ele>28.60000038147</ele>
        <time>2018-10-27T12:34:33Z</time>
      </trkpt>
      <trkpt lat="49.13279" lon="1.20794">
        <ele>28.60000038147</ele>
        <time>2018-10-27T12:34:38Z</time>
      </trkpt>
      <trkpt lat="49.13245" lon="1.20812">
        <ele>28.60000038147</ele>
        <time>2018-10-27T12:34:45Z</time>
      </trkpt>
      <trkpt lat="49.13207" lon="1.2083">
        <ele>29</ele>
        <time>2018-10-27T12:34:49Z</time>
      </trkpt>
      <trkpt lat="49.13194" lon="1.20836">
        <ele>28.799999237061</ele>
        <time>2018-10-27T12:34:54Z</time>
      </trkpt>
      <trkpt lat="49.13184" lon="1.20841">
        <ele>29</ele>
        <time>2018-10-27T12:34:58Z</time>
      </trkpt>
      <trkpt lat="49.13158" lon="1.20852">
        <ele>29</ele>
        <time>2018-10-27T12:35:03Z</time>
      </trkpt>
      <trkpt lat="49.1313" lon="1.20868">
        <ele>28.799999237061</ele>
        <time>2018-10-27T12:35:08Z</time>
      </trkpt>
      <trkpt lat="49.131" lon="1.20884">
        <ele>29</ele>
        <time>2018-10-27T12:35:17Z</time>
      </trkpt>
      <trkpt lat="49.13081" lon="1.20892">
        <ele>29</ele>
        <time>2018-10-27T12:35:21Z</time>
      </trkpt>
      <trkpt lat="49.13057" lon="1.20905">
        <ele>29.200000762939</ele>
        <time>2018-10-27T12:35:24Z</time>
      </trkpt>
      <trkpt lat="49.13028" lon="1.20921">
        <ele>29</ele>
        <time>2018-10-27T12:35:26Z</time>
      </trkpt>
      <trkpt lat="49.12994" lon="1.20937">
        <ele>29</ele>
        <time>2018-10-27T12:35:30Z</time>
      </trkpt>
      <trkpt lat="49.12982" lon="1.20946">
        <ele>29.39999961853</ele>
        <time>2018-10-27T12:35:35Z</time>
      </trkpt>
      <trkpt lat="49.12978" lon="1.20945">
        <ele>29.60000038147</ele>
        <time>2018-10-27T12:35:36Z</time>
      </trkpt>
      <trkpt lat="49.12977" lon="1.20944">
        <ele>29.60000038147</ele>
        <time>2018-10-27T12:35:45Z</time>
      </trkpt>
      <trkpt lat="49.1297" lon="1.20947">
        <ele>29.799999237061</ele>
        <time>2018-10-27T12:35:54Z</time>
      </trkpt>
      <trkpt lat="49.12969" lon="1.20948">
        <ele>29.799999237061</ele>
        <time>2018-10-27T12:36:01Z</time>
      </trkpt>
      <trkpt lat="49.12962" lon="1.20955">
        <ele>30</ele>
        <time>2018-10-27T12:36:04Z</time>
      </trkpt>
      <trkpt lat="49.12962" lon="1.20958">
        <ele>30</ele>
        <time>2018-10-27T12:36:11Z</time>
      </trkpt>
      <trkpt lat="49.12963" lon="1.20968">
        <ele>30</ele>
        <time>2018-10-27T12:36:12Z</time>
      </trkpt>
      <trkpt lat="49.12966" lon="1.20981">
        <ele>30</ele>
        <time>2018-10-27T12:36:21Z</time>
      </trkpt>
      <trkpt lat="49.12967" lon="1.20986">
        <ele>30.200000762939</ele>
        <time>2018-10-27T12:36:24Z</time>
      </trkpt>
      <trkpt lat="49.1297" lon="1.21002">
        <ele>30.200000762939</ele>
        <time>2018-10-27T12:36:28Z</time>
      </trkpt>
      <trkpt lat="49.12977" lon="1.21021">
        <ele>30.39999961853</ele>
        <time>2018-10-27T12:36:33Z</time>
      </trkpt>
      <trkpt lat="49.1299" lon="1.21048">
        <ele>30.799999237061</ele>
        <time>2018-10-27T12:36:37Z</time>
      </trkpt>
      <trkpt lat="49.13001" lon="1.21069">
        <ele>31</ele>
        <time>2018-10-27T12:36:44Z</time>
      </trkpt>
      <trkpt lat="49.13002" lon="1.21087">
        <ele>31.39999961853</ele>
        <time>2018-10-27T12:36:45Z</time>
      </trkpt>
      <trkpt lat="49.13059" lon="1.21206">
        <ele>31.6</ele>
        <time>2018-10-27T12:36:50Z</time>
      </trkpt>
      <trkpt lat="49.12997" lon="1.21479">
        <ele>34.3</ele>
        <time>2018-10-27T12:36:53Z</time>
      </trkpt>
      <trkpt lat="49.13001" lon="1.21597">
        <ele>36.1</ele>
        <time>2018-10-27T12:36:58Z</time>
      </trkpt>
      <trkpt lat="49.13031" lon="1.21578">
        <ele>37.6</ele>
        <time>2018-10-27T12:36:59Z</time>
      </trkpt>
      <trkpt lat="49.13089" lon="1.21623">
        <ele>47.4</ele>
        <time>2018-10-27T12:37:03Z</time>
      </trkpt>
      <trkpt lat="49.13089" lon="1.21623">
        <ele>47.4</ele>
        <time>2018-10-27T12:37:05Z</time>
      </trkpt>
      <trkpt lat="49.13089" lon="1.21623">
        <ele>44.400001525879</ele>
        <time>2018-10-27T12:37:11Z</time>
      </trkpt>
      <trkpt lat="49.13094" lon="1.21628">
        <ele>44.400001525879</ele>
        <time>2018-10-27T12:37:14Z</time>
      </trkpt>
      <trkpt lat="49.13098" lon="1.21631">
        <ele>45</ele>
        <time>2018-10-27T12:37:20Z</time>
      </trkpt>
      <trkpt lat="49.13103" lon="1.21636">
        <ele>45.599998474121</ele>
        <time>2018-10-27T12:37:21Z</time>
      </trkpt>
      <trkpt lat="49.13109" lon="1.21641">
        <ele>46.599998474121</ele>
        <time>2018-10-27T12:37:25Z</time>
      </trkpt>
      <trkpt lat="49.13112" lon="1.21646">
        <ele>47</ele>
        <time>2018-10-27T12:37:29Z</time>
      </trkpt>
      <trkpt lat="49.13117" lon="1.21653">
        <ele>47.599998474121</ele>
        <time>2018-10-27T12:37:33Z</time>
      </trkpt>
      <trkpt lat="49.13122" lon="1.2166">
        <ele>48.599998474121</ele>
        <time>2018-10-27T12:37:36Z</time>
      </trkpt>
      <trkpt lat="49.13125" lon="1.21665">
        <ele>49</ele>
        <time>2018-10-27T12:37:42Z</time>
      </trkpt>
      <trkpt lat="49.13129" lon="1.2167">
        <ele>49.799999237061</ele>
        <time>2018-10-27T12:37:48Z</time>
      </trkpt>
      <trkpt lat="49.13136" lon="1.21681">
        <ele>51.400001525879</ele>
        <time>2018-10-27T12:37:49Z</time>
      </trkpt>
      <trkpt lat="49.13139" lon="1.21687">
        <ele>51.799999237061</ele>
        <time>2018-10-27T12:37:54Z</time>
      </trkpt>
      <trkpt lat="49.13143" lon="1.21692">
        <ele>52.400001525879</ele>
        <time>2018-10-27T12:37:57Z</time>
      </trkpt>
      <trkpt lat="49.13151" lon="1.21704">
        <ele>53.200000762939</ele>
        <time>2018-10-27T12:38:03Z</time>
      </trkpt>
      <trkpt lat="49.13152" lon="1.21707">
        <ele>53.400001525879</ele>
        <time>2018-10-27T12:38:04Z</time>
      </trkpt>
      <trkpt lat="49.13158" lon="1.21715">
        <ele>54.599998474121</ele>
        <time>2018-10-27T12:38:10Z</time>
      </trkpt>
      <trkpt lat="49.13159" lon="1.21718">
        <ele>54.799999237061</ele>
        <time>2018-10-27T12:38:12Z</time>
      </trkpt>
      <trkpt lat="49.13167" lon="1.2173">
        <ele>55.599998474121</ele>
        <time>2018-10-27T12:38:16Z</time>
      </trkpt>
      <trkpt lat="49.13173" lon="1.21738">
        <ele>56</ele>
        <time>2018-10-27T12:38:21Z</time>
      </trkpt>
      <trkpt lat="49.13178" lon="1.21745">
        <ele>56.599998474121</ele>
        <time>2018-10-27T12:38:22Z</time>
      </trkpt>
      <trkpt lat="49.13185" lon="1.21755">
        <ele>57.200000762939</ele>
        <time>2018-10-27T12:38:26Z</time>
      </trkpt>
      <trkpt lat="49.13188" lon="1.2176">
        <ele>57.799999237061</ele>
        <time>2018-10-27T12:38:29Z</time>
      </trkpt>
      <trkpt lat="49.13196" lon="1.21771">
        <ele>58.799999237061</ele>
        <time>2018-10-27T12:38:36Z</time>
      </trkpt>
      <trkpt lat="49.13197" lon="1.21773">
        <ele>58.799999237061</ele>
        <time>2018-10-27T12:38:37Z</time>
      </trkpt>
      <trkpt lat="49.1321" lon="1.21788">
        <ele>59.200000762939</ele>
        <time>2018-10-27T12:38:43Z</time>
      </trkpt>
      <trkpt lat="49.13212" lon="1.2179">
        <ele>59.400001525879</ele>
        <time>2018-10-27T12:38:46Z</time>
      </trkpt>
      <trkpt lat="49.13214" lon="1.21792">
        <ele>59.799999237061</ele>
        <time>2018-10-27T12:38:50Z</time>
      </trkpt>
      <trkpt lat="49.13217" lon="1.21796">
        <ele>61</ele>
        <time>2018-10-27T12:38:51Z</time>
      </trkpt>
      <trkpt lat="49.13227" lon="1.21806">
        <ele>62</ele>
        <time>2018-10-27T12:38:52Z</time>
      </trkpt>
      <trkpt lat="49.13235" lon="1.21816">
        <ele>63.200000762939</ele>
        <time>2018-10-27T12:38:57Z</time>
      </trkpt>
      <trkpt lat="49.13238" lon="1.21818">
        <ele>63.599998474121</ele>
        <time>2018-10-27T12:38:59Z</time>
      </trkpt>
      <trkpt lat="49.1324" lon="1.21822">
        <ele>64.199996948242</ele>
        <time>2018-10-27T12:39:02Z</time>
      </trkpt>
      <trkpt lat="49.13244" lon="1.21828">
        <ele>65.199996948242</ele>
        <time>2018-10-27T12:39:05Z</time>
      </trkpt>
      <trkpt lat="49.13248" lon="1.21833">
        <ele>66.199996948242</ele>
        <time>2018-10-27T12:39:08Z</time>
      </trkpt>
      <trkpt lat="49.13249" lon="1.21835">
        <ele>66.199996948242</ele>
        <time>2018-10-27T12:39:11Z</time>
      </trkpt>
      <trkpt lat="49.13257" lon="1.21849">
        <ele>67.199996948242</ele>
        <time>2018-10-27T12:39:12Z</time>
      </trkpt>
      <trkpt lat="49.13259" lon="1.2185">
        <ele>67.400001525879</ele>
        <time>2018-10-27T12:39:18Z</time>
      </trkpt>
      <trkpt lat="49.13263" lon="1.21857">
        <ele>68.400001525879</ele>
        <time>2018-10-27T12:39:19Z</time>
      </trkpt>
      <trkpt lat="49.13267" lon="1.21864">
        <ele>69.800003051758</ele>
        <time>2018-10-27T12:39:24Z</time>
      </trkpt>
      <trkpt lat="49.13267" lon="1.21866">
        <ele>70</ele>
        <time>2018-10-27T12:39:26Z</time>
      </trkpt>
      <trkpt lat="49.13272" lon="1.21876">
        <ele>71</ele>
        <time>2018-10-27T12:39:28Z</time>
      </trkpt>
      <trkpt lat="49.13274" lon="1.2188">
        <ele>71.199996948242</ele>
        <time>2018-10-27T12:39:31Z</time>
      </trkpt>
      <trkpt lat="49.13278" lon="1.21888">
        <ele>72</ele>
        <time>2018-10-27T12:39:34Z</time>
      </trkpt>
      <trkpt lat="49.13281" lon="1.21894">
        <ele>72.599998474121</ele>
        <time>2018-10-27T12:39:36Z</time>
      </trkpt>
      <trkpt lat="49.13284" lon="1.219">
        <ele>73.199996948242</ele>
        <time>2018-10-27T12:39:43Z</time>
      </trkpt>
      <trkpt lat="49.1329" lon="1.21911">
        <ele>74.400001525879</ele>
        <time>2018-10-27T12:39:49Z</time>
      </trkpt>
      <trkpt lat="49.13294" lon="1.21919">
        <ele>75.400001525879</ele>
        <time>2018-10-27T12:39:50Z</time>
      </trkpt>
      <trkpt lat="49.13294" lon="1.2192">
        <ele>75.400001525879</ele>
        <time>2018-10-27T12:39:55Z</time>
      </trkpt>
      <trkpt lat="49.13295" lon="1.21922">
        <ele>75.599998474121</ele>
        <time>2018-10-27T12:39:57Z</time>
      </trkpt>
      <trkpt lat="49.13302" lon="1.21938">
        <ele>76.400001525879</ele>
        <time>2018-10-27T12:40:02Z</time>
      </trkpt>
      <trkpt lat="49.13303" lon="1.2194">
        <ele>76.400001525879</ele>
        <time>2018-10-27T12:40:07Z</time>
      </trkpt>
      <trkpt lat="49.13311" lon="1.21953">
        <ele>77.199996948242</ele>
        <time>2018-10-27T12:40:09Z</time>
      </trkpt>
      <trkpt lat="49.13314" lon="1.21956">
        <ele>77.599998474121</ele>
        <time>2018-10-27T12:40:15Z</time>
      </trkpt>
      <trkpt lat="49.13321" lon="1.21967">
        <ele>78.400001525879</ele>
        <time>2018-10-27T12:40:23Z</time>
      </trkpt>
      <trkpt lat="49.13324" lon="1.21971">
        <ele>78.599998474121</ele>
        <time>2018-10-27T12:40:24Z</time>
      </trkpt>
      <trkpt lat="49.13331" lon="1.2198">
        <ele>79</ele>
        <time>2018-10-27T12:40:31Z</time>
      </trkpt>
      <trkpt lat="49.13338" lon="1.21989">
        <ele>79.800003051758</ele>
        <time>2018-10-27T12:40:37Z</time>
      </trkpt>
      <trkpt lat="49.13341" lon="1.21992">
        <ele>79.800003051758</ele>
        <time>2018-10-27T12:40:43Z</time>
      </trkpt>
      <trkpt lat="49.13354" lon="1.22005">
        <ele>80.800003051758</ele>
        <time>2018-10-27T12:40:46Z</time>
      </trkpt>
      <trkpt lat="49.13355" lon="1.22007">
        <ele>81</ele>
        <time>2018-10-27T12:40:47Z</time>
      </trkpt>
      <trkpt lat="49.13365" lon="1.22018">
        <ele>82</ele>
        <time>2018-10-27T12:40:54Z</time>
      </trkpt>
      <trkpt lat="49.13367" lon="1.22021">
        <ele>82.199996948242</ele>
        <time>2018-10-27T12:41:01Z</time>
      </trkpt>
      <trkpt lat="49.13379" lon="1.22034">
        <ele>83</ele>
        <time>2018-10-27T12:41:08Z</time>
      </trkpt>
      <trkpt lat="49.1339" lon="1.22045">
        <ele>83.199996948242</ele>
        <time>2018-10-27T12:41:11Z</time>
      </trkpt>
      <trkpt lat="49.13392" lon="1.22046">
        <ele>83.400001525879</ele>
        <time>2018-10-27T12:41:17Z</time>
      </trkpt>
      <trkpt lat="49.13399" lon="1.22054">
        <ele>84.400001525879</ele>
        <time>2018-10-27T12:41:19Z</time>
      </trkpt>
      <trkpt lat="49.13401" lon="1.22056">
        <ele>84.400001525879</ele>
        <time>2018-10-27T12:41:27Z</time>
      </trkpt>
      <trkpt lat="49.13412" lon="1.22065">
        <ele>85.400001525879</ele>
        <time>2018-10-27T12:41:36Z</time>
      </trkpt>
      <trkpt lat="49.13414" lon="1.22067">
        <ele>85.599998474121</ele>
        <time>2018-10-27T12:41:40Z</time>
      </trkpt>
      <trkpt lat="49.13418" lon="1.22071">
        <ele>86</ele>
        <time>2018-10-27T12:41:45Z</time>
      </trkpt>
      <trkpt lat="49.13425" lon="1.22077">
        <ele>86.599998474121</ele>
        <time>2018-10-27T12:41:46Z</time>
      </trkpt>
      <trkpt lat="49.13439" lon="1.22089">
        <ele>87.400001525879</ele>
        <time>2018-10-27T12:41:52Z</time>
      </trkpt>
      <trkpt lat="49.13445" lon="1.22094">
        <ele>87.599998474121</ele>
        <time>2018-10-27T12:41:54Z</time>
      </trkpt>
      <trkpt lat="49.13455" lon="1.22104">
        <ele>88.400001525879</ele>
        <time>2018-10-27T12:41:58Z</time>
      </trkpt>
      <trkpt lat="49.13463" lon="1.22113">
        <ele>88.800003051758</ele>
        <time>2018-10-27T12:42:06Z</time>
      </trkpt>
      <trkpt lat="49.13474" lon="1.22127">
        <ele>89.199996948242</ele>
        <time>2018-10-27T12:42:13Z</time>
      </trkpt>
      <trkpt lat="49.13483" lon="1.22138">
        <ele>89.800003051758</ele>
        <time>2018-10-27T12:42:14Z</time>
      </trkpt>
      <trkpt lat="49.13493" lon="1.22151">
        <ele>90.400001525879</ele>
        <time>2018-10-27T12:42:23Z</time>
      </trkpt>
      <trkpt lat="49.13506" lon="1.22169">
        <ele>91</ele>
        <time>2018-10-27T12:42:24Z</time>
      </trkpt>
      <trkpt lat="49.13513" lon="1.22179">
        <ele>91.599998474121</ele>
        <time>2018-10-27T12:42:32Z</time>
      </trkpt>
      <trkpt lat="49.13522" lon="1.22191">
        <ele>92</ele>
        <time>2018-10-27T12:42:37Z</time>
      </trkpt>
      <trkpt lat="49.1353" lon="1.22201">
        <ele>92.599998474121</ele>
        <time>2018-10-27T12:42:47Z</time>
      </trkpt>
      <trkpt lat="49.13538" lon="1.22213">
        <ele>93</ele>
        <time>2018-10-27T12:42:57Z</time>
      </trkpt>
      <trkpt lat="49.13548" lon="1.22223">
        <ele>94.199996948242</ele>
        <time>2018-10-27T12:43:06Z</time>
      </trkpt>
      <trkpt lat="49.13563" lon="1.22243">
        <ele>95.199996948242</ele>
        <time>2018-10-27T12:43:10Z</time>
      </trkpt>
      <trkpt lat="49.13569" lon="1.22254">
        <ele>95.599998474121</ele>
        <time>2018-10-27T12:43:19Z</time>
      </trkpt>
      <trkpt lat="49.13573" lon="1.22262">
        <ele>96.400001525879</ele>
        <time>2018-10-27T12:43:20Z</time>
      </trkpt>
      <trkpt lat="49.13576" lon="1.22267">
        <ele>96.599998474121</ele>
        <time>2018-10-27T12:43:23Z</time>
      </trkpt>
      <trkpt lat="49.13582" lon="1.22279">
        <ele>97.400001525879</ele>
        <time>2018-10-27T12:43:25Z</time>
      </trkpt>
      <trkpt lat="49.13588" lon="1.22294">
        <ele>98.400001525879</ele>
        <time>2018-10-27T12:43:26Z</time>
      </trkpt>
      <trkpt lat="49.13589" lon="1.22296">
        <ele>98.599998474121</ele>
        <time>2018-10-27T12:43:33Z</time>
      </trkpt>
      <trkpt lat="49.136" lon="1.22323">
        <ele>99.599998474121</ele>
        <time>2018-10-27T12:43:35Z</time>
      </trkpt>
      <trkpt lat="49.1361" lon="1.22349">
        <ele>100.59999847412</ele>
        <time>2018-10-27T12:43:37Z</time>
      </trkpt>
      <trkpt lat="49.13619" lon="1.2237">
        <ele>101.19999694824</ele>
        <time>2018-10-27T12:43:39Z</time>
      </trkpt>
      <trkpt lat="49.13622" lon="1.2238">
        <ele>101.80000305176</ele>
        <time>2018-10-27T12:43:40Z</time>
      </trkpt>
      <trkpt lat="49.13631" lon="1.22404">
        <ele>102.59999847412</ele>
        <time>2018-10-27T12:43:42Z</time>
      </trkpt>
      <trkpt lat="49.13632" lon="1.22407">
        <ele>102.80000305176</ele>
        <time>2018-10-27T12:43:43Z</time>
      </trkpt>
      <trkpt lat="49.13641" lon="1.22439">
        <ele>103.40000152588</ele>
        <time>2018-10-27T12:43:45Z</time>
      </trkpt>
      <trkpt lat="49.13644" lon="1.22449">
        <ele>104</ele>
        <time>2018-10-27T12:43:46Z</time>
      </trkpt>
      <trkpt lat="49.13648" lon="1.22463">
        <ele>104.40000152588</ele>
        <time>2018-10-27T12:43:52Z</time>
      </trkpt>
      <trkpt lat="49.13653" lon="1.2248">
        <ele>105.19999694824</ele>
        <time>2018-10-27T12:43:53Z</time>
      </trkpt>
      <trkpt lat="49.13657" lon="1.22493">
        <ele>105.59999847412</ele>
        <time>2018-10-27T12:43:55Z</time>
      </trkpt>
      <trkpt lat="49.13664" lon="1.22517">
        <ele>106.40000152588</ele>
        <time>2018-10-27T12:43:58Z</time>
      </trkpt>
      <trkpt lat="49.13665" lon="1.22521">
        <ele>106.59999847412</ele>
        <time>2018-10-27T12:44:07Z</time>
      </trkpt>
      <trkpt lat="49.13668" lon="1.22536">
        <ele>107.40000152588</ele>
        <time>2018-10-27T12:44:10Z</time>
      </trkpt>
      <trkpt lat="49.13671" lon="1.22545">
        <ele>107.80000305176</ele>
        <time>2018-10-27T12:44:11Z</time>
      </trkpt>
      <trkpt lat="49.13676" lon="1.2256">
        <ele>108.59999847412</ele>
        <time>2018-10-27T12:44:13Z</time>
      </trkpt>
      <trkpt lat="49.13677" lon="1.22563">
        <ele>108.59999847412</ele>
        <time>2018-10-27T12:44:17Z</time>
      </trkpt>
      <trkpt lat="49.13681" lon="1.22573">
        <ele>109.19999694824</ele>
        <time>2018-10-27T12:44:21Z</time>
      </trkpt>
      <trkpt lat="49.13682" lon="1.22578">
        <ele>109.59999847412</ele>
        <time>2018-10-27T12:44:28Z</time>
      </trkpt>
      <trkpt lat="49.13686" lon="1.22593">
        <ele>110.40000152588</ele>
        <time>2018-10-27T12:44:29Z</time>
      </trkpt>
      <trkpt lat="49.13689" lon="1.22601">
        <ele>110.80000305176</ele>
        <time>2018-10-27T12:44:32Z</time>
      </trkpt>
      <trkpt lat="49.13696" lon="1.22616">
        <ele>112</ele>
        <time>2018-10-27T12:44:34Z</time>
      </trkpt>
      <trkpt lat="49.13697" lon="1.22619">
        <ele>112</ele>
        <time>2018-10-27T12:44:37Z</time>
      </trkpt>
      <trkpt lat="49.137" lon="1.22629">
        <ele>113</ele>
        <time>2018-10-27T12:44:40Z</time>
      </trkpt>
      <trkpt lat="49.13704" lon="1.22639">
        <ele>113.40000152588</ele>
        <time>2018-10-27T12:44:41Z</time>
      </trkpt>
      <trkpt lat="49.13707" lon="1.22647">
        <ele>114.19999694824</ele>
        <time>2018-10-27T12:44:45Z</time>
      </trkpt>
      <trkpt lat="49.1371" lon="1.22652">
        <ele>114.40000152588</ele>
        <time>2018-10-27T12:44:46Z</time>
      </trkpt>
      <trkpt lat="49.13716" lon="1.22667">
        <ele>115.19999694824</ele>
        <time>2018-10-27T12:44:51Z</time>
      </trkpt>
      <trkpt lat="49.13721" lon="1.22683">
        <ele>116.40000152588</ele>
        <time>2018-10-27T12:44:53Z</time>
      </trkpt>
      <trkpt lat="49.13722" lon="1.22686">
        <ele>116.40000152588</ele>
        <time>2018-10-27T12:44:56Z</time>
      </trkpt>
      <trkpt lat="49.13728" lon="1.227">
        <ele>117.40000152588</ele>
        <time>2018-10-27T12:44:59Z</time>
      </trkpt>
      <trkpt lat="49.13732" lon="1.22708">
        <ele>117.80000305176</ele>
        <time>2018-10-27T12:45:00Z</time>
      </trkpt>
      <trkpt lat="49.1374" lon="1.22722">
        <ele>118.59999847412</ele>
        <time>2018-10-27T12:45:03Z</time>
      </trkpt>
      <trkpt lat="49.13741" lon="1.22724">
        <ele>119</ele>
        <time>2018-10-27T12:45:04Z</time>
      </trkpt>
      <trkpt lat="49.13747" lon="1.22737">
        <ele>119.80000305176</ele>
        <time>2018-10-27T12:45:09Z</time>
      </trkpt>
      <trkpt lat="49.1375" lon="1.22742">
        <ele>120.19999694824</ele>
        <time>2018-10-27T12:45:12Z</time>
      </trkpt>
      <trkpt lat="49.13756" lon="1.22752">
        <ele>120.80000305176</ele>
        <time>2018-10-27T12:45:13Z</time>
      </trkpt>
      <trkpt lat="49.13763" lon="1.22764">
        <ele>121.80000305176</ele>
        <time>2018-10-27T12:45:14Z</time>
      </trkpt>
      <trkpt lat="49.13765" lon="1.22767">
        <ele>122</ele>
        <time>2018-10-27T12:45:16Z</time>
      </trkpt>
      <trkpt lat="49.13771" lon="1.22777">
        <ele>123.19999694824</ele>
        <time>2018-10-27T12:45:18Z</time>
      </trkpt>
      <trkpt lat="49.13776" lon="1.22784">
        <ele>123.59999847412</ele>
        <time>2018-10-27T12:45:19Z</time>
      </trkpt>
      <trkpt lat="49.13788" lon="1.22795">
        <ele>124.19999694824</ele>
        <time>2018-10-27T12:45:21Z</time>
      </trkpt>
      <trkpt lat="49.13789" lon="1.22797">
        <ele>124.40000152588</ele>
        <time>2018-10-27T12:45:24Z</time>
      </trkpt>
      <trkpt lat="49.13798" lon="1.22803">
        <ele>125.19999694824</ele>
        <time>2018-10-27T12:45:25Z</time>
      </trkpt>
      <trkpt lat="49.13803" lon="1.22806">
        <ele>125.80000305176</ele>
        <time>2018-10-27T12:45:26Z</time>
      </trkpt>
      <trkpt lat="49.13807" lon="1.22811">
        <ele>126.40000152588</ele>
        <time>2018-10-27T12:45:28Z</time>
      </trkpt>
      <trkpt lat="49.13809" lon="1.22812">
        <ele>126.59999847412</ele>
        <time>2018-10-27T12:45:30Z</time>
      </trkpt>
      <trkpt lat="49.13811" lon="1.22813">
        <ele>126.59999847412</ele>
        <time>2018-10-27T12:45:32Z</time>
      </trkpt>
      <trkpt lat="49.1382" lon="1.22817">
        <ele>127.40000152588</ele>
        <time>2018-10-27T12:45:34Z</time>
      </trkpt>
      <trkpt lat="49.13824" lon="1.22817">
        <ele>127.59999847412</ele>
        <time>2018-10-27T12:45:40Z</time>
      </trkpt>
      <trkpt lat="49.13829" lon="1.2282">
        <ele>128.39999389648</ele>
        <time>2018-10-27T12:45:47Z</time>
      </trkpt>
      <trkpt lat="49.13833" lon="1.22822">
        <ele>129.19999694824</ele>
        <time>2018-10-27T12:45:52Z</time>
      </trkpt>
      <trkpt lat="49.13838" lon="1.22823">
        <ele>129.60000610352</ele>
        <time>2018-10-27T12:45:53Z</time>
      </trkpt>
      <trkpt lat="49.13844" lon="1.22828">
        <ele>130.19999694824</ele>
        <time>2018-10-27T12:45:58Z</time>
      </trkpt>
      <trkpt lat="49.13845" lon="1.22829">
        <ele>130.60000610352</ele>
        <time>2018-10-27T12:45:59Z</time>
      </trkpt>
      <trkpt lat="49.13856" lon="1.22837">
        <ele>131.60000610352</ele>
        <time>2018-10-27T12:46:03Z</time>
      </trkpt>
      <trkpt lat="49.13858" lon="1.22838">
        <ele>131.80000305176</ele>
        <time>2018-10-27T12:46:05Z</time>
      </trkpt>
      <trkpt lat="49.13868" lon="1.22848">
        <ele>132.60000610352</ele>
        <time>2018-10-27T12:46:07Z</time>
      </trkpt>
      <trkpt lat="49.13871" lon="1.2285">
        <ele>133.39999389648</ele>
        <time>2018-10-27T12:46:08Z</time>
      </trkpt>
      <trkpt lat="49.13874" lon="1.22853">
        <ele>133.80000305176</ele>
        <time>2018-10-27T12:46:10Z</time>
      </trkpt>
      <trkpt lat="49.13879" lon="1.22857">
        <ele>134.19999694824</ele>
        <time>2018-10-27T12:46:13Z</time>
      </trkpt>
      <trkpt lat="49.13884" lon="1.22862">
        <ele>134.80000305176</ele>
        <time>2018-10-27T12:46:17Z</time>
      </trkpt>
      <trkpt lat="49.13888" lon="1.22864">
        <ele>135</ele>
        <time>2018-10-27T12:46:18Z</time>
      </trkpt>
      <trkpt lat="49.13899" lon="1.22875">
        <ele>136</ele>
        <time>2018-10-27T12:46:19Z</time>
      </trkpt>
      <trkpt lat="49.13912" lon="1.22888">
        <ele>136.80000305176</ele>
        <time>2018-10-27T12:46:21Z</time>
      </trkpt>
      <trkpt lat="49.13914" lon="1.2289">
        <ele>137</ele>
        <time>2018-10-27T12:46:23Z</time>
      </trkpt>
      <trkpt lat="49.13925" lon="1.22895">
        <ele>137.80000305176</ele>
        <time>2018-10-27T12:46:24Z</time>
      </trkpt>
      <trkpt lat="49.13929" lon="1.22897">
        <ele>138.19999694824</ele>
        <time>2018-10-27T12:46:25Z</time>
      </trkpt>
      <trkpt lat="49.13938" lon="1.22904">
        <ele>139</ele>
        <time>2018-10-27T12:46:28Z</time>
      </trkpt>
      <trkpt lat="49.13948" lon="1.22913">
        <ele>139.19999694824</ele>
        <time>2018-10-27T12:46:29Z</time>
      </trkpt>
      <trkpt lat="49.13952" lon="1.22917">
        <ele>139.39999389648</ele>
        <time>2018-10-27T12:46:32Z</time>
      </trkpt>
      <trkpt lat="49.13964" lon="1.22929">
        <ele>140.19999694824</ele>
        <time>2018-10-27T12:46:33Z</time>
      </trkpt>
      <trkpt lat="49.13982" lon="1.22947">
        <ele>140.39999389648</ele>
        <time>2018-10-27T12:46:34Z</time>
      </trkpt>
      <trkpt lat="49.13985" lon="1.22949">
        <ele>140.39999389648</ele>
        <time>2018-10-27T12:46:40Z</time>
      </trkpt>
      <trkpt lat="49.14001" lon="1.22965">
        <ele>140.80000305176</ele>
        <time>2018-10-27T12:46:44Z</time>
      </trkpt>
      <trkpt lat="49.14011" lon="1.22976">
        <ele>140.60000610352</ele>
        <time>2018-10-27T12:46:45Z</time>
      </trkpt>
      <trkpt lat="49.14025" lon="1.22992">
        <ele>140.39999389648</ele>
        <time>2018-10-27T12:46:50Z</time>
      </trkpt>
      <trkpt lat="49.14032" lon="1.2299">
        <ele>140.39999389648</ele>
        <time>2018-10-27T12:46:52Z</time>
      </trkpt>
      <trkpt lat="49.14034" lon="1.22986">
        <ele>140.39999389648</ele>
        <time>2018-10-27T12:46:54Z</time>
      </trkpt>
      <trkpt lat="49.14049" lon="1.22961">
        <ele>140.80000305176</ele>
        <time>2018-10-27T12:47:00Z</time>
      </trkpt>
      <trkpt lat="49.14062" lon="1.22933">
        <ele>141.19999694824</ele>
        <time>2018-10-27T12:47:05Z</time>
      </trkpt>
      <trkpt lat="49.14076" lon="1.22902">
        <ele>141.39999389648</ele>
        <time>2018-10-27T12:47:09Z</time>
      </trkpt>
      <trkpt lat="49.14083" lon="1.22888">
        <ele>141.19999694824</ele>
        <time>2018-10-27T12:47:12Z</time>
      </trkpt>
      <trkpt lat="49.141" lon="1.22859">
        <ele>141</ele>
        <time>2018-10-27T12:47:20Z</time>
      </trkpt>
      <trkpt lat="49.14106" lon="1.22848">
        <ele>141</ele>
        <time>2018-10-27T12:47:21Z</time>
      </trkpt>
      <trkpt lat="49.1413" lon="1.22806">
        <ele>141.39999389648</ele>
        <time>2018-10-27T12:47:23Z</time>
      </trkpt>
      <trkpt lat="49.14162" lon="1.22748">
        <ele>140.39999389648</ele>
        <time>2018-10-27T12:47:26Z</time>
      </trkpt>
      <trkpt lat="49.14177" lon="1.22718">
        <ele>140.39999389648</ele>
        <time>2018-10-27T12:47:33Z</time>
      </trkpt>
      <trkpt lat="49.14194" lon="1.22677">
        <ele>139.60000610352</ele>
        <time>2018-10-27T12:47:34Z</time>
      </trkpt>
      <trkpt lat="49.14198" lon="1.22668">
        <ele>139.39999389648</ele>
        <time>2018-10-27T12:47:39Z</time>
      </trkpt>
      <trkpt lat="49.14217" lon="1.22613">
        <ele>138.60000610352</ele>
        <time>2018-10-27T12:47:45Z</time>
      </trkpt>
      <trkpt lat="49.14222" lon="1.22594">
        <ele>138.39999389648</ele>
        <time>2018-10-27T12:47:50Z</time>
      </trkpt>
      <trkpt lat="49.14227" lon="1.22555">
        <ele>138.60000610352</ele>
        <time>2018-10-27T12:47:57Z</time>
      </trkpt>
      <trkpt lat="49.1423" lon="1.22475">
        <ele>138.60000610352</ele>
        <time>2018-10-27T12:48:00Z</time>
      </trkpt>
      <trkpt lat="49.14233" lon="1.22409">
        <ele>139.39999389648</ele>
        <time>2018-10-27T12:48:02Z</time>
      </trkpt>
      <trkpt lat="49.14233" lon="1.224">
        <ele>139.39999389648</ele>
        <time>2018-10-27T12:48:03Z</time>
      </trkpt>
      <trkpt lat="49.14238" lon="1.22316">
        <ele>139.39999389648</ele>
        <time>2018-10-27T12:48:06Z</time>
      </trkpt>
      <trkpt lat="49.14239" lon="1.22307">
        <ele>139.39999389648</ele>
        <time>2018-10-27T12:48:09Z</time>
      </trkpt>
      <trkpt lat="49.14252" lon="1.2223">
        <ele>138.80000305176</ele>
        <time>2018-10-27T12:48:13Z</time>
      </trkpt>
      <trkpt lat="49.14268" lon="1.22191">
        <ele>138.80000305176</ele>
        <time>2018-10-27T12:48:14Z</time>
      </trkpt>
      <trkpt lat="49.14306" lon="1.22122">
        <ele>138.80000305176</ele>
        <time>2018-10-27T12:48:15Z</time>
      </trkpt>
      <trkpt lat="49.14341" lon="1.22048">
        <ele>139.39999389648</ele>
        <time>2018-10-27T12:48:17Z</time>
      </trkpt>
      <trkpt lat="49.14371" lon="1.21978">
        <ele>139.39999389648</ele>
        <time>2018-10-27T12:48:19Z</time>
      </trkpt>
      <trkpt lat="49.14385" lon="1.21946">
        <ele>139.60000610352</ele>
        <time>2018-10-27T12:48:20Z</time>
      </trkpt>
      <trkpt lat="49.14419" lon="1.21878">
        <ele>139</ele>
        <time>2018-10-27T12:48:22Z</time>
      </trkpt>
      <trkpt lat="49.14423" lon="1.21871">
        <ele>139.19999694824</ele>
        <time>2018-10-27T12:48:25Z</time>
      </trkpt>
      <trkpt lat="49.14432" lon="1.21848">
        <ele>139.19999694824</ele>
        <time>2018-10-27T12:48:26Z</time>
      </trkpt>
      <trkpt lat="49.14438" lon="1.21832">
        <ele>138.19999694824</ele>
        <time>2018-10-27T12:48:28Z</time>
      </trkpt>
      <trkpt lat="49.14441" lon="1.21825">
        <ele>138.39999389648</ele>
        <time>2018-10-27T12:48:30Z</time>
      </trkpt>
      <trkpt lat="49.14465" lon="1.21773">
        <ele>137.60000610352</ele>
        <time>2018-10-27T12:48:34Z</time>
      </trkpt>
      <trkpt lat="49.14475" lon="1.2176">
        <ele>137</ele>
        <time>2018-10-27T12:48:36Z</time>
      </trkpt>
      <trkpt lat="49.14487" lon="1.21751">
        <ele>136.39999389648</ele>
        <time>2018-10-27T12:48:41Z</time>
      </trkpt>
      <trkpt lat="49.14498" lon="1.21739">
        <ele>136</ele>
        <time>2018-10-27T12:48:42Z</time>
      </trkpt>
      <trkpt lat="49.14503" lon="1.21732">
        <ele>135.60000610352</ele>
        <time>2018-10-27T12:48:48Z</time>
      </trkpt>
      <trkpt lat="49.14508" lon="1.21712">
        <ele>135.19999694824</ele>
        <time>2018-10-27T12:48:51Z</time>
      </trkpt>
      <trkpt lat="49.1451" lon="1.21702">
        <ele>135</ele>
        <time>2018-10-27T12:48:54Z</time>
      </trkpt>
      <trkpt lat="49.14511" lon="1.21679">
        <ele>133.80000305176</ele>
        <time>2018-10-27T12:48:55Z</time>
      </trkpt>
      <trkpt lat="49.14513" lon="1.21668">
        <ele>133.39999389648</ele>
        <time>2018-10-27T12:48:59Z</time>
      </trkpt>
      <trkpt lat="49.14523" lon="1.21608">
        <ele>134.80000305176</ele>
        <time>2018-10-27T12:49:00Z</time>
      </trkpt>
      <trkpt lat="49.14524" lon="1.216">
        <ele>135</ele>
        <time>2018-10-27T12:49:03Z</time>
      </trkpt>
      <trkpt lat="49.14525" lon="1.21586">
        <ele>136</ele>
        <time>2018-10-27T12:49:05Z</time>
      </trkpt>
      <trkpt lat="49.14525" lon="1.21565">
        <ele>137</ele>
        <time>2018-10-27T12:49:09Z</time>
      </trkpt>
      <trkpt lat="49.14524" lon="1.215">
        <ele>137.60000610352</ele>
        <time>2018-10-27T12:49:10Z</time>
      </trkpt>
      <trkpt lat="49.14518" lon="1.21481">
        <ele>138</ele>
        <time>2018-10-27T12:49:12Z</time>
      </trkpt>
      <trkpt lat="49.14515" lon="1.21476">
        <ele>138.19999694824</ele>
        <time>2018-10-27T12:49:16Z</time>
      </trkpt>
      <trkpt lat="49.1451" lon="1.21464">
        <ele>138.19999694824</ele>
        <time>2018-10-27T12:49:22Z</time>
      </trkpt>
      <trkpt lat="49.14499" lon="1.2144">
        <ele>138.39999389648</ele>
        <time>2018-10-27T12:49:24Z</time>
      </trkpt>
      <trkpt lat="49.14487" lon="1.21418">
        <ele>138.80000305176</ele>
        <time>2018-10-27T12:49:29Z</time>
      </trkpt>
      <trkpt lat="49.14461" lon="1.21384">
        <ele>139</ele>
        <time>2018-10-27T12:49:33Z</time>
      </trkpt>
      <trkpt lat="49.14456" lon="1.21381">
        <ele>139</ele>
        <time>2018-10-27T12:49:36Z</time>
      </trkpt>
      <trkpt lat="49.14441" lon="1.21375">
        <ele>139</ele>
        <time>2018-10-27T12:49:38Z</time>
      </trkpt>
      <trkpt lat="49.14431" lon="1.21372">
        <ele>139.19999694824</ele>
        <time>2018-10-27T12:49:43Z</time>
      </trkpt>
      <trkpt lat="49.14417" lon="1.21365">
        <ele>139.39999389648</ele>
        <time>2018-10-27T12:49:48Z</time>
      </trkpt>
      <trkpt lat="49.14404" lon="1.21353">
        <ele>139.39999389648</ele>
        <time>2018-10-27T12:49:54Z</time>
      </trkpt>
      <trkpt lat="49.14401" lon="1.21348">
        <ele>139.80000305176</ele>
        <time>2018-10-27T12:50:00Z</time>
      </trkpt>
      <trkpt lat="49.14386" lon="1.21329">
        <ele>140</ele>
        <time>2018-10-27T12:50:05Z</time>
      </trkpt>
      <trkpt lat="49.14382" lon="1.21323">
        <ele>139.80000305176</ele>
        <time>2018-10-27T12:50:08Z</time>
      </trkpt>
      <trkpt lat="49.14367" lon="1.21292">
        <ele>140.19999694824</ele>
        <time>2018-10-27T12:50:09Z</time>
      </trkpt>
      <trkpt lat="49.14361" lon="1.2128">
        <ele>140.39999389648</ele>
        <time>2018-10-27T12:50:14Z</time>
      </trkpt>
      <trkpt lat="49.14352" lon="1.21261">
        <ele>140.39999389648</ele>
        <time>2018-10-27T12:50:15Z</time>
      </trkpt>
      <trkpt lat="49.14346" lon="1.21239">
        <ele>140.19999694824</ele>
        <time>2018-10-27T12:50:21Z</time>
      </trkpt>
      <trkpt lat="49.14345" lon="1.21233">
        <ele>140.19999694824</ele>
        <time>2018-10-27T12:50:26Z</time>
      </trkpt>
      <trkpt lat="49.14342" lon="1.21215">
        <ele>140.60000610352</ele>
        <time>2018-10-27T12:50:27Z</time>
      </trkpt>
      <trkpt lat="49.14342" lon="1.21209">
        <ele>140.60000610352</ele>
        <time>2018-10-27T12:50:34Z</time>
      </trkpt>
      <trkpt lat="49.14343" lon="1.21173">
        <ele>140.19999694824</ele>
        <time>2018-10-27T12:50:37Z</time>
      </trkpt>
      <trkpt lat="49.14349" lon="1.21153">
        <ele>139.39999389648</ele>
        <time>2018-10-27T12:50:39Z</time>
      </trkpt>
      <trkpt lat="49.14352" lon="1.21148">
        <ele>139.39999389648</ele>
        <time>2018-10-27T12:50:40Z</time>
      </trkpt>
      <trkpt lat="49.14355" lon="1.21143">
        <ele>139.19999694824</ele>
        <time>2018-10-27T12:50:43Z</time>
      </trkpt>
      <trkpt lat="49.1436" lon="1.21134">
        <ele>139.60000610352</ele>
        <time>2018-10-27T12:50:46Z</time>
      </trkpt>
      <trkpt lat="49.14367" lon="1.21126">
        <ele>139</ele>
        <time>2018-10-27T12:50:48Z</time>
      </trkpt>
      <trkpt lat="49.14371" lon="1.21123">
        <ele>138.80000305176</ele>
        <time>2018-10-27T12:50:51Z</time>
      </trkpt>
      <trkpt lat="49.14378" lon="1.21115">
        <ele>138.60000610352</ele>
        <time>2018-10-27T12:50:53Z</time>
      </trkpt>
      <trkpt lat="49.14387" lon="1.21104">
        <ele>138.60000610352</ele>
        <time>2018-10-27T12:50:57Z</time>
      </trkpt>
      <trkpt lat="49.14391" lon="1.21098">
        <ele>138.39999389648</ele>
        <time>2018-10-27T12:50:59Z</time>
      </trkpt>
      <trkpt lat="49.14394" lon="1.21093">
        <ele>138.19999694824</ele>
        <time>2018-10-27T12:51:02Z</time>
      </trkpt>
      <trkpt lat="49.14402" lon="1.21083">
        <ele>137.80000305176</ele>
        <time>2018-10-27T12:51:03Z</time>
      </trkpt>
      <trkpt lat="49.1441" lon="1.21072">
        <ele>137.39999389648</ele>
        <time>2018-10-27T12:51:05Z</time>
      </trkpt>
      <trkpt lat="49.14421" lon="1.21061">
        <ele>137.19999694824</ele>
        <time>2018-10-27T12:51:08Z</time>
      </trkpt>
      <trkpt lat="49.14429" lon="1.21051">
        <ele>137</ele>
        <time>2018-10-27T12:51:10Z</time>
      </trkpt>
      <trkpt lat="49.14454" lon="1.21024">
        <ele>137</ele>
        <time>2018-10-27T12:51:12Z</time>
      </trkpt>
      <trkpt lat="49.14481" lon="1.20991">
        <ele>137.19999694824</ele>
        <time>2018-10-27T12:51:14Z</time>
      </trkpt>
      <trkpt lat="49.14503" lon="1.20967">
        <ele>136.60000610352</ele>
        <time>2018-10-27T12:51:18Z</time>
      </trkpt>
      <trkpt lat="49.14508" lon="1.20963">
        <ele>136.39999389648</ele>
        <time>2018-10-27T12:51:19Z</time>
      </trkpt>
      <trkpt lat="49.14532" lon="1.20944">
        <ele>136.19999694824</ele>
        <time>2018-10-27T12:51:22Z</time>
      </trkpt>
      <trkpt lat="49.14536" lon="1.20939">
        <ele>136.19999694824</ele>
        <time>2018-10-27T12:51:23Z</time>
      </trkpt>
      <trkpt lat="49.14549" lon="1.20915">
        <ele>136.19999694824</ele>
        <time>2018-10-27T12:51:31Z</time>
      </trkpt>
      <trkpt lat="49.14553" lon="1.20901">
        <ele>136</ele>
        <time>2018-10-27T12:51:35Z</time>
      </trkpt>
      <trkpt lat="49.14558" lon="1.20886">
        <ele>136</ele>
        <time>2018-10-27T12:51:37Z</time>
      </trkpt>
      <trkpt lat="49.1456" lon="1.20879">
        <ele>136.19999694824</ele>
        <time>2018-10-27T12:51:40Z</time>
      </trkpt>
      <trkpt lat="49.14564" lon="1.20862">
        <ele>136</ele>
        <time>2018-10-27T12:51:43Z</time>
      </trkpt>
      <trkpt lat="49.14568" lon="1.20837">
        <ele>135.60000610352</ele>
        <time>2018-10-27T12:51:45Z</time>
      </trkpt>
      <trkpt lat="49.14574" lon="1.20805">
        <ele>135</ele>
        <time>2018-10-27T12:51:46Z</time>
      </trkpt>
      <trkpt lat="49.14576" lon="1.20798">
        <ele>135</ele>
        <time>2018-10-27T12:51:50Z</time>
      </trkpt>
      <trkpt lat="49.14577" lon="1.20791">
        <ele>134.80000305176</ele>
        <time>2018-10-27T12:51:52Z</time>
      </trkpt>
      <trkpt lat="49.14578" lon="1.20777">
        <ele>135</ele>
        <time>2018-10-27T12:51:55Z</time>
      </trkpt>
      <trkpt lat="49.14578" lon="1.20762">
        <ele>135</ele>
        <time>2018-10-27T12:51:56Z</time>
      </trkpt>
      <trkpt lat="49.14578" lon="1.20754">
        <ele>134.80000305176</ele>
        <time>2018-10-27T12:51:58Z</time>
      </trkpt>
      <trkpt lat="49.14578" lon="1.20747">
        <ele>134.39999389648</ele>
        <time>2018-10-27T12:52:00Z</time>
      </trkpt>
      <trkpt lat="49.14576" lon="1.20723">
        <ele>134.19999694824</ele>
        <time>2018-10-27T12:52:03Z</time>
      </trkpt>
      <trkpt lat="49.14576" lon="1.20715">
        <ele>133.80000305176</ele>
        <time>2018-10-27T12:52:06Z</time>
      </trkpt>
      <trkpt lat="49.14576" lon="1.20687">
        <ele>132.80000305176</ele>
        <time>2018-10-27T12:52:08Z</time>
      </trkpt>
      <trkpt lat="49.14576" lon="1.20678">
        <ele>132.39999389648</ele>
        <time>2018-10-27T12:52:12Z</time>
      </trkpt>
      <trkpt lat="49.14576" lon="1.20668">
        <ele>132</ele>
        <time>2018-10-27T12:52:13Z</time>
      </trkpt>
      <trkpt lat="49.14579" lon="1.20619">
        <ele>132.19999694824</ele>
        <time>2018-10-27T12:52:17Z</time>
      </trkpt>
      <trkpt lat="49.14582" lon="1.20596">
        <ele>133.60000610352</ele>
        <time>2018-10-27T12:52:20Z</time>
      </trkpt>
      <trkpt lat="49.14583" lon="1.20591">
        <ele>133.80000305176</ele>
        <time>2018-10-27T12:52:21Z</time>
      </trkpt>
      <trkpt lat="49.14588" lon="1.20567">
        <ele>134.19999694824</ele>
        <time>2018-10-27T12:52:22Z</time>
      </trkpt>
      <trkpt lat="49.14592" lon="1.20557">
        <ele>134.60000610352</ele>
        <time>2018-10-27T12:52:26Z</time>
      </trkpt>
      <trkpt lat="49.14597" lon="1.20549">
        <ele>134.80000305176</ele>
        <time>2018-10-27T12:52:33Z</time>
      </trkpt>
      <trkpt lat="49.14613" lon="1.20526">
        <ele>135</ele>
        <time>2018-10-27T12:52:38Z</time>
      </trkpt>
      <trkpt lat="49.14626" lon="1.20502">
        <ele>135.39999389648</ele>
        <time>2018-10-27T12:52:39Z</time>
      </trkpt>
      <trkpt lat="49.14635" lon="1.20481">
        <ele>135.80000305176</ele>
        <time>2018-10-27T12:52:41Z</time>
      </trkpt>
      <trkpt lat="49.14639" lon="1.20464">
        <ele>135.80000305176</ele>
        <time>2018-10-27T12:52:42Z</time>
      </trkpt>
      <trkpt lat="49.14651" lon="1.20412">
        <ele>136.60000610352</ele>
        <time>2018-10-27T12:52:44Z</time>
      </trkpt>
      <trkpt lat="49.14652" lon="1.20406">
        <ele>136.80000305176</ele>
        <time>2018-10-27T12:52:46Z</time>
      </trkpt>
      <trkpt lat="49.14655" lon="1.20393">
        <ele>136.80000305176</ele>
        <time>2018-10-27T12:52:47Z</time>
      </trkpt>
      <trkpt lat="49.14659" lon="1.20375">
        <ele>137.19999694824</ele>
        <time>2018-10-27T12:52:49Z</time>
      </trkpt>
      <trkpt lat="49.14671" lon="1.20335">
        <ele>137.80000305176</ele>
        <time>2018-10-27T12:52:51Z</time>
      </trkpt>
      <trkpt lat="49.14672" lon="1.20331">
        <ele>137.80000305176</ele>
        <time>2018-10-27T12:52:52Z</time>
      </trkpt>
      <trkpt lat="49.14681" lon="1.20309">
        <ele>137.60000610352</ele>
        <time>2018-10-27T12:52:53Z</time>
      </trkpt>
      <trkpt lat="49.14696" lon="1.20283">
        <ele>137.80000305176</ele>
        <time>2018-10-27T12:52:55Z</time>
      </trkpt>
      <trkpt lat="49.14712" lon="1.20258">
        <ele>137.39999389648</ele>
        <time>2018-10-27T12:52:56Z</time>
      </trkpt>
      <trkpt lat="49.14736" lon="1.20223">
        <ele>136.80000305176</ele>
        <time>2018-10-27T12:52:58Z</time>
      </trkpt>
      <trkpt lat="49.14748" lon="1.20208">
        <ele>136.60000610352</ele>
        <time>2018-10-27T12:52:59Z</time>
      </trkpt>
      <trkpt lat="49.14755" lon="1.20197">
        <ele>136.39999389648</ele>
        <time>2018-10-27T12:53:00Z</time>
      </trkpt>
      <trkpt lat="49.14759" lon="1.20191">
        <ele>136.19999694824</ele>
        <time>2018-10-27T12:53:02Z</time>
      </trkpt>
      <trkpt lat="49.1477" lon="1.20175">
        <ele>135.60000610352</ele>
        <time>2018-10-27T12:53:03Z</time>
      </trkpt>
      <trkpt lat="49.14783" lon="1.20158">
        <ele>134.60000610352</ele>
        <time>2018-10-27T12:53:05Z</time>
      </trkpt>
      <trkpt lat="49.14802" lon="1.2013">
        <ele>133.19999694824</ele>
        <time>2018-10-27T12:53:07Z</time>
      </trkpt>
      <trkpt lat="49.14807" lon="1.20122">
        <ele>132.39999389648</ele>
        <time>2018-10-27T12:53:09Z</time>
      </trkpt>
      <trkpt lat="49.14812" lon="1.20113">
        <ele>132.19999694824</ele>
        <time>2018-10-27T12:53:11Z</time>
      </trkpt>
      <trkpt lat="49.14821" lon="1.20096">
        <ele>131</ele>
        <time>2018-10-27T12:53:12Z</time>
      </trkpt>
      <trkpt lat="49.14831" lon="1.20081">
        <ele>130.19999694824</ele>
        <time>2018-10-27T12:53:13Z</time>
      </trkpt>
      <trkpt lat="49.14836" lon="1.20075">
        <ele>130.39999389648</ele>
        <time>2018-10-27T12:53:15Z</time>
      </trkpt>
      <trkpt lat="49.14847" lon="1.20064">
        <ele>129.80000305176</ele>
        <time>2018-10-27T12:53:17Z</time>
      </trkpt>
      <trkpt lat="49.14864" lon="1.20047">
        <ele>128.80000305176</ele>
        <time>2018-10-27T12:53:18Z</time>
      </trkpt>
      <trkpt lat="49.14869" lon="1.20043">
        <ele>128.80000305176</ele>
        <time>2018-10-27T12:53:19Z</time>
      </trkpt>
      <trkpt lat="49.14881" lon="1.20034">
        <ele>128.80000305176</ele>
        <time>2018-10-27T12:53:21Z</time>
      </trkpt>
      <trkpt lat="49.14891" lon="1.20026">
        <ele>129</ele>
        <time>2018-10-27T12:53:23Z</time>
      </trkpt>
      <trkpt lat="49.14909" lon="1.20011">
        <ele>129.80000305176</ele>
        <time>2018-10-27T12:53:25Z</time>
      </trkpt>
      <trkpt lat="49.14918" lon="1.20004">
        <ele>130.39999389648</ele>
        <time>2018-10-27T12:53:26Z</time>
      </trkpt>
      <trkpt lat="49.14938" lon="1.19985">
        <ele>131</ele>
        <time>2018-10-27T12:53:27Z</time>
      </trkpt>
      <trkpt lat="49.14942" lon="1.19982">
        <ele>131</ele>
        <time>2018-10-27T12:53:28Z</time>
      </trkpt>
      <trkpt lat="49.14968" lon="1.1996">
        <ele>130.19999694824</ele>
        <time>2018-10-27T12:53:29Z</time>
      </trkpt>
      <trkpt lat="49.14981" lon="1.19948">
        <ele>130.19999694824</ele>
        <time>2018-10-27T12:53:30Z</time>
      </trkpt>
      <trkpt lat="49.14994" lon="1.19936">
        <ele>130.39999389648</ele>
        <time>2018-10-27T12:53:32Z</time>
      </trkpt>
      <trkpt lat="49.14999" lon="1.19933">
        <ele>130.80000305176</ele>
        <time>2018-10-27T12:53:33Z</time>
      </trkpt>
      <trkpt lat="49.15015" lon="1.19919">
        <ele>131.39999389648</ele>
        <time>2018-10-27T12:53:34Z</time>
      </trkpt>
      <trkpt lat="49.15018" lon="1.19915">
        <ele>131.39999389648</ele>
        <time>2018-10-27T12:53:36Z</time>
      </trkpt>
      <trkpt lat="49.15029" lon="1.19904">
        <ele>132</ele>
        <time>2018-10-27T12:53:38Z</time>
      </trkpt>
      <trkpt lat="49.15037" lon="1.19896">
        <ele>132.19999694824</ele>
        <time>2018-10-27T12:53:39Z</time>
      </trkpt>
      <trkpt lat="49.15054" lon="1.1988">
        <ele>132</ele>
        <time>2018-10-27T12:53:41Z</time>
      </trkpt>
      <trkpt lat="49.15059" lon="1.19878">
        <ele>131.80000305176</ele>
        <time>2018-10-27T12:53:42Z</time>
      </trkpt>
      <trkpt lat="49.15067" lon="1.19874">
        <ele>132.19999694824</ele>
        <time>2018-10-27T12:53:45Z</time>
      </trkpt>
      <trkpt lat="49.15084" lon="1.19866">
        <ele>132.19999694824</ele>
        <time>2018-10-27T12:53:47Z</time>
      </trkpt>
      <trkpt lat="49.15106" lon="1.19853">
        <ele>132.80000305176</ele>
        <time>2018-10-27T12:53:48Z</time>
      </trkpt>
      <trkpt lat="49.15112" lon="1.19846">
        <ele>133.19999694824</ele>
        <time>2018-10-27T12:53:49Z</time>
      </trkpt>
      <trkpt lat="49.1513" lon="1.19829">
        <ele>133.39999389648</ele>
        <time>2018-10-27T12:53:50Z</time>
      </trkpt>
      <trkpt lat="49.15144" lon="1.19818">
        <ele>134.39999389648</ele>
        <time>2018-10-27T12:53:51Z</time>
      </trkpt>
      <trkpt lat="49.15155" lon="1.19814">
        <ele>135</ele>
        <time>2018-10-27T12:53:53Z</time>
      </trkpt>
      <trkpt lat="49.15162" lon="1.19811">
        <ele>135.39999389648</ele>
        <time>2018-10-27T12:53:56Z</time>
      </trkpt>
      <trkpt lat="49.15181" lon="1.19802">
        <ele>135.60000610352</ele>
        <time>2018-10-27T12:53:58Z</time>
      </trkpt>
      <trkpt lat="49.15198" lon="1.19797">
        <ele>135.19999694824</ele>
        <time>2018-10-27T12:53:59Z</time>
      </trkpt>
      <trkpt lat="49.15221" lon="1.19799">
        <ele>135.19999694824</ele>
        <time>2018-10-27T12:54:03Z</time>
      </trkpt>
      <trkpt lat="49.15246" lon="1.198">
        <ele>135.39999389648</ele>
        <time>2018-10-27T12:54:05Z</time>
      </trkpt>
      <trkpt lat="49.15269" lon="1.19798">
        <ele>134.60000610352</ele>
        <time>2018-10-27T12:54:07Z</time>
      </trkpt>
      <trkpt lat="49.15282" lon="1.19796">
        <ele>134.80000305176</ele>
        <time>2018-10-27T12:54:12Z</time>
      </trkpt>
      <trkpt lat="49.15286" lon="1.19795">
        <ele>134.60000610352</ele>
        <time>2018-10-27T12:54:15Z</time>
      </trkpt>
      <trkpt lat="49.15308" lon="1.19789">
        <ele>134.60000610352</ele>
        <time>2018-10-27T12:54:17Z</time>
      </trkpt>
      <trkpt lat="49.15312" lon="1.19787">
        <ele>134.19999694824</ele>
        <time>2018-10-27T12:54:23Z</time>
      </trkpt>
      <trkpt lat="49.15338" lon="1.19775">
        <ele>134</ele>
        <time>2018-10-27T12:54:29Z</time>
      </trkpt>
      <trkpt lat="49.1536" lon="1.19765">
        <ele>133.39999389648</ele>
        <time>2018-10-27T12:54:30Z</time>
      </trkpt>
      <trkpt lat="49.15365" lon="1.19763">
        <ele>133.19999694824</ele>
        <time>2018-10-27T12:54:31Z</time>
      </trkpt>
      <trkpt lat="49.15404" lon="1.19753">
        <ele>132.39999389648</ele>
        <time>2018-10-27T12:54:32Z</time>
      </trkpt>
      <trkpt lat="49.15422" lon="1.1975">
        <ele>132</ele>
        <time>2018-10-27T12:54:33Z</time>
      </trkpt>
      <trkpt lat="49.15431" lon="1.19748">
        <ele>131.39999389648</ele>
        <time>2018-10-27T12:54:34Z</time>
      </trkpt>
      <trkpt lat="49.15436" lon="1.19747">
        <ele>131.39999389648</ele>
        <time>2018-10-27T12:54:36Z</time>
      </trkpt>
      <trkpt lat="49.15449" lon="1.19739">
        <ele>130.60000610352</ele>
        <time>2018-10-27T12:54:38Z</time>
      </trkpt>
      <trkpt lat="49.15464" lon="1.19731">
        <ele>130.19999694824</ele>
        <time>2018-10-27T12:54:40Z</time>
      </trkpt>
      <trkpt lat="49.15476" lon="1.19728">
        <ele>129.19999694824</ele>
        <time>2018-10-27T12:54:42Z</time>
      </trkpt>
      <trkpt lat="49.15494" lon="1.19726">
        <ele>128.39999389648</ele>
        <time>2018-10-27T12:54:43Z</time>
      </trkpt>
      <trkpt lat="49.15506" lon="1.19722">
        <ele>128.19999694824</ele>
        <time>2018-10-27T12:54:44Z</time>
      </trkpt>
      <trkpt lat="49.15528" lon="1.19716">
        <ele>127.59999847412</ele>
        <time>2018-10-27T12:54:45Z</time>
      </trkpt>
      <trkpt lat="49.1554" lon="1.19712">
        <ele>127.19999694824</ele>
        <time>2018-10-27T12:54:46Z</time>
      </trkpt>
      <trkpt lat="49.15554" lon="1.197">
        <ele>126.59999847412</ele>
        <time>2018-10-27T12:54:47Z</time>
      </trkpt>
      <trkpt lat="49.15558" lon="1.19695">
        <ele>126.40000152588</ele>
        <time>2018-10-27T12:54:49Z</time>
      </trkpt>
      <trkpt lat="49.15568" lon="1.19686">
        <ele>126</ele>
        <time>2018-10-27T12:54:51Z</time>
      </trkpt>
      <trkpt lat="49.15586" lon="1.19674">
        <ele>124.40000152588</ele>
        <time>2018-10-27T12:54:53Z</time>
      </trkpt>
      <trkpt lat="49.156" lon="1.19669">
        <ele>122.59999847412</ele>
        <time>2018-10-27T12:54:55Z</time>
      </trkpt>
      <trkpt lat="49.15615" lon="1.19665">
        <ele>121</ele>
        <time>2018-10-27T12:54:56Z</time>
      </trkpt>
      <trkpt lat="49.15629" lon="1.1966">
        <ele>119.59999847412</ele>
        <time>2018-10-27T12:54:57Z</time>
      </trkpt>
      <trkpt lat="49.15657" lon="1.19648">
        <ele>118.80000305176</ele>
        <time>2018-10-27T12:54:58Z</time>
      </trkpt>
      <trkpt lat="49.15664" lon="1.19644">
        <ele>118.59999847412</ele>
        <time>2018-10-27T12:55:00Z</time>
      </trkpt>
      <trkpt lat="49.15684" lon="1.19631">
        <ele>117.40000152588</ele>
        <time>2018-10-27T12:55:01Z</time>
      </trkpt>
      <trkpt lat="49.15688" lon="1.19625">
        <ele>117.19999694824</ele>
        <time>2018-10-27T12:55:03Z</time>
      </trkpt>
      <trkpt lat="49.15724" lon="1.19579">
        <ele>117.59999847412</ele>
        <time>2018-10-27T12:55:05Z</time>
      </trkpt>
      <trkpt lat="49.15746" lon="1.19566">
        <ele>117.19999694824</ele>
        <time>2018-10-27T12:55:06Z</time>
      </trkpt>
      <trkpt lat="49.15758" lon="1.19564">
        <ele>117.19999694824</ele>
        <time>2018-10-27T12:55:08Z</time>
      </trkpt>
      <trkpt lat="49.15774" lon="1.19565">
        <ele>117.40000152588</ele>
        <time>2018-10-27T12:55:10Z</time>
      </trkpt>
      <trkpt lat="49.15789" lon="1.19566">
        <ele>118.40000152588</ele>
        <time>2018-10-27T12:55:11Z</time>
      </trkpt>
      <trkpt lat="49.15799" lon="1.19565">
        <ele>118.59999847412</ele>
        <time>2018-10-27T12:55:13Z</time>
      </trkpt>
      <trkpt lat="49.15804" lon="1.19564">
        <ele>118.40000152588</ele>
        <time>2018-10-27T12:55:15Z</time>
      </trkpt>
      <trkpt lat="49.15823" lon="1.1956">
        <ele>118.19999694824</ele>
        <time>2018-10-27T12:55:16Z</time>
      </trkpt>
      <trkpt lat="49.15832" lon="1.19557">
        <ele>117.80000305176</ele>
        <time>2018-10-27T12:55:17Z</time>
      </trkpt>
      <trkpt lat="49.15845" lon="1.19561">
        <ele>117.40000152588</ele>
        <time>2018-10-27T12:55:19Z</time>
      </trkpt>
      <trkpt lat="49.15849" lon="1.19562">
        <ele>117.19999694824</ele>
        <time>2018-10-27T12:55:21Z</time>
      </trkpt>
      <trkpt lat="49.15856" lon="1.19563">
        <ele>117.40000152588</ele>
        <time>2018-10-27T12:55:24Z</time>
      </trkpt>
      <trkpt lat="49.15864" lon="1.19565">
        <ele>117.59999847412</ele>
        <time>2018-10-27T12:55:28Z</time>
      </trkpt>
      <trkpt lat="49.15877" lon="1.19569">
        <ele>117</ele>
        <time>2018-10-27T12:55:33Z</time>
      </trkpt>
      <trkpt lat="49.15892" lon="1.1957">
        <ele>116.59999847412</ele>
        <time>2018-10-27T12:55:35Z</time>
      </trkpt>
      <trkpt lat="49.15902" lon="1.19571">
        <ele>116.59999847412</ele>
        <time>2018-10-27T12:55:38Z</time>
      </trkpt>
      <trkpt lat="49.15922" lon="1.19571">
        <ele>116.19999694824</ele>
        <time>2018-10-27T12:55:41Z</time>
      </trkpt>
      <trkpt lat="49.15927" lon="1.19572">
        <ele>116</ele>
        <time>2018-10-27T12:55:46Z</time>
      </trkpt>
      <trkpt lat="49.15946" lon="1.19577">
        <ele>115.80000305176</ele>
        <time>2018-10-27T12:55:47Z</time>
      </trkpt>
      <trkpt lat="49.1596" lon="1.19582">
        <ele>115.19999694824</ele>
        <time>2018-10-27T12:55:51Z</time>
      </trkpt>
      <trkpt lat="49.15966" lon="1.19582">
        <ele>115.19999694824</ele>
        <time>2018-10-27T12:55:54Z</time>
      </trkpt>
      <trkpt lat="49.15971" lon="1.19582">
        <ele>115.19999694824</ele>
        <time>2018-10-27T12:55:56Z</time>
      </trkpt>
      <trkpt lat="49.15988" lon="1.19573">
        <ele>115.59999847412</ele>
        <time>2018-10-27T12:55:59Z</time>
      </trkpt>
      <trkpt lat="49.1602" lon="1.19554">
        <ele>114.80000305176</ele>
        <time>2018-10-27T12:56:00Z</time>
      </trkpt>
      <trkpt lat="49.16042" lon="1.19541">
        <ele>114</ele>
        <time>2018-10-27T12:56:02Z</time>
      </trkpt>
      <trkpt lat="49.16047" lon="1.19539">
        <ele>114</ele>
        <time>2018-10-27T12:56:03Z</time>
      </trkpt>
      <trkpt lat="49.16056" lon="1.19534">
        <ele>113.40000152588</ele>
        <time>2018-10-27T12:56:09Z</time>
      </trkpt>
      <trkpt lat="49.16061" lon="1.19531">
        <ele>112.80000305176</ele>
        <time>2018-10-27T12:56:24Z</time>
      </trkpt>
      <trkpt lat="49.1607" lon="1.19522">
        <ele>112.40000152588</ele>
        <time>2018-10-27T12:56:26Z</time>
      </trkpt>
      <trkpt lat="49.1608" lon="1.19514">
        <ele>111.80000305176</ele>
        <time>2018-10-27T12:56:32Z</time>
      </trkpt>
      <trkpt lat="49.16085" lon="1.19511">
        <ele>111.40000152588</ele>
        <time>2018-10-27T12:56:40Z</time>
      </trkpt>
      <trkpt lat="49.16097" lon="1.19505">
        <ele>110.40000152588</ele>
        <time>2018-10-27T12:56:44Z</time>
      </trkpt>
      <trkpt lat="49.1611" lon="1.19496">
        <ele>109.59999847412</ele>
        <time>2018-10-27T12:56:49Z</time>
      </trkpt>
      <trkpt lat="49.16115" lon="1.19491">
        <ele>109.19999694824</ele>
        <time>2018-10-27T12:56:57Z</time>
      </trkpt>
      <trkpt lat="49.1612" lon="1.19486">
        <ele>108.80000305176</ele>
        <time>2018-10-27T12:57:05Z</time>
      </trkpt>
      <trkpt lat="49.16129" lon="1.19477">
        <ele>107.80000305176</ele>
        <time>2018-10-27T12:57:12Z</time>
      </trkpt>
      <trkpt lat="49.16134" lon="1.19473">
        <ele>106.80000305176</ele>
        <time>2018-10-27T12:57:18Z</time>
      </trkpt>
      <trkpt lat="49.16143" lon="1.19465">
        <ele>104.80000305176</ele>
        <time>2018-10-27T12:57:24Z</time>
      </trkpt>
      <trkpt lat="49.16148" lon="1.19462">
        <ele>104.19999694824</ele>
        <time>2018-10-27T12:57:32Z</time>
      </trkpt>
      <trkpt lat="49.16152" lon="1.19458">
        <ele>103.40000152588</ele>
        <time>2018-10-27T12:57:41Z</time>
      </trkpt>
      <trkpt lat="49.16161" lon="1.19452">
        <ele>100.80000305176</ele>
        <time>2018-10-27T12:57:42Z</time>
      </trkpt>
      <trkpt lat="49.16166" lon="1.19449">
        <ele>99.599998474121</ele>
        <time>2018-10-27T12:57:48Z</time>
      </trkpt>
      <trkpt lat="49.16176" lon="1.19442">
        <ele>97.400001525879</ele>
        <time>2018-10-27T12:57:51Z</time>
      </trkpt>
      <trkpt lat="49.16184" lon="1.19436">
        <ele>95.800003051758</ele>
        <time>2018-10-27T12:57:57Z</time>
      </trkpt>
      <trkpt lat="49.16192" lon="1.19432">
        <ele>94</ele>
        <time>2018-10-27T12:58:04Z</time>
      </trkpt>
      <trkpt lat="49.16201" lon="1.19427">
        <ele>92.400001525879</ele>
        <time>2018-10-27T12:58:06Z</time>
      </trkpt>
      <trkpt lat="49.16205" lon="1.19425">
        <ele>91.800003051758</ele>
        <time>2018-10-27T12:58:13Z</time>
      </trkpt>
      <trkpt lat="49.1621" lon="1.19423">
        <ele>91.199996948242</ele>
        <time>2018-10-27T12:58:19Z</time>
      </trkpt>
      <trkpt lat="49.1622" lon="1.19418">
        <ele>89</ele>
        <time>2018-10-27T12:58:22Z</time>
      </trkpt>
      <trkpt lat="49.1623" lon="1.19414">
        <ele>87.400001525879</ele>
        <time>2018-10-27T12:58:24Z</time>
      </trkpt>
      <trkpt lat="49.16234" lon="1.19411">
        <ele>86.800003051758</ele>
        <time>2018-10-27T12:58:31Z</time>
      </trkpt>
      <trkpt lat="49.16239" lon="1.1941">
        <ele>86</ele>
        <time>2018-10-27T12:58:38Z</time>
      </trkpt>
      <trkpt lat="49.16247" lon="1.19406">
        <ele>84</ele>
        <time>2018-10-27T12:58:42Z</time>
      </trkpt>
      <trkpt lat="49.16256" lon="1.19401">
        <ele>82.400001525879</ele>
        <time>2018-10-27T12:58:43Z</time>
      </trkpt>
      <trkpt lat="49.16266" lon="1.19397">
        <ele>80.599998474121</ele>
        <time>2018-10-27T12:58:46Z</time>
      </trkpt>
      <trkpt lat="49.1627" lon="1.19395">
        <ele>78.199996948242</ele>
        <time>2018-10-27T12:58:47Z</time>
      </trkpt>
      <trkpt lat="49.16275" lon="1.19393">
        <ele>77.199996948242</ele>
        <time>2018-10-27T12:58:53Z</time>
      </trkpt>
      <trkpt lat="49.16281" lon="1.19391">
        <ele>76.199996948242</ele>
        <time>2018-10-27T12:58:54Z</time>
      </trkpt>
      <trkpt lat="49.16287" lon="1.19388">
        <ele>75.199996948242</ele>
        <time>2018-10-27T12:59:00Z</time>
      </trkpt>
      <trkpt lat="49.16293" lon="1.19385">
        <ele>74</ele>
        <time>2018-10-27T12:59:05Z</time>
      </trkpt>
      <trkpt lat="49.16307" lon="1.1938">
        <ele>72</ele>
        <time>2018-10-27T12:59:07Z</time>
      </trkpt>
      <trkpt lat="49.16314" lon="1.19377">
        <ele>71</ele>
        <time>2018-10-27T12:59:11Z</time>
      </trkpt>
      <trkpt lat="49.1632" lon="1.19375">
        <ele>70</ele>
        <time>2018-10-27T12:59:14Z</time>
      </trkpt>
      <trkpt lat="49.1633" lon="1.1937">
        <ele>68.599998474121</ele>
        <time>2018-10-27T12:59:16Z</time>
      </trkpt>
      <trkpt lat="49.16342" lon="1.19366">
        <ele>68</ele>
        <time>2018-10-27T12:59:21Z</time>
      </trkpt>
      <trkpt lat="49.16347" lon="1.19365">
        <ele>67.599998474121</ele>
        <time>2018-10-27T12:59:26Z</time>
      </trkpt>
      <trkpt lat="49.16356" lon="1.19363">
        <ele>66.400001525879</ele>
        <time>2018-10-27T12:59:28Z</time>
      </trkpt>
      <trkpt lat="49.1636" lon="1.19363">
        <ele>66.599998474121</ele>
        <time>2018-10-27T12:59:30Z</time>
      </trkpt>
      <trkpt lat="49.16371" lon="1.19361">
        <ele>65.400001525879</ele>
        <time>2018-10-27T12:59:34Z</time>
      </trkpt>
      <trkpt lat="49.1638" lon="1.19358">
        <ele>64.199996948242</ele>
        <time>2018-10-27T12:59:36Z</time>
      </trkpt>
      <trkpt lat="49.16384" lon="1.19355">
        <ele>63.400001525879</ele>
        <time>2018-10-27T12:59:41Z</time>
      </trkpt>
      <trkpt lat="49.16389" lon="1.19352">
        <ele>62.599998474121</ele>
        <time>2018-10-27T12:59:42Z</time>
      </trkpt>
      <trkpt lat="49.16394" lon="1.19348">
        <ele>61</ele>
        <time>2018-10-27T12:59:46Z</time>
      </trkpt>
      <trkpt lat="49.164" lon="1.19344">
        <ele>60.400001525879</ele>
        <time>2018-10-27T12:59:49Z</time>
      </trkpt>
      <trkpt lat="49.1641" lon="1.1934">
        <ele>60.400001525879</ele>
        <time>2018-10-27T12:59:53Z</time>
      </trkpt>
      <trkpt lat="49.16424" lon="1.19335">
        <ele>61.200000762939</ele>
        <time>2018-10-27T12:59:54Z</time>
      </trkpt>
      <trkpt lat="49.16433" lon="1.1933">
        <ele>62</ele>
        <time>2018-10-27T12:59:59Z</time>
      </trkpt>
      <trkpt lat="49.16437" lon="1.19327">
        <ele>62.200000762939</ele>
        <time>2018-10-27T13:00:01Z</time>
      </trkpt>
      <trkpt lat="49.16454" lon="1.1932">
        <ele>63.400001525879</ele>
        <time>2018-10-27T13:00:05Z</time>
      </trkpt>
      <trkpt lat="49.16461" lon="1.19318">
        <ele>64</ele>
        <time>2018-10-27T13:00:08Z</time>
      </trkpt>
      <trkpt lat="49.16468" lon="1.19316">
        <ele>64.800003051758</ele>
        <time>2018-10-27T13:00:12Z</time>
      </trkpt>
      <trkpt lat="49.16486" lon="1.19316">
        <ele>66</ele>
        <time>2018-10-27T13:00:15Z</time>
      </trkpt>
      <trkpt lat="49.16495" lon="1.19318">
        <ele>67.199996948242</ele>
        <time>2018-10-27T13:00:17Z</time>
      </trkpt>
      <trkpt lat="49.165" lon="1.19321">
        <ele>67.400001525879</ele>
        <time>2018-10-27T13:00:21Z</time>
      </trkpt>
      <trkpt lat="49.16511" lon="1.19333">
        <ele>67.599998474121</ele>
        <time>2018-10-27T13:00:23Z</time>
      </trkpt>
      <trkpt lat="49.16521" lon="1.19351">
        <ele>66.199996948242</ele>
        <time>2018-10-27T13:00:26Z</time>
      </trkpt>
      <trkpt lat="49.16523" lon="1.19355">
        <ele>65.599998474121</ele>
        <time>2018-10-27T13:00:29Z</time>
      </trkpt>
      <trkpt lat="49.16526" lon="1.1936">
        <ele>64.800003051758</ele>
        <time>2018-10-27T13:00:34Z</time>
      </trkpt>
      <trkpt lat="49.1653" lon="1.19365">
        <ele>64</ele>
        <time>2018-10-27T13:00:38Z</time>
      </trkpt>
      <trkpt lat="49.16534" lon="1.19369">
        <ele>63.200000762939</ele>
        <time>2018-10-27T13:00:46Z</time>
      </trkpt>
      <trkpt lat="49.16538" lon="1.19373">
        <ele>62</ele>
        <time>2018-10-27T13:00:55Z</time>
      </trkpt>
      <trkpt lat="49.16547" lon="1.19381">
        <ele>60.200000762939</ele>
        <time>2018-10-27T13:00:56Z</time>
      </trkpt>
      <trkpt lat="49.16557" lon="1.19389">
        <ele>56.799999237061</ele>
        <time>2018-10-27T13:01:03Z</time>
      </trkpt>
      <trkpt lat="49.16567" lon="1.19399">
        <ele>55</ele>
        <time>2018-10-27T13:01:06Z</time>
      </trkpt>
      <trkpt lat="49.16577" lon="1.19409">
        <ele>53.200000762939</ele>
        <time>2018-10-27T13:01:08Z</time>
      </trkpt>
      <trkpt lat="49.16581" lon="1.19415">
        <ele>52.400001525879</ele>
        <time>2018-10-27T13:01:10Z</time>
      </trkpt>
      <trkpt lat="49.16585" lon="1.19422">
        <ele>51.799999237061</ele>
        <time>2018-10-27T13:01:11Z</time>
      </trkpt>
      <trkpt lat="49.16589" lon="1.1943">
        <ele>50.599998474121</ele>
        <time>2018-10-27T13:01:13Z</time>
      </trkpt>
      <trkpt lat="49.16593" lon="1.19437">
        <ele>49.400001525879</ele>
        <time>2018-10-27T13:01:19Z</time>
      </trkpt>
      <trkpt lat="49.16596" lon="1.19444">
        <ele>48.200000762939</ele>
        <time>2018-10-27T13:01:26Z</time>
      </trkpt>
      <trkpt lat="49.16602" lon="1.19461">
        <ele>46.400001525879</ele>
        <time>2018-10-27T13:01:31Z</time>
      </trkpt>
      <trkpt lat="49.16607" lon="1.19479">
        <ele>44.799999237061</ele>
        <time>2018-10-27T13:01:32Z</time>
      </trkpt>
      <trkpt lat="49.16611" lon="1.19497">
        <ele>42.799999237061</ele>
        <time>2018-10-27T13:01:38Z</time>
      </trkpt>
      <trkpt lat="49.16615" lon="1.19512">
        <ele>41.599998474121</ele>
        <time>2018-10-27T13:01:43Z</time>
      </trkpt>
      <trkpt lat="49.16617" lon="1.19519">
        <ele>41.200000762939</ele>
        <time>2018-10-27T13:01:50Z</time>
      </trkpt>
      <trkpt lat="49.16619" lon="1.19526">
        <ele>41</ele>
        <time>2018-10-27T13:01:57Z</time>
      </trkpt>
      <trkpt lat="49.16622" lon="1.19533">
        <ele>40.400001525879</ele>
        <time>2018-10-27T13:02:00Z</time>
      </trkpt>
      <trkpt lat="49.16628" lon="1.19546">
        <ele>39.400001525879</ele>
        <time>2018-10-27T13:02:04Z</time>
      </trkpt>
      <trkpt lat="49.16632" lon="1.19553">
        <ele>39.400001525879</ele>
        <time>2018-10-27T13:02:10Z</time>
      </trkpt>
      <trkpt lat="49.16639" lon="1.19566">
        <ele>38</ele>
        <time>2018-10-27T13:02:13Z</time>
      </trkpt>
      <trkpt lat="49.16647" lon="1.19576">
        <ele>37.799999237061</ele>
        <time>2018-10-27T13:02:15Z</time>
      </trkpt>
      <trkpt lat="49.16651" lon="1.1958">
        <ele>37.599998474121</ele>
        <time>2018-10-27T13:02:21Z</time>
      </trkpt>
      <trkpt lat="49.16659" lon="1.19585">
        <ele>37.599998474121</ele>
        <time>2018-10-27T13:02:23Z</time>
      </trkpt>
      <trkpt lat="49.1667" lon="1.19586">
        <ele>37</ele>
        <time>2018-10-27T13:02:25Z</time>
      </trkpt>
      <trkpt lat="49.16675" lon="1.19584">
        <ele>36.799999237061</ele>
        <time>2018-10-27T13:02:26Z</time>
      </trkpt>
      <trkpt lat="49.16685" lon="1.19573">
        <ele>36</ele>
        <time>2018-10-27T13:02:29Z</time>
      </trkpt>
      <trkpt lat="49.16693" lon="1.19558">
        <ele>34.799999237061</ele>
        <time>2018-10-27T13:02:30Z</time>
      </trkpt>
      <trkpt lat="49.16696" lon="1.19549">
        <ele>34.599998474121</ele>
        <time>2018-10-27T13:02:32Z</time>
      </trkpt>
      <trkpt lat="49.16698" lon="1.19539">
        <ele>34</ele>
        <time>2018-10-27T13:02:37Z</time>
      </trkpt>
      <trkpt lat="49.16703" lon="1.19517">
        <ele>33</ele>
        <time>2018-10-27T13:02:42Z</time>
      </trkpt>
      <trkpt lat="49.16707" lon="1.19498">
        <ele>30.799999237061</ele>
        <time>2018-10-27T13:02:46Z</time>
      </trkpt>
      <trkpt lat="49.16713" lon="1.19481">
        <ele>31</ele>
        <time>2018-10-27T13:02:47Z</time>
      </trkpt>
      <trkpt lat="49.16714" lon="1.19459">
        <ele>30.799999237061</ele>
        <time>2018-10-27T13:02:50Z</time>
      </trkpt>
      <trkpt lat="49.16711" lon="1.19424">
        <ele>30.60000038147</ele>
        <time>2018-10-27T13:02:52Z</time>
      </trkpt>
      <trkpt lat="49.1671" lon="1.19407">
        <ele>30.39999961853</ele>
        <time>2018-10-27T13:02:59Z</time>
      </trkpt>
      <trkpt lat="49.16711" lon="1.1938">
        <ele>30.200000762939</ele>
        <time>2018-10-27T13:03:04Z</time>
      </trkpt>
      <trkpt lat="49.1671" lon="1.19353">
        <ele>29.799999237061</ele>
        <time>2018-10-27T13:03:07Z</time>
      </trkpt>
      <trkpt lat="49.16707" lon="1.19306">
        <ele>28.799999237061</ele>
        <time>2018-10-27T13:03:13Z</time>
      </trkpt>
      <trkpt lat="49.16706" lon="1.19297">
        <ele>28.60000038147</ele>
        <time>2018-10-27T13:03:15Z</time>
      </trkpt>
      <trkpt lat="49.16705" lon="1.19255">
        <ele>27</ele>
        <time>2018-10-27T13:03:20Z</time>
      </trkpt>
      <trkpt lat="49.16706" lon="1.19221">
        <ele>25.60000038147</ele>
        <time>2018-10-27T13:03:26Z</time>
      </trkpt>
      <trkpt lat="49.16707" lon="1.19198">
        <ele>24.60000038147</ele>
        <time>2018-10-27T13:03:29Z</time>
      </trkpt>
      <trkpt lat="49.16707" lon="1.19172">
        <ele>23.799999237061</ele>
        <time>2018-10-27T13:03:33Z</time>
      </trkpt>
      <trkpt lat="49.16707" lon="1.19166">
        <ele>23.799999237061</ele>
        <time>2018-10-27T13:03:38Z</time>
      </trkpt>
      <trkpt lat="49.16709" lon="1.19159">
        <ele>23.799999237061</ele>
        <time>2018-10-27T13:03:39Z</time>
      </trkpt>
      <trkpt lat="49.16711" lon="1.19159">
        <ele>24</ele>
        <time>2018-10-27T13:03:46Z</time>
      </trkpt>
      <trkpt lat="49.16732" lon="1.19161">
        <ele>24.60000038147</ele>
        <time>2018-10-27T13:03:51Z</time>
      </trkpt>
      <trkpt lat="49.16737" lon="1.19159">
        <ele>24.799999237061</ele>
        <time>2018-10-27T13:03:52Z</time>
      </trkpt>
      <trkpt lat="49.16741" lon="1.19157">
        <ele>25</ele>
        <time>2018-10-27T13:03:57Z</time>
      </trkpt>
      <trkpt lat="49.16759" lon="1.19151">
        <ele>25.200000762939</ele>
        <time>2018-10-27T13:04:02Z</time>
      </trkpt>
      <trkpt lat="49.16791" lon="1.19139">
        <ele>25.200000762939</ele>
        <time>2018-10-27T13:04:03Z</time>
      </trkpt>
      <trkpt lat="49.16808" lon="1.19133">
        <ele>25.60000038147</ele>
        <time>2018-10-27T13:04:10Z</time>
      </trkpt>
      <trkpt lat="49.16831" lon="1.19123">
        <ele>26.200000762939</ele>
        <time>2018-10-27T13:04:17Z</time>
      </trkpt>
      <trkpt lat="49.16872" lon="1.19105">
        <ele>25.60000038147</ele>
        <time>2018-10-27T13:04:23Z</time>
      </trkpt>
      <trkpt lat="49.16914" lon="1.19087">
        <ele>25</ele>
        <time>2018-10-27T13:04:28Z</time>
      </trkpt>
      <trkpt lat="49.1695" lon="1.1907">
        <ele>25</ele>
        <time>2018-10-27T13:04:33Z</time>
      </trkpt>
      <trkpt lat="49.16981" lon="1.19057">
        <ele>25</ele>
        <time>2018-10-27T13:04:34Z</time>
      </trkpt>
      <trkpt lat="49.1701" lon="1.19042">
        <ele>24.60000038147</ele>
        <time>2018-10-27T13:04:40Z</time>
      </trkpt>
      <trkpt lat="49.17051" lon="1.19024">
        <ele>24.60000038147</ele>
        <time>2018-10-27T13:04:43Z</time>
      </trkpt>
      <trkpt lat="49.17097" lon="1.18999">
        <ele>23.799999237061</ele>
        <time>2018-10-27T13:04:47Z</time>
      </trkpt>
      <trkpt lat="49.17102" lon="1.18997">
        <ele>23.60000038147</ele>
        <time>2018-10-27T13:04:52Z</time>
      </trkpt>
      <trkpt lat="49.17132" lon="1.1898">
        <ele>23</ele>
        <time>2018-10-27T13:04:58Z</time>
      </trkpt>
      <trkpt lat="49.17148" lon="1.18972">
        <ele>22.39999961853</ele>
        <time>2018-10-27T13:05:04Z</time>
      </trkpt>
      <trkpt lat="49.17178" lon="1.18952">
        <ele>22.200000762939</ele>
        <time>2018-10-27T13:05:05Z</time>
      </trkpt>
      <trkpt lat="49.17215" lon="1.18928">
        <ele>21.39999961853</ele>
        <time>2018-10-27T13:05:10Z</time>
      </trkpt>
      <trkpt lat="49.17226" lon="1.18921">
        <ele>21.200000762939</ele>
        <time>2018-10-27T13:05:13Z</time>
      </trkpt>
      <trkpt lat="49.1726" lon="1.18898">
        <ele>21</ele>
        <time>2018-10-27T13:05:14Z</time>
      </trkpt>
      <trkpt lat="49.1729" lon="1.18879">
        <ele>20.799999237061</ele>
        <time>2018-10-27T13:05:15Z</time>
      </trkpt>
      <trkpt lat="49.17305" lon="1.18869">
        <ele>20.60000038147</ele>
        <time>2018-10-27T13:05:17Z</time>
      </trkpt>
      <trkpt lat="49.17314" lon="1.18862">
        <ele>20.39999961853</ele>
        <time>2018-10-27T13:05:20Z</time>
      </trkpt>
      <trkpt lat="49.17347" lon="1.18839">
        <ele>20.60000038147</ele>
        <time>2018-10-27T13:05:22Z</time>
      </trkpt>
      <trkpt lat="49.17376" lon="1.1882">
        <ele>21.39999961853</ele>
        <time>2018-10-27T13:05:24Z</time>
      </trkpt>
      <trkpt lat="49.17389" lon="1.18815">
        <ele>22.200000762939</ele>
        <time>2018-10-27T13:05:25Z</time>
      </trkpt>
      <trkpt lat="49.17391" lon="1.18818">
        <ele>22.39999961853</ele>
        <time>2018-10-27T13:05:27Z</time>
      </trkpt>
      <trkpt lat="49.1739" lon="1.18833">
        <ele>22.60000038147</ele>
        <time>2018-10-27T13:05:29Z</time>
      </trkpt>
      <trkpt lat="49.17388" lon="1.18838">
        <ele>22.799999237061</ele>
        <time>2018-10-27T13:05:36Z</time>
      </trkpt>
      <trkpt lat="49.17381" lon="1.1887">
        <ele>23.60000038147</ele>
        <time>2018-10-27T13:05:39Z</time>
      </trkpt>
      <trkpt lat="49.1738" lon="1.18875">
        <ele>23.60000038147</ele>
        <time>2018-10-27T13:05:43Z</time>
      </trkpt>
      <trkpt lat="49.17375" lon="1.18906">
        <ele>24.60000038147</ele>
        <time>2018-10-27T13:05:44Z</time>
      </trkpt>
      <trkpt lat="49.17373" lon="1.18932">
        <ele>25.799999237061</ele>
        <time>2018-10-27T13:05:49Z</time>
      </trkpt>
      <trkpt lat="49.17372" lon="1.18942">
        <ele>26.200000762939</ele>
        <time>2018-10-27T13:05:56Z</time>
      </trkpt>
      <trkpt lat="49.17371" lon="1.18963">
        <ele>27</ele>
        <time>2018-10-27T13:06:03Z</time>
      </trkpt>
      <trkpt lat="49.1737" lon="1.18977">
        <ele>27.799999237061</ele>
        <time>2018-10-27T13:06:04Z</time>
      </trkpt>
      <trkpt lat="49.17369" lon="1.18985">
        <ele>28.200000762939</ele>
        <time>2018-10-27T13:06:10Z</time>
      </trkpt>
      <trkpt lat="49.17368" lon="1.19008">
        <ele>29.200000762939</ele>
        <time>2018-10-27T13:06:18Z</time>
      </trkpt>
      <trkpt lat="49.1737" lon="1.19029">
        <ele>30.39999961853</ele>
        <time>2018-10-27T13:06:20Z</time>
      </trkpt>
      <trkpt lat="49.1737" lon="1.19037">
        <ele>31</ele>
        <time>2018-10-27T13:06:24Z</time>
      </trkpt>
      <trkpt lat="49.17371" lon="1.19043">
        <ele>31.39999961853</ele>
        <time>2018-10-27T13:06:26Z</time>
      </trkpt>
      <trkpt lat="49.1737" lon="1.19056">
        <ele>32</ele>
        <time>2018-10-27T13:06:29Z</time>
      </trkpt>
      <trkpt lat="49.1737" lon="1.19063">
        <ele>32.400001525879</ele>
        <time>2018-10-27T13:06:33Z</time>
      </trkpt>
      <trkpt lat="49.17371" lon="1.19083">
        <ele>33.400001525879</ele>
        <time>2018-10-27T13:06:37Z</time>
      </trkpt>
      <trkpt lat="49.17372" lon="1.19086">
        <ele>33.599998474121</ele>
        <time>2018-10-27T13:06:39Z</time>
      </trkpt>
      <trkpt lat="49.17372" lon="1.19097">
        <ele>34.200000762939</ele>
        <time>2018-10-27T13:06:43Z</time>
      </trkpt>
      <trkpt lat="49.17373" lon="1.19107">
        <ele>34.599998474121</ele>
        <time>2018-10-27T13:06:45Z</time>
      </trkpt>
      <trkpt lat="49.17374" lon="1.19123">
        <ele>35.400001525879</ele>
        <time>2018-10-27T13:06:50Z</time>
      </trkpt>
      <trkpt lat="49.17374" lon="1.19127">
        <ele>35.599998474121</ele>
        <time>2018-10-27T13:06:52Z</time>
      </trkpt>
      <trkpt lat="49.17376" lon="1.19148">
        <ele>36.799999237061</ele>
        <time>2018-10-27T13:06:56Z</time>
      </trkpt>
      <trkpt lat="49.17377" lon="1.19156">
        <ele>37</ele>
        <time>2018-10-27T13:06:59Z</time>
      </trkpt>
      <trkpt lat="49.17378" lon="1.19173">
        <ele>38</ele>
        <time>2018-10-27T13:07:03Z</time>
      </trkpt>
      <trkpt lat="49.17378" lon="1.19185">
        <ele>38.400001525879</ele>
        <time>2018-10-27T13:07:04Z</time>
      </trkpt>
      <trkpt lat="49.17379" lon="1.19202">
        <ele>39</ele>
        <time>2018-10-27T13:07:10Z</time>
      </trkpt>
      <trkpt lat="49.17377" lon="1.19213">
        <ele>39.799999237061</ele>
        <time>2018-10-27T13:07:11Z</time>
      </trkpt>
      <trkpt lat="49.17376" lon="1.19221">
        <ele>40.200000762939</ele>
        <time>2018-10-27T13:07:14Z</time>
      </trkpt>
      <trkpt lat="49.17375" lon="1.19236">
        <ele>41.200000762939</ele>
        <time>2018-10-27T13:07:16Z</time>
      </trkpt>
      <trkpt lat="49.17374" lon="1.19242">
        <ele>41.599998474121</ele>
        <time>2018-10-27T13:07:20Z</time>
      </trkpt>
      <trkpt lat="49.1737" lon="1.19251">
        <ele>42.200000762939</ele>
        <time>2018-10-27T13:07:22Z</time>
      </trkpt>
      <trkpt lat="49.17364" lon="1.19261">
        <ele>42.599998474121</ele>
        <time>2018-10-27T13:07:23Z</time>
      </trkpt>
      <trkpt lat="49.17356" lon="1.19276">
        <ele>43.400001525879</ele>
        <time>2018-10-27T13:07:28Z</time>
      </trkpt>
      <trkpt lat="49.17348" lon="1.19289">
        <ele>43.599998474121</ele>
        <time>2018-10-27T13:07:29Z</time>
      </trkpt>
      <trkpt lat="49.17332" lon="1.19314">
        <ele>43.599998474121</ele>
        <time>2018-10-27T13:07:30Z</time>
      </trkpt>
      <trkpt lat="49.17314" lon="1.19346">
        <ele>44.400001525879</ele>
        <time>2018-10-27T13:07:31Z</time>
      </trkpt>
      <trkpt lat="49.17313" lon="1.19349">
        <ele>44.599998474121</ele>
        <time>2018-10-27T13:07:36Z</time>
      </trkpt>
      <trkpt lat="49.173" lon="1.19368">
        <ele>44.799999237061</ele>
        <time>2018-10-27T13:07:37Z</time>
      </trkpt>
      <trkpt lat="49.17297" lon="1.19374">
        <ele>45.200000762939</ele>
        <time>2018-10-27T13:07:42Z</time>
      </trkpt>
      <trkpt lat="49.17295" lon="1.19379">
        <ele>45.200000762939</ele>
        <time>2018-10-27T13:07:43Z</time>
      </trkpt>
      <trkpt lat="49.17292" lon="1.19383">
        <ele>45.400001525879</ele>
        <time>2018-10-27T13:07:44Z</time>
      </trkpt>
      <trkpt lat="49.1729" lon="1.19386">
        <ele>45.599998474121</ele>
        <time>2018-10-27T13:07:48Z</time>
      </trkpt>
      <trkpt lat="49.17287" lon="1.19392">
        <ele>45.599998474121</ele>
        <time>2018-10-27T13:07:50Z</time>
      </trkpt>
      <trkpt lat="49.1728" lon="1.19411">
        <ele>45.799999237061</ele>
        <time>2018-10-27T13:07:54Z</time>
      </trkpt>
      <trkpt lat="49.17274" lon="1.19434">
        <ele>46.599998474121</ele>
        <time>2018-10-27T13:07:55Z</time>
      </trkpt>
      <trkpt lat="49.1727" lon="1.19448">
        <ele>47.799999237061</ele>
        <time>2018-10-27T13:07:56Z</time>
      </trkpt>
      <trkpt lat="49.17269" lon="1.19451">
        <ele>47.799999237061</ele>
        <time>2018-10-27T13:08:00Z</time>
      </trkpt>
      <trkpt lat="49.17265" lon="1.19471">
        <ele>48.400001525879</ele>
        <time>2018-10-27T13:08:01Z</time>
      </trkpt>
      <trkpt lat="49.17263" lon="1.19487">
        <ele>48.799999237061</ele>
        <time>2018-10-27T13:08:07Z</time>
      </trkpt>
      <trkpt lat="49.1726" lon="1.19514">
        <ele>49</ele>
        <time>2018-10-27T13:08:15Z</time>
      </trkpt>
      <trkpt lat="49.17257" lon="1.19539">
        <ele>49.599998474121</ele>
        <time>2018-10-27T13:08:16Z</time>
      </trkpt>
      <trkpt lat="49.17257" lon="1.19548">
        <ele>50</ele>
        <time>2018-10-27T13:08:19Z</time>
      </trkpt>
      <trkpt lat="49.17255" lon="1.19562">
        <ele>50</ele>
        <time>2018-10-27T13:08:21Z</time>
      </trkpt>
      <trkpt lat="49.17253" lon="1.19584">
        <ele>50.599998474121</ele>
        <time>2018-10-27T13:08:23Z</time>
      </trkpt>
      <trkpt lat="49.17253" lon="1.19596">
        <ele>50.799999237061</ele>
        <time>2018-10-27T13:08:29Z</time>
      </trkpt>
      <trkpt lat="49.17252" lon="1.19603">
        <ele>51</ele>
        <time>2018-10-27T13:08:30Z</time>
      </trkpt>
      <trkpt lat="49.1725" lon="1.19625">
        <ele>51.599998474121</ele>
        <time>2018-10-27T13:08:34Z</time>
      </trkpt>
      <trkpt lat="49.17249" lon="1.19632">
        <ele>51.799999237061</ele>
        <time>2018-10-27T13:08:37Z</time>
      </trkpt>
      <trkpt lat="49.17249" lon="1.19639">
        <ele>52</ele>
        <time>2018-10-27T13:08:40Z</time>
      </trkpt>
      <trkpt lat="49.17249" lon="1.19642">
        <ele>52.200000762939</ele>
        <time>2018-10-27T13:08:44Z</time>
      </trkpt>
      <trkpt lat="49.17249" lon="1.1965">
        <ele>52.599998474121</ele>
        <time>2018-10-27T13:08:46Z</time>
      </trkpt>
      <trkpt lat="49.17249" lon="1.19653">
        <ele>52.799999237061</ele>
        <time>2018-10-27T13:08:52Z</time>
      </trkpt>
      <trkpt lat="49.17248" lon="1.19659">
        <ele>53</ele>
        <time>2018-10-27T13:08:53Z</time>
      </trkpt>
      <trkpt lat="49.17249" lon="1.19676">
        <ele>53.400001525879</ele>
        <time>2018-10-27T13:08:59Z</time>
      </trkpt>
      <trkpt lat="49.1725" lon="1.19693">
        <ele>53.799999237061</ele>
        <time>2018-10-27T13:09:02Z</time>
      </trkpt>
      <trkpt lat="49.17251" lon="1.19706">
        <ele>54</ele>
        <time>2018-10-27T13:09:05Z</time>
      </trkpt>
      <trkpt lat="49.17251" lon="1.1971">
        <ele>54</ele>
        <time>2018-10-27T13:09:10Z</time>
      </trkpt>
      <trkpt lat="49.17253" lon="1.19722">
        <ele>54</ele>
        <time>2018-10-27T13:09:12Z</time>
      </trkpt>
      <trkpt lat="49.17256" lon="1.1973">
        <ele>54.200000762939</ele>
        <time>2018-10-27T13:09:15Z</time>
      </trkpt>
      <trkpt lat="49.17263" lon="1.19756">
        <ele>54.599998474121</ele>
        <time>2018-10-27T13:09:17Z</time>
      </trkpt>
      <trkpt lat="49.17269" lon="1.19773">
        <ele>55</ele>
        <time>2018-10-27T13:09:19Z</time>
      </trkpt>
      <trkpt lat="49.17273" lon="1.19782">
        <ele>55.400001525879</ele>
        <time>2018-10-27T13:09:24Z</time>
      </trkpt>
      <trkpt lat="49.17283" lon="1.198">
        <ele>56.200000762939</ele>
        <time>2018-10-27T13:10:21Z</time>
      </trkpt>
      <trkpt lat="49.17287" lon="1.19805">
        <ele>56.200000762939</ele>
        <time>2018-10-27T13:10:24Z</time>
      </trkpt>
      <trkpt lat="49.17296" lon="1.19816">
        <ele>56.400001525879</ele>
        <time>2018-10-27T13:10:28Z</time>
      </trkpt>
      <trkpt lat="49.17304" lon="1.19828">
        <ele>57</ele>
        <time>2018-10-27T13:10:32Z</time>
      </trkpt>
      <trkpt lat="49.1731" lon="1.19835">
        <ele>57.200000762939</ele>
        <time>2018-10-27T13:10:34Z</time>
      </trkpt>
      <trkpt lat="49.17318" lon="1.19843">
        <ele>57.599998474121</ele>
        <time>2018-10-27T13:10:36Z</time>
      </trkpt>
      <trkpt lat="49.17327" lon="1.19852">
        <ele>58.400001525879</ele>
        <time>2018-10-27T13:10:41Z</time>
      </trkpt>
      <trkpt lat="49.17329" lon="1.19855">
        <ele>58.400001525879</ele>
        <time>2018-10-27T13:10:44Z</time>
      </trkpt>
      <trkpt lat="49.17339" lon="1.19868">
        <ele>59</ele>
        <time>2018-10-27T13:10:47Z</time>
      </trkpt>
      <trkpt lat="49.1735" lon="1.19877">
        <ele>59.400001525879</ele>
        <time>2018-10-27T13:10:48Z</time>
      </trkpt>
      <trkpt lat="49.17352" lon="1.1988">
        <ele>59.599998474121</ele>
        <time>2018-10-27T13:10:50Z</time>
      </trkpt>
      <trkpt lat="49.17363" lon="1.19893">
        <ele>60</ele>
        <time>2018-10-27T13:10:54Z</time>
      </trkpt>
      <trkpt lat="49.17374" lon="1.19909">
        <ele>60.599998474121</ele>
        <time>2018-10-27T13:10:55Z</time>
      </trkpt>
      <trkpt lat="49.17376" lon="1.19913">
        <ele>60.599998474121</ele>
        <time>2018-10-27T13:11:00Z</time>
      </trkpt>
      <trkpt lat="49.17391" lon="1.19936">
        <ele>61.599998474121</ele>
        <time>2018-10-27T13:11:03Z</time>
      </trkpt>
      <trkpt lat="49.17405" lon="1.19961">
        <ele>62.200000762939</ele>
        <time>2018-10-27T13:11:05Z</time>
      </trkpt>
      <trkpt lat="49.17412" lon="1.19983">
        <ele>62.799999237061</ele>
        <time>2018-10-27T13:11:12Z</time>
      </trkpt>
      <trkpt lat="49.1742" lon="1.20002">
        <ele>63.200000762939</ele>
        <time>2018-10-27T13:11:13Z</time>
      </trkpt>
      <trkpt lat="49.17426" lon="1.20022">
        <ele>63.799999237061</ele>
        <time>2018-10-27T13:11:19Z</time>
      </trkpt>
      <trkpt lat="49.17427" lon="1.20027">
        <ele>63.799999237061</ele>
        <time>2018-10-27T13:11:20Z</time>
      </trkpt>
      <trkpt lat="49.17433" lon="1.2005">
        <ele>64.599998474121</ele>
        <time>2018-10-27T13:11:24Z</time>
      </trkpt>
      <trkpt lat="49.17436" lon="1.20059">
        <ele>65</ele>
        <time>2018-10-27T13:11:25Z</time>
      </trkpt>
      <trkpt lat="49.1744" lon="1.20074">
        <ele>65.400001525879</ele>
        <time>2018-10-27T13:11:29Z</time>
      </trkpt>
      <trkpt lat="49.17448" lon="1.2009">
        <ele>66</ele>
        <time>2018-10-27T13:11:30Z</time>
      </trkpt>
      <trkpt lat="49.17456" lon="1.20104">
        <ele>67</ele>
        <time>2018-10-27T13:11:36Z</time>
      </trkpt>
      <trkpt lat="49.17462" lon="1.20114">
        <ele>67.800003051758</ele>
        <time>2018-10-27T13:11:37Z</time>
      </trkpt>
      <trkpt lat="49.17463" lon="1.20115">
        <ele>68</ele>
        <time>2018-10-27T13:11:42Z</time>
      </trkpt>
      <trkpt lat="49.17468" lon="1.20123">
        <ele>68.800003051758</ele>
        <time>2018-10-27T13:11:47Z</time>
      </trkpt>
      <trkpt lat="49.17472" lon="1.20126">
        <ele>69.199996948242</ele>
        <time>2018-10-27T13:11:53Z</time>
      </trkpt>
      <trkpt lat="49.17473" lon="1.20128">
        <ele>69.400001525879</ele>
        <time>2018-10-27T13:11:59Z</time>
      </trkpt>
      <trkpt lat="49.17473" lon="1.20129">
        <ele>69.599998474121</ele>
        <time>2018-10-27T13:12:04Z</time>
      </trkpt>
      <trkpt lat="49.17475" lon="1.20132">
        <ele>69.599998474121</ele>
        <time>2018-10-27T13:12:10Z</time>
      </trkpt>
      <trkpt lat="49.17479" lon="1.20137">
        <ele>70.199996948242</ele>
        <time>2018-10-27T13:12:15Z</time>
      </trkpt>
      <trkpt lat="49.17482" lon="1.2014">
        <ele>70.199996948242</ele>
        <time>2018-10-27T13:12:21Z</time>
      </trkpt>
      <trkpt lat="49.17484" lon="1.20141">
        <ele>70.800003051758</ele>
        <time>2018-10-27T13:12:27Z</time>
      </trkpt>
      <trkpt lat="49.17486" lon="1.20142">
        <ele>71</ele>
        <time>2018-10-27T13:12:33Z</time>
      </trkpt>
      <trkpt lat="49.17487" lon="1.20145">
        <ele>71.800003051758</ele>
        <time>2018-10-27T13:12:34Z</time>
      </trkpt>
      <trkpt lat="49.17489" lon="1.20147">
        <ele>72</ele>
        <time>2018-10-27T13:12:35Z</time>
      </trkpt>
      <trkpt lat="49.175" lon="1.20156">
        <ele>72.599998474121</ele>
        <time>2018-10-27T13:12:37Z</time>
      </trkpt>
      <trkpt lat="49.17504" lon="1.20164">
        <ele>72.800003051758</ele>
        <time>2018-10-27T13:12:41Z</time>
      </trkpt>
      <trkpt lat="49.17509" lon="1.2017">
        <ele>73</ele>
        <time>2018-10-27T13:12:43Z</time>
      </trkpt>
      <trkpt lat="49.17509" lon="1.20171">
        <ele>73</ele>
        <time>2018-10-27T13:12:45Z</time>
      </trkpt>
      <trkpt lat="49.17515" lon="1.20179">
        <ele>73.800003051758</ele>
        <time>2018-10-27T13:12:46Z</time>
      </trkpt>
      <trkpt lat="49.17525" lon="1.20185">
        <ele>74.800003051758</ele>
        <time>2018-10-27T13:12:47Z</time>
      </trkpt>
      <trkpt lat="49.17536" lon="1.2019">
        <ele>75.800003051758</ele>
        <time>2018-10-27T13:12:49Z</time>
      </trkpt>
      <trkpt lat="49.17538" lon="1.20191">
        <ele>75.800003051758</ele>
        <time>2018-10-27T13:12:53Z</time>
      </trkpt>
      <trkpt lat="49.1755" lon="1.20197">
        <ele>76.800003051758</ele>
        <time>2018-10-27T13:12:59Z</time>
      </trkpt>
      <trkpt lat="49.17559" lon="1.20203">
        <ele>78.400001525879</ele>
        <time>2018-10-27T13:13:00Z</time>
      </trkpt>
      <trkpt lat="49.17562" lon="1.20206">
        <ele>78.800003051758</ele>
        <time>2018-10-27T13:13:01Z</time>
      </trkpt>
      <trkpt lat="49.17566" lon="1.20209">
        <ele>79.400001525879</ele>
        <time>2018-10-27T13:13:03Z</time>
      </trkpt>
      <trkpt lat="49.17569" lon="1.20211">
        <ele>79.800003051758</ele>
        <time>2018-10-27T13:13:08Z</time>
      </trkpt>
      <trkpt lat="49.17572" lon="1.20215">
        <ele>80.400001525879</ele>
        <time>2018-10-27T13:13:10Z</time>
      </trkpt>
      <trkpt lat="49.17579" lon="1.20218">
        <ele>81</ele>
        <time>2018-10-27T13:13:12Z</time>
      </trkpt>
      <trkpt lat="49.17586" lon="1.20222">
        <ele>81.599998474121</ele>
        <time>2018-10-27T13:13:16Z</time>
      </trkpt>
      <trkpt lat="49.1759" lon="1.20224">
        <ele>82.199996948242</ele>
        <time>2018-10-27T13:13:19Z</time>
      </trkpt>
      <trkpt lat="49.17597" lon="1.20228">
        <ele>82.599998474121</ele>
        <time>2018-10-27T13:13:20Z</time>
      </trkpt>
      <trkpt lat="49.176" lon="1.20229">
        <ele>82.599998474121</ele>
        <time>2018-10-27T13:13:22Z</time>
      </trkpt>
      <trkpt lat="49.17607" lon="1.20234">
        <ele>83.400001525879</ele>
        <time>2018-10-27T13:13:25Z</time>
      </trkpt>
      <trkpt lat="49.1761" lon="1.20237">
        <ele>83.599998474121</ele>
        <time>2018-10-27T13:13:30Z</time>
      </trkpt>
      <trkpt lat="49.17617" lon="1.20242">
        <ele>84.199996948242</ele>
        <time>2018-10-27T13:13:35Z</time>
      </trkpt>
      <trkpt lat="49.17622" lon="1.20245">
        <ele>84.599998474121</ele>
        <time>2018-10-27T13:13:37Z</time>
      </trkpt>
      <trkpt lat="49.17629" lon="1.2025">
        <ele>85.599998474121</ele>
        <time>2018-10-27T13:13:41Z</time>
      </trkpt>
      <trkpt lat="49.1763" lon="1.20252">
        <ele>85.800003051758</ele>
        <time>2018-10-27T13:13:46Z</time>
      </trkpt>
      <trkpt lat="49.17639" lon="1.20258">
        <ele>86.599998474121</ele>
        <time>2018-10-27T13:13:51Z</time>
      </trkpt>
      <trkpt lat="49.17641" lon="1.2026">
        <ele>86.599998474121</ele>
        <time>2018-10-27T13:13:57Z</time>
      </trkpt>
      <trkpt lat="49.17645" lon="1.20266">
        <ele>87</ele>
        <time>2018-10-27T13:14:02Z</time>
      </trkpt>
      <trkpt lat="49.17647" lon="1.2027">
        <ele>87.400001525879</ele>
        <time>2018-10-27T13:14:08Z</time>
      </trkpt>
      <trkpt lat="49.17653" lon="1.20276">
        <ele>87.800003051758</ele>
        <time>2018-10-27T13:14:09Z</time>
      </trkpt>
      <trkpt lat="49.17656" lon="1.20279">
        <ele>88.199996948242</ele>
        <time>2018-10-27T13:14:11Z</time>
      </trkpt>
      <trkpt lat="49.17658" lon="1.20281">
        <ele>88.199996948242</ele>
        <time>2018-10-27T13:14:12Z</time>
      </trkpt>
      <trkpt lat="49.17663" lon="1.20288">
        <ele>89</ele>
        <time>2018-10-27T13:14:13Z</time>
      </trkpt>
      <trkpt lat="49.17664" lon="1.2029">
        <ele>89</ele>
        <time>2018-10-27T13:14:14Z</time>
      </trkpt>
      <trkpt lat="49.17665" lon="1.20291">
        <ele>89.199996948242</ele>
        <time>2018-10-27T13:14:16Z</time>
      </trkpt>
      <trkpt lat="49.17666" lon="1.20293">
        <ele>89.400001525879</ele>
        <time>2018-10-27T13:14:17Z</time>
      </trkpt>
      <trkpt lat="49.17672" lon="1.20302">
        <ele>90</ele>
        <time>2018-10-27T13:14:18Z</time>
      </trkpt>
      <trkpt lat="49.17672" lon="1.20304">
        <ele>90.199996948242</ele>
        <time>2018-10-27T13:14:21Z</time>
      </trkpt>
      <trkpt lat="49.17678" lon="1.20315">
        <ele>90.800003051758</ele>
        <time>2018-10-27T13:14:23Z</time>
      </trkpt>
      <trkpt lat="49.1768" lon="1.20318">
        <ele>91</ele>
        <time>2018-10-27T13:14:25Z</time>
      </trkpt>
      <trkpt lat="49.17681" lon="1.20319">
        <ele>91.199996948242</ele>
        <time>2018-10-27T13:14:27Z</time>
      </trkpt>
      <trkpt lat="49.17687" lon="1.20329">
        <ele>91.800003051758</ele>
        <time>2018-10-27T13:14:29Z</time>
      </trkpt>
      <trkpt lat="49.1769" lon="1.20335">
        <ele>92.199996948242</ele>
        <time>2018-10-27T13:14:31Z</time>
      </trkpt>
      <trkpt lat="49.17695" lon="1.20347">
        <ele>93</ele>
        <time>2018-10-27T13:14:32Z</time>
      </trkpt>
      <trkpt lat="49.17695" lon="1.20349">
        <ele>93.199996948242</ele>
        <time>2018-10-27T13:14:34Z</time>
      </trkpt>
      <trkpt lat="49.17697" lon="1.20352">
        <ele>93.400001525879</ele>
        <time>2018-10-27T13:14:35Z</time>
      </trkpt>
      <trkpt lat="49.17699" lon="1.2036">
        <ele>94</ele>
        <time>2018-10-27T13:14:36Z</time>
      </trkpt>
      <trkpt lat="49.177" lon="1.20361">
        <ele>94.199996948242</ele>
        <time>2018-10-27T13:14:39Z</time>
      </trkpt>
      <trkpt lat="49.17705" lon="1.20374">
        <ele>95.199996948242</ele>
        <time>2018-10-27T13:14:40Z</time>
      </trkpt>
      <trkpt lat="49.1771" lon="1.20392">
        <ele>96.400001525879</ele>
        <time>2018-10-27T13:14:42Z</time>
      </trkpt>
      <trkpt lat="49.17711" lon="1.20395">
        <ele>96.400001525879</ele>
        <time>2018-10-27T13:14:44Z</time>
      </trkpt>
      <trkpt lat="49.17715" lon="1.20402">
        <ele>96.800003051758</ele>
        <time>2018-10-27T13:14:49Z</time>
      </trkpt>
      <trkpt lat="49.17717" lon="1.20407">
        <ele>97</ele>
        <time>2018-10-27T13:14:51Z</time>
      </trkpt>
      <trkpt lat="49.17718" lon="1.20414">
        <ele>97.400001525879</ele>
        <time>2018-10-27T13:14:54Z</time>
      </trkpt>
      <trkpt lat="49.17724" lon="1.20432">
        <ele>98.400001525879</ele>
        <time>2018-10-27T13:14:55Z</time>
      </trkpt>
      <trkpt lat="49.17724" lon="1.20435">
        <ele>98.400001525879</ele>
        <time>2018-10-27T13:14:57Z</time>
      </trkpt>
      <trkpt lat="49.17728" lon="1.20446">
        <ele>99.199996948242</ele>
        <time>2018-10-27T13:14:59Z</time>
      </trkpt>
      <trkpt lat="49.1773" lon="1.20453">
        <ele>99.599998474121</ele>
        <time>2018-10-27T13:15:00Z</time>
      </trkpt>
      <trkpt lat="49.17733" lon="1.2046">
        <ele>100</ele>
        <time>2018-10-27T13:15:05Z</time>
      </trkpt>
      <trkpt lat="49.17737" lon="1.2047">
        <ele>100.80000305176</ele>
        <time>2018-10-27T13:15:08Z</time>
      </trkpt>
      <trkpt lat="49.17739" lon="1.20475">
        <ele>101.19999694824</ele>
        <time>2018-10-27T13:15:09Z</time>
      </trkpt>
      <trkpt lat="49.17746" lon="1.20487">
        <ele>101.80000305176</ele>
        <time>2018-10-27T13:15:10Z</time>
      </trkpt>
      <trkpt lat="49.17747" lon="1.20488">
        <ele>101.80000305176</ele>
        <time>2018-10-27T13:15:12Z</time>
      </trkpt>
      <trkpt lat="49.17753" lon="1.20496">
        <ele>102.40000152588</ele>
        <time>2018-10-27T13:15:14Z</time>
      </trkpt>
      <trkpt lat="49.17756" lon="1.20501">
        <ele>102.80000305176</ele>
        <time>2018-10-27T13:15:15Z</time>
      </trkpt>
      <trkpt lat="49.1776" lon="1.20504">
        <ele>103.40000152588</ele>
        <time>2018-10-27T13:15:16Z</time>
      </trkpt>
      <trkpt lat="49.17766" lon="1.20512">
        <ele>103.80000305176</ele>
        <time>2018-10-27T13:15:17Z</time>
      </trkpt>
      <trkpt lat="49.17769" lon="1.20513">
        <ele>104.40000152588</ele>
        <time>2018-10-27T13:15:18Z</time>
      </trkpt>
      <trkpt lat="49.17773" lon="1.20512">
        <ele>105</ele>
        <time>2018-10-27T13:15:19Z</time>
      </trkpt>
      <trkpt lat="49.17775" lon="1.20513">
        <ele>105.59999847412</ele>
        <time>2018-10-27T13:15:20Z</time>
      </trkpt>
      <trkpt lat="49.17778" lon="1.20513">
        <ele>106.19999694824</ele>
        <time>2018-10-27T13:15:21Z</time>
      </trkpt>
      <trkpt lat="49.17782" lon="1.20514">
        <ele>107.40000152588</ele>
        <time>2018-10-27T13:15:23Z</time>
      </trkpt>
      <trkpt lat="49.17804" lon="1.20491">
        <ele>112</ele>
        <time>2018-10-27T13:15:25Z</time>
      </trkpt>
      <trkpt lat="49.1781" lon="1.20487">
        <ele>113.19999694824</ele>
        <time>2018-10-27T13:15:27Z</time>
      </trkpt>
      <trkpt lat="49.17815" lon="1.20482">
        <ele>114.19999694824</ele>
        <time>2018-10-27T13:15:29Z</time>
      </trkpt>
      <trkpt lat="49.17823" lon="1.20473">
        <ele>115.40000152588</ele>
        <time>2018-10-27T13:15:30Z</time>
      </trkpt>
      <trkpt lat="49.17825" lon="1.20469">
        <ele>116</ele>
        <time>2018-10-27T13:15:31Z</time>
      </trkpt>
      <trkpt lat="49.17828" lon="1.20464">
        <ele>116.80000305176</ele>
        <time>2018-10-27T13:15:33Z</time>
      </trkpt>
      <trkpt lat="49.17833" lon="1.20451">
        <ele>118.19999694824</ele>
        <time>2018-10-27T13:15:35Z</time>
      </trkpt>
      <trkpt lat="49.17835" lon="1.20443">
        <ele>118.59999847412</ele>
        <time>2018-10-27T13:15:37Z</time>
      </trkpt>
      <trkpt lat="49.17837" lon="1.20437">
        <ele>119.19999694824</ele>
        <time>2018-10-27T13:15:40Z</time>
      </trkpt>
      <trkpt lat="49.17837" lon="1.20436">
        <ele>119.40000152588</ele>
        <time>2018-10-27T13:15:42Z</time>
      </trkpt>
      <trkpt lat="49.17838" lon="1.20432">
        <ele>119.59999847412</ele>
        <time>2018-10-27T13:15:44Z</time>
      </trkpt>
      <trkpt lat="49.17841" lon="1.20424">
        <ele>120.19999694824</ele>
        <time>2018-10-27T13:15:48Z</time>
      </trkpt>
      <trkpt lat="49.17841" lon="1.20422">
        <ele>120.40000152588</ele>
        <time>2018-10-27T13:15:49Z</time>
      </trkpt>
      <trkpt lat="49.17842" lon="1.20413">
        <ele>121</ele>
        <time>2018-10-27T13:15:50Z</time>
      </trkpt>
      <trkpt lat="49.17843" lon="1.20405">
        <ele>121.40000152588</ele>
        <time>2018-10-27T13:15:52Z</time>
      </trkpt>
      <trkpt lat="49.17845" lon="1.204">
        <ele>121.59999847412</ele>
        <time>2018-10-27T13:15:53Z</time>
      </trkpt>
      <trkpt lat="49.17851" lon="1.20381">
        <ele>122.59999847412</ele>
        <time>2018-10-27T13:15:54Z</time>
      </trkpt>
      <trkpt lat="49.17852" lon="1.20379">
        <ele>122.80000305176</ele>
        <time>2018-10-27T13:15:55Z</time>
      </trkpt>
      <trkpt lat="49.17858" lon="1.20369">
        <ele>123.59999847412</ele>
        <time>2018-10-27T13:15:58Z</time>
      </trkpt>
      <trkpt lat="49.17859" lon="1.20369">
        <ele>123.80000305176</ele>
        <time>2018-10-27T13:16:00Z</time>
      </trkpt>
      <trkpt lat="49.17866" lon="1.20367">
        <ele>124.19999694824</ele>
        <time>2018-10-27T13:16:04Z</time>
      </trkpt>
      <trkpt lat="49.17867" lon="1.20368">
        <ele>124.19999694824</ele>
        <time>2018-10-27T13:16:09Z</time>
      </trkpt>
      <trkpt lat="49.17873" lon="1.20372">
        <ele>124.19999694824</ele>
        <time>2018-10-27T13:16:10Z</time>
      </trkpt>
      <trkpt lat="49.17875" lon="1.20374">
        <ele>124.19999694824</ele>
        <time>2018-10-27T13:16:11Z</time>
      </trkpt>
      <trkpt lat="49.17886" lon="1.20389">
        <ele>124.59999847412</ele>
        <time>2018-10-27T13:16:13Z</time>
      </trkpt>
      <trkpt lat="49.17888" lon="1.20392">
        <ele>124.59999847412</ele>
        <time>2018-10-27T13:16:15Z</time>
      </trkpt>
      <trkpt lat="49.17899" lon="1.20409">
        <ele>124.59999847412</ele>
        <time>2018-10-27T13:16:18Z</time>
      </trkpt>
      <trkpt lat="49.17906" lon="1.2043">
        <ele>124.80000305176</ele>
        <time>2018-10-27T13:16:19Z</time>
      </trkpt>
      <trkpt lat="49.17912" lon="1.20458">
        <ele>125</ele>
        <time>2018-10-27T13:16:24Z</time>
      </trkpt>
      <trkpt lat="49.17918" lon="1.20487">
        <ele>124.80000305176</ele>
        <time>2018-10-27T13:16:27Z</time>
      </trkpt>
      <trkpt lat="49.17921" lon="1.20511">
        <ele>124.80000305176</ele>
        <time>2018-10-27T13:16:29Z</time>
      </trkpt>
      <trkpt lat="49.17926" lon="1.20539">
        <ele>124.59999847412</ele>
        <time>2018-10-27T13:16:32Z</time>
      </trkpt>
      <trkpt lat="49.17932" lon="1.20569">
        <ele>124.80000305176</ele>
        <time>2018-10-27T13:16:35Z</time>
      </trkpt>
      <trkpt lat="49.17935" lon="1.20606">
        <ele>124.80000305176</ele>
        <time>2018-10-27T13:16:37Z</time>
      </trkpt>
      <trkpt lat="49.17941" lon="1.20639">
        <ele>125.19999694824</ele>
        <time>2018-10-27T13:16:43Z</time>
      </trkpt>
      <trkpt lat="49.17947" lon="1.20667">
        <ele>125.40000152588</ele>
        <time>2018-10-27T13:16:44Z</time>
      </trkpt>
      <trkpt lat="49.17947" lon="1.20672">
        <ele>125.59999847412</ele>
        <time>2018-10-27T13:16:55Z</time>
      </trkpt>
      <trkpt lat="49.17947" lon="1.20676">
        <ele>125.80000305176</ele>
        <time>2018-10-27T13:16:56Z</time>
      </trkpt>
      <trkpt lat="49.17945" lon="1.20685">
        <ele>125.59999847412</ele>
        <time>2018-10-27T13:17:01Z</time>
      </trkpt>
      <trkpt lat="49.17948" lon="1.20694">
        <ele>126</ele>
        <time>2018-10-27T13:17:02Z</time>
      </trkpt>
      <trkpt lat="49.17949" lon="1.20699">
        <ele>126.19999694824</ele>
        <time>2018-10-27T13:17:05Z</time>
      </trkpt>
      <trkpt lat="49.17948" lon="1.20703">
        <ele>126.19999694824</ele>
        <time>2018-10-27T13:17:06Z</time>
      </trkpt>
      <trkpt lat="49.17947" lon="1.20704">
        <ele>126.19999694824</ele>
        <time>2018-10-27T13:17:07Z</time>
      </trkpt>
      <trkpt lat="49.17945" lon="1.20703">
        <ele>126</ele>
        <time>2018-10-27T13:17:08Z</time>
      </trkpt>
      <trkpt lat="49.17943" lon="1.20701">
        <ele>126</ele>
        <time>2018-10-27T13:17:12Z</time>
      </trkpt>
      <trkpt lat="49.17942" lon="1.20694">
        <ele>126</ele>
        <time>2018-10-27T13:17:15Z</time>
      </trkpt>
      <trkpt lat="49.17942" lon="1.20682">
        <ele>125.59999847412</ele>
        <time>2018-10-27T13:17:19Z</time>
      </trkpt>
      <trkpt lat="49.17942" lon="1.2068">
        <ele>125.59999847412</ele>
        <time>2018-10-27T13:17:22Z</time>
      </trkpt>
      <trkpt lat="49.17944" lon="1.2068">
        <ele>125.59999847412</ele>
        <time>2018-10-27T13:17:25Z</time>
      </trkpt>
      <trkpt lat="49.17945" lon="1.20681">
        <ele>125.80000305176</ele>
        <time>2018-10-27T13:17:29Z</time>
      </trkpt>
      <trkpt lat="49.17946" lon="1.20688">
        <ele>126.19999694824</ele>
        <time>2018-10-27T13:17:30Z</time>
      </trkpt>
      <trkpt lat="49.17947" lon="1.20693">
        <ele>126.19999694824</ele>
        <time>2018-10-27T13:17:35Z</time>
      </trkpt>
      <trkpt lat="49.17946" lon="1.20697">
        <ele>126.19999694824</ele>
        <time>2018-10-27T13:17:36Z</time>
      </trkpt>
      <trkpt lat="49.17942" lon="1.20694">
        <ele>126</ele>
        <time>2018-10-27T13:17:41Z</time>
      </trkpt>
      <trkpt lat="49.17945" lon="1.20693">
        <ele>126</ele>
        <time>2018-10-27T13:17:42Z</time>
      </trkpt>
      <trkpt lat="49.17946" lon="1.20691">
        <ele>126.19999694824</ele>
        <time>2018-10-27T13:17:45Z</time>
      </trkpt>
      <trkpt lat="49.17948" lon="1.20691">
        <ele>126.19999694824</ele>
        <time>2018-10-27T13:17:48Z</time>
      </trkpt>
      <trkpt lat="49.17954" lon="1.20689">
        <ele>126</ele>
        <time>2018-10-27T13:17:49Z</time>
      </trkpt>
      <trkpt lat="49.17963" lon="1.20679">
        <ele>126</ele>
        <time>2018-10-27T13:17:53Z</time>
      </trkpt>
      <trkpt lat="49.17975" lon="1.20668">
        <ele>125.80000305176</ele>
        <time>2018-10-27T13:17:55Z</time>
      </trkpt>
      <trkpt lat="49.17979" lon="1.20662">
        <ele>125.80000305176</ele>
        <time>2018-10-27T13:17:59Z</time>
      </trkpt>
      <trkpt lat="49.17989" lon="1.20648">
        <ele>125.59999847412</ele>
        <time>2018-10-27T13:18:02Z</time>
      </trkpt>
      <trkpt lat="49.18002" lon="1.20631">
        <ele>125.80000305176</ele>
        <time>2018-10-27T13:18:05Z</time>
      </trkpt>
      <trkpt lat="49.18019" lon="1.20614">
        <ele>125</ele>
        <time>2018-10-27T13:18:09Z</time>
      </trkpt>
      <trkpt lat="49.18041" lon="1.20601">
        <ele>125.19999694824</ele>
        <time>2018-10-27T13:18:11Z</time>
      </trkpt>
      <trkpt lat="49.18059" lon="1.20585">
        <ele>124.59999847412</ele>
        <time>2018-10-27T13:18:13Z</time>
      </trkpt>
      <trkpt lat="49.18081" lon="1.20559">
        <ele>124</ele>
        <time>2018-10-27T13:18:15Z</time>
      </trkpt>
      <trkpt lat="49.18084" lon="1.20553">
        <ele>123.80000305176</ele>
        <time>2018-10-27T13:18:20Z</time>
      </trkpt>
      <trkpt lat="49.18088" lon="1.20542">
        <ele>123.40000152588</ele>
        <time>2018-10-27T13:18:22Z</time>
      </trkpt>
      <trkpt lat="49.18091" lon="1.20536">
        <ele>123</ele>
        <time>2018-10-27T13:18:26Z</time>
      </trkpt>
      <trkpt lat="49.18094" lon="1.20531">
        <ele>122.59999847412</ele>
        <time>2018-10-27T13:18:28Z</time>
      </trkpt>
      <trkpt lat="49.18098" lon="1.20526">
        <ele>122.40000152588</ele>
        <time>2018-10-27T13:18:30Z</time>
      </trkpt>
      <trkpt lat="49.18103" lon="1.20515">
        <ele>122</ele>
        <time>2018-10-27T13:18:33Z</time>
      </trkpt>
      <trkpt lat="49.18106" lon="1.2051">
        <ele>121.19999694824</ele>
        <time>2018-10-27T13:18:37Z</time>
      </trkpt>
      <trkpt lat="49.18109" lon="1.20506">
        <ele>121.19999694824</ele>
        <time>2018-10-27T13:18:39Z</time>
      </trkpt>
      <trkpt lat="49.18122" lon="1.20494">
        <ele>119.80000305176</ele>
        <time>2018-10-27T13:18:44Z</time>
      </trkpt>
      <trkpt lat="49.18131" lon="1.20484">
        <ele>118.59999847412</ele>
        <time>2018-10-27T13:18:45Z</time>
      </trkpt>
      <trkpt lat="49.18142" lon="1.20475">
        <ele>117.19999694824</ele>
        <time>2018-10-27T13:18:50Z</time>
      </trkpt>
      <trkpt lat="49.18152" lon="1.20467">
        <ele>116</ele>
        <time>2018-10-27T13:18:55Z</time>
      </trkpt>
      <trkpt lat="49.18162" lon="1.20458">
        <ele>114.59999847412</ele>
        <time>2018-10-27T13:18:56Z</time>
      </trkpt>
      <trkpt lat="49.18171" lon="1.20447">
        <ele>113.40000152588</ele>
        <time>2018-10-27T13:20:05Z</time>
      </trkpt>
      <trkpt lat="49.18174" lon="1.20442">
        <ele>112.80000305176</ele>
        <time>2018-10-27T13:20:08Z</time>
      </trkpt>
      <trkpt lat="49.18177" lon="1.20435">
        <ele>112.19999694824</ele>
        <time>2018-10-27T13:20:11Z</time>
      </trkpt>
      <trkpt lat="49.18178" lon="1.20433">
        <ele>112.19999694824</ele>
        <time>2018-10-27T13:20:14Z</time>
      </trkpt>
      <trkpt lat="49.18178" lon="1.20431">
        <ele>112</ele>
        <time>2018-10-27T13:20:20Z</time>
      </trkpt>
      <trkpt lat="49.18178" lon="1.20424">
        <ele>111.40000152588</ele>
        <time>2018-10-27T13:20:23Z</time>
      </trkpt>
      <trkpt lat="49.18177" lon="1.20422">
        <ele>111.40000152588</ele>
        <time>2018-10-27T13:20:25Z</time>
      </trkpt>
      <trkpt lat="49.18178" lon="1.20418">
        <ele>111.19999694824</ele>
        <time>2018-10-27T13:20:27Z</time>
      </trkpt>
      <trkpt lat="49.18181" lon="1.20416">
        <ele>110.59999847412</ele>
        <time>2018-10-27T13:20:29Z</time>
      </trkpt>
      <trkpt lat="49.18186" lon="1.20413">
        <ele>110.40000152588</ele>
        <time>2018-10-27T13:20:35Z</time>
      </trkpt>
      <trkpt lat="49.18188" lon="1.20409">
        <ele>110</ele>
        <time>2018-10-27T13:20:40Z</time>
      </trkpt>
      <trkpt lat="49.18192" lon="1.20405">
        <ele>109.59999847412</ele>
        <time>2018-10-27T13:20:43Z</time>
      </trkpt>
      <trkpt lat="49.18193" lon="1.20404">
        <ele>109.19999694824</ele>
        <time>2018-10-27T13:20:45Z</time>
      </trkpt>
      <trkpt lat="49.18195" lon="1.20402">
        <ele>109</ele>
        <time>2018-10-27T13:20:46Z</time>
      </trkpt>
      <trkpt lat="49.18198" lon="1.20402">
        <ele>108.59999847412</ele>
        <time>2018-10-27T13:20:48Z</time>
      </trkpt>
      <trkpt lat="49.18198" lon="1.20403">
        <ele>108.40000152588</ele>
        <time>2018-10-27T13:20:50Z</time>
      </trkpt>
      <trkpt lat="49.18202" lon="1.20402">
        <ele>107.80000305176</ele>
        <time>2018-10-27T13:20:51Z</time>
      </trkpt>
      <trkpt lat="49.1821" lon="1.20395">
        <ele>106.59999847412</ele>
        <time>2018-10-27T13:20:52Z</time>
      </trkpt>
      <trkpt lat="49.18213" lon="1.20393">
        <ele>106</ele>
        <time>2018-10-27T13:20:53Z</time>
      </trkpt>
      <trkpt lat="49.18218" lon="1.20388">
        <ele>105.19999694824</ele>
        <time>2018-10-27T13:20:54Z</time>
      </trkpt>
      <trkpt lat="49.18228" lon="1.20384">
        <ele>103.40000152588</ele>
        <time>2018-10-27T13:20:55Z</time>
      </trkpt>
      <trkpt lat="49.18238" lon="1.20384">
        <ele>101.80000305176</ele>
        <time>2018-10-27T13:20:56Z</time>
      </trkpt>
      <trkpt lat="49.18243" lon="1.20386">
        <ele>100.80000305176</ele>
        <time>2018-10-27T13:20:57Z</time>
      </trkpt>
      <trkpt lat="49.18251" lon="1.20388">
        <ele>99.400001525879</ele>
        <time>2018-10-27T13:20:58Z</time>
      </trkpt>
      <trkpt lat="49.18258" lon="1.20389">
        <ele>97.800003051758</ele>
        <time>2018-10-27T13:20:59Z</time>
      </trkpt>
      <trkpt lat="49.18266" lon="1.2039">
        <ele>96.400001525879</ele>
        <time>2018-10-27T13:21:01Z</time>
      </trkpt>
      <trkpt lat="49.18274" lon="1.20391">
        <ele>95</ele>
        <time>2018-10-27T13:21:02Z</time>
      </trkpt>
      <trkpt lat="49.18282" lon="1.20393">
        <ele>94.199996948242</ele>
        <time>2018-10-27T13:21:03Z</time>
      </trkpt>
      <trkpt lat="49.18291" lon="1.20393">
        <ele>93.599998474121</ele>
        <time>2018-10-27T13:21:05Z</time>
      </trkpt>
      <trkpt lat="49.18308" lon="1.20392">
        <ele>92.400001525879</ele>
        <time>2018-10-27T13:21:06Z</time>
      </trkpt>
      <trkpt lat="49.18324" lon="1.20389">
        <ele>91</ele>
        <time>2018-10-27T13:21:07Z</time>
      </trkpt>
      <trkpt lat="49.1834" lon="1.20383">
        <ele>89.800003051758</ele>
        <time>2018-10-27T13:21:09Z</time>
      </trkpt>
      <trkpt lat="49.18355" lon="1.20378">
        <ele>88.199996948242</ele>
        <time>2018-10-27T13:21:10Z</time>
      </trkpt>
      <trkpt lat="49.18363" lon="1.20375">
        <ele>87.599998474121</ele>
        <time>2018-10-27T13:21:11Z</time>
      </trkpt>
      <trkpt lat="49.18372" lon="1.20372">
        <ele>86.800003051758</ele>
        <time>2018-10-27T13:21:12Z</time>
      </trkpt>
      <trkpt lat="49.18387" lon="1.20366">
        <ele>85.599998474121</ele>
        <time>2018-10-27T13:21:13Z</time>
      </trkpt>
      <trkpt lat="49.18403" lon="1.20359">
        <ele>83.599998474121</ele>
        <time>2018-10-27T13:21:14Z</time>
      </trkpt>
      <trkpt lat="49.1842" lon="1.20352">
        <ele>82</ele>
        <time>2018-10-27T13:21:15Z</time>
      </trkpt>
      <trkpt lat="49.18445" lon="1.20344">
        <ele>80.800003051758</ele>
        <time>2018-10-27T13:21:17Z</time>
      </trkpt>
      <trkpt lat="49.18462" lon="1.20339">
        <ele>79.199996948242</ele>
        <time>2018-10-27T13:21:18Z</time>
      </trkpt>
      <trkpt lat="49.18479" lon="1.20333">
        <ele>78</ele>
        <time>2018-10-27T13:21:19Z</time>
      </trkpt>
      <trkpt lat="49.18512" lon="1.20318">
        <ele>76.800003051758</ele>
        <time>2018-10-27T13:21:20Z</time>
      </trkpt>
      <trkpt lat="49.18519" lon="1.20311">
        <ele>76.400001525879</ele>
        <time>2018-10-27T13:21:22Z</time>
      </trkpt>
      <trkpt lat="49.18526" lon="1.20304">
        <ele>76.199996948242</ele>
        <time>2018-10-27T13:21:24Z</time>
      </trkpt>
      <trkpt lat="49.1854" lon="1.2029">
        <ele>75.800003051758</ele>
        <time>2018-10-27T13:21:26Z</time>
      </trkpt>
      <trkpt lat="49.18546" lon="1.20283">
        <ele>75</ele>
        <time>2018-10-27T13:21:27Z</time>
      </trkpt>
      <trkpt lat="49.1855" lon="1.20275">
        <ele>74.800003051758</ele>
        <time>2018-10-27T13:21:28Z</time>
      </trkpt>
      <trkpt lat="49.18555" lon="1.20268">
        <ele>74.400001525879</ele>
        <time>2018-10-27T13:21:29Z</time>
      </trkpt>
      <trkpt lat="49.18572" lon="1.20251">
        <ele>74</ele>
        <time>2018-10-27T13:21:31Z</time>
      </trkpt>
      <trkpt lat="49.18586" lon="1.20244">
        <ele>73.800003051758</ele>
        <time>2018-10-27T13:21:33Z</time>
      </trkpt>
      <trkpt lat="49.18614" lon="1.20227">
        <ele>74.199996948242</ele>
        <time>2018-10-27T13:21:34Z</time>
      </trkpt>
      <trkpt lat="49.18643" lon="1.2021">
        <ele>74.599998474121</ele>
        <time>2018-10-27T13:21:36Z</time>
      </trkpt>
      <trkpt lat="49.18648" lon="1.20208">
        <ele>75</ele>
        <time>2018-10-27T13:21:37Z</time>
      </trkpt>
      <trkpt lat="49.18653" lon="1.20207">
        <ele>75.199996948242</ele>
        <time>2018-10-27T13:21:39Z</time>
      </trkpt>
      <trkpt lat="49.18663" lon="1.20207">
        <ele>75.800003051758</ele>
        <time>2018-10-27T13:21:41Z</time>
      </trkpt>
      <trkpt lat="49.1867" lon="1.20209">
        <ele>76.199996948242</ele>
        <time>2018-10-27T13:21:42Z</time>
      </trkpt>
      <trkpt lat="49.1868" lon="1.20212">
        <ele>77</ele>
        <time>2018-10-27T13:21:43Z</time>
      </trkpt>
      <trkpt lat="49.18683" lon="1.20213">
        <ele>77.400001525879</ele>
        <time>2018-10-27T13:21:45Z</time>
      </trkpt>
      <trkpt lat="49.18697" lon="1.20216">
        <ele>78.199996948242</ele>
        <time>2018-10-27T13:21:48Z</time>
      </trkpt>
      <trkpt lat="49.18705" lon="1.20218">
        <ele>78.400001525879</ele>
        <time>2018-10-27T13:21:50Z</time>
      </trkpt>
      <trkpt lat="49.18709" lon="1.2022">
        <ele>79</ele>
        <time>2018-10-27T13:21:51Z</time>
      </trkpt>
      <trkpt lat="49.18715" lon="1.20221">
        <ele>79.599998474121</ele>
        <time>2018-10-27T13:21:52Z</time>
      </trkpt>
      <trkpt lat="49.1872" lon="1.20223">
        <ele>80.199996948242</ele>
        <time>2018-10-27T13:21:53Z</time>
      </trkpt>
      <trkpt lat="49.18723" lon="1.20225">
        <ele>80.599998474121</ele>
        <time>2018-10-27T13:21:56Z</time>
      </trkpt>
      <trkpt lat="49.18732" lon="1.20229">
        <ele>81.599998474121</ele>
        <time>2018-10-27T13:21:58Z</time>
      </trkpt>
      <trkpt lat="49.18734" lon="1.20229">
        <ele>81.800003051758</ele>
        <time>2018-10-27T13:22:01Z</time>
      </trkpt>
      <trkpt lat="49.18751" lon="1.20233">
        <ele>83.599998474121</ele>
        <time>2018-10-27T13:22:04Z</time>
      </trkpt>
      <trkpt lat="49.18752" lon="1.20234">
        <ele>83.599998474121</ele>
        <time>2018-10-27T13:22:06Z</time>
      </trkpt>
      <trkpt lat="49.18759" lon="1.20238">
        <ele>84.599998474121</ele>
        <time>2018-10-27T13:22:09Z</time>
      </trkpt>
      <trkpt lat="49.18761" lon="1.2024">
        <ele>85</ele>
        <time>2018-10-27T13:22:12Z</time>
      </trkpt>
      <trkpt lat="49.18766" lon="1.20245">
        <ele>85.599998474121</ele>
        <time>2018-10-27T13:22:26Z</time>
      </trkpt>
      <trkpt lat="49.18768" lon="1.20246">
        <ele>85.800003051758</ele>
        <time>2018-10-27T13:22:28Z</time>
      </trkpt>
      <trkpt lat="49.18768" lon="1.20248">
        <ele>86</ele>
        <time>2018-10-27T13:22:29Z</time>
      </trkpt>
      <trkpt lat="49.18769" lon="1.2025">
        <ele>86.199996948242</ele>
        <time>2018-10-27T13:22:33Z</time>
      </trkpt>
      <trkpt lat="49.18773" lon="1.20256">
        <ele>87</ele>
        <time>2018-10-27T13:22:35Z</time>
      </trkpt>
      <trkpt lat="49.18777" lon="1.20263">
        <ele>87.400001525879</ele>
        <time>2018-10-27T13:22:38Z</time>
      </trkpt>
      <trkpt lat="49.1878" lon="1.20269">
        <ele>88.199996948242</ele>
        <time>2018-10-27T13:22:39Z</time>
      </trkpt>
      <trkpt lat="49.18782" lon="1.20273">
        <ele>88.599998474121</ele>
        <time>2018-10-27T13:22:41Z</time>
      </trkpt>
      <trkpt lat="49.18785" lon="1.20278">
        <ele>89.199996948242</ele>
        <time>2018-10-27T13:22:43Z</time>
      </trkpt>
      <trkpt lat="49.18787" lon="1.20284">
        <ele>90</ele>
        <time>2018-10-27T13:22:44Z</time>
      </trkpt>
      <trkpt lat="49.18788" lon="1.20286">
        <ele>90.400001525879</ele>
        <time>2018-10-27T13:22:47Z</time>
      </trkpt>
      <trkpt lat="49.1879" lon="1.20294">
        <ele>91.199996948242</ele>
        <time>2018-10-27T13:22:49Z</time>
      </trkpt>
      <trkpt lat="49.18791" lon="1.20296">
        <ele>91.400001525879</ele>
        <time>2018-10-27T13:22:52Z</time>
      </trkpt>
      <trkpt lat="49.18793" lon="1.20305">
        <ele>92.400001525879</ele>
        <time>2018-10-27T13:22:56Z</time>
      </trkpt>
      <trkpt lat="49.18793" lon="1.20306">
        <ele>92.599998474121</ele>
        <time>2018-10-27T13:22:57Z</time>
      </trkpt>
      <trkpt lat="49.18794" lon="1.20312">
        <ele>93.199996948242</ele>
        <time>2018-10-27T13:23:01Z</time>
      </trkpt>
      <trkpt lat="49.18795" lon="1.20317">
        <ele>93.800003051758</ele>
        <time>2018-10-27T13:23:04Z</time>
      </trkpt>
      <trkpt lat="49.18796" lon="1.20318">
        <ele>94</ele>
        <time>2018-10-27T13:23:05Z</time>
      </trkpt>
      <trkpt lat="49.18798" lon="1.20326">
        <ele>94.800003051758</ele>
        <time>2018-10-27T13:23:07Z</time>
      </trkpt>
      <trkpt lat="49.18798" lon="1.20329">
        <ele>95.199996948242</ele>
        <time>2018-10-27T13:23:11Z</time>
      </trkpt>
      <trkpt lat="49.18799" lon="1.20337">
        <ele>96</ele>
        <time>2018-10-27T13:23:13Z</time>
      </trkpt>
      <trkpt lat="49.18799" lon="1.20341">
        <ele>96.800003051758</ele>
        <time>2018-10-27T13:23:17Z</time>
      </trkpt>
      <trkpt lat="49.188" lon="1.20345">
        <ele>97</ele>
        <time>2018-10-27T13:23:19Z</time>
      </trkpt>
      <trkpt lat="49.18801" lon="1.2035">
        <ele>97.400001525879</ele>
        <time>2018-10-27T13:23:26Z</time>
      </trkpt>
      <trkpt lat="49.18802" lon="1.20354">
        <ele>97.800003051758</ele>
        <time>2018-10-27T13:23:30Z</time>
      </trkpt>
      <trkpt lat="49.18803" lon="1.20357">
        <ele>98.199996948242</ele>
        <time>2018-10-27T13:23:35Z</time>
      </trkpt>
      <trkpt lat="49.18804" lon="1.20361">
        <ele>98.400001525879</ele>
        <time>2018-10-27T13:23:38Z</time>
      </trkpt>
      <trkpt lat="49.18808" lon="1.20371">
        <ele>99.199996948242</ele>
        <time>2018-10-27T13:23:44Z</time>
      </trkpt>
      <trkpt lat="49.18809" lon="1.20375">
        <ele>99.599998474121</ele>
        <time>2018-10-27T13:23:50Z</time>
      </trkpt>
      <trkpt lat="49.18813" lon="1.20382">
        <ele>100.40000152588</ele>
        <time>2018-10-27T13:23:53Z</time>
      </trkpt>
      <trkpt lat="49.18814" lon="1.20385">
        <ele>100.80000305176</ele>
        <time>2018-10-27T13:23:57Z</time>
      </trkpt>
      <trkpt lat="49.18815" lon="1.20388">
        <ele>101</ele>
        <time>2018-10-27T13:24:01Z</time>
      </trkpt>
      <trkpt lat="49.18818" lon="1.20393">
        <ele>101.59999847412</ele>
        <time>2018-10-27T13:24:06Z</time>
      </trkpt>
      <trkpt lat="49.18821" lon="1.20398">
        <ele>102.19999694824</ele>
        <time>2018-10-27T13:24:09Z</time>
      </trkpt>
      <trkpt lat="49.18823" lon="1.20401">
        <ele>102.80000305176</ele>
        <time>2018-10-27T13:24:16Z</time>
      </trkpt>
      <trkpt lat="49.18827" lon="1.20406">
        <ele>103.80000305176</ele>
        <time>2018-10-27T13:24:17Z</time>
      </trkpt>
      <trkpt lat="49.18828" lon="1.20407">
        <ele>104</ele>
        <time>2018-10-27T13:24:22Z</time>
      </trkpt>
      <trkpt lat="49.18834" lon="1.20411">
        <ele>105</ele>
        <time>2018-10-27T13:24:24Z</time>
      </trkpt>
      <trkpt lat="49.18837" lon="1.20414">
        <ele>106</ele>
        <time>2018-10-27T13:24:29Z</time>
      </trkpt>
      <trkpt lat="49.18839" lon="1.20414">
        <ele>106.19999694824</ele>
        <time>2018-10-27T13:24:31Z</time>
      </trkpt>
      <trkpt lat="49.18896" lon="1.20349">
        <ele>120</ele>
        <time>2018-10-27T13:24:38Z</time>
      </trkpt>
      <trkpt lat="49.189" lon="1.20343">
        <ele>120.40000152588</ele>
        <time>2018-10-27T13:24:42Z</time>
      </trkpt>
      <trkpt lat="49.18904" lon="1.20338">
        <ele>121.19999694824</ele>
        <time>2018-10-27T13:24:46Z</time>
      </trkpt>
      <trkpt lat="49.18906" lon="1.20332">
        <ele>121.59999847412</ele>
        <time>2018-10-27T13:24:47Z</time>
      </trkpt>
      <trkpt lat="49.1891" lon="1.20321">
        <ele>122.59999847412</ele>
        <time>2018-10-27T13:24:51Z</time>
      </trkpt>
      <trkpt lat="49.18913" lon="1.20315">
        <ele>123</ele>
        <time>2018-10-27T13:24:53Z</time>
      </trkpt>
      <trkpt lat="49.18915" lon="1.2031">
        <ele>123.40000152588</ele>
        <time>2018-10-27T13:24:56Z</time>
      </trkpt>
      <trkpt lat="49.18917" lon="1.20305">
        <ele>123.80000305176</ele>
        <time>2018-10-27T13:25:02Z</time>
      </trkpt>
      <trkpt lat="49.18919" lon="1.203">
        <ele>123.80000305176</ele>
        <time>2018-10-27T13:25:06Z</time>
      </trkpt>
      <trkpt lat="49.18928" lon="1.20284">
        <ele>123.80000305176</ele>
        <time>2018-10-27T13:25:10Z</time>
      </trkpt>
      <trkpt lat="49.18935" lon="1.2027">
        <ele>123.59999847412</ele>
        <time>2018-10-27T13:25:17Z</time>
      </trkpt>
      <trkpt lat="49.18944" lon="1.20254">
        <ele>122.40000152588</ele>
        <time>2018-10-27T13:25:20Z</time>
      </trkpt>
      <trkpt lat="49.18952" lon="1.20241">
        <ele>121.40000152588</ele>
        <time>2018-10-27T13:25:26Z</time>
      </trkpt>
      <trkpt lat="49.18955" lon="1.20233">
        <ele>120.59999847412</ele>
        <time>2018-10-27T13:25:31Z</time>
      </trkpt>
      <trkpt lat="49.18963" lon="1.20217">
        <ele>118.80000305176</ele>
        <time>2018-10-27T13:25:33Z</time>
      </trkpt>
      <trkpt lat="49.18971" lon="1.20199">
        <ele>117</ele>
        <time>2018-10-27T13:25:35Z</time>
      </trkpt>
      <trkpt lat="49.18975" lon="1.20191">
        <ele>116</ele>
        <time>2018-10-27T13:25:36Z</time>
      </trkpt>
      <trkpt lat="49.18979" lon="1.20182">
        <ele>115.40000152588</ele>
        <time>2018-10-27T13:25:38Z</time>
      </trkpt>
      <trkpt lat="49.18983" lon="1.20172">
        <ele>114.40000152588</ele>
        <time>2018-10-27T13:25:40Z</time>
      </trkpt>
      <trkpt lat="49.18987" lon="1.20162">
        <ele>113.40000152588</ele>
        <time>2018-10-27T13:25:42Z</time>
      </trkpt>
      <trkpt lat="49.18992" lon="1.20152">
        <ele>112.40000152588</ele>
        <time>2018-10-27T13:25:44Z</time>
      </trkpt>
      <trkpt lat="49.18997" lon="1.20142">
        <ele>111</ele>
        <time>2018-10-27T13:25:46Z</time>
      </trkpt>
      <trkpt lat="49.19001" lon="1.20133">
        <ele>110</ele>
        <time>2018-10-27T13:25:48Z</time>
      </trkpt>
      <trkpt lat="49.19005" lon="1.20123">
        <ele>108.59999847412</ele>
        <time>2018-10-27T13:25:53Z</time>
      </trkpt>
      <trkpt lat="49.1901" lon="1.20113">
        <ele>107.40000152588</ele>
        <time>2018-10-27T13:25:55Z</time>
      </trkpt>
      <trkpt lat="49.19018" lon="1.20094">
        <ele>105.19999694824</ele>
        <time>2018-10-27T13:26:01Z</time>
      </trkpt>
      <trkpt lat="49.19023" lon="1.20085">
        <ele>103.59999847412</ele>
        <time>2018-10-27T13:26:02Z</time>
      </trkpt>
      <trkpt lat="49.19026" lon="1.20076">
        <ele>102.40000152588</ele>
        <time>2018-10-27T13:26:09Z</time>
      </trkpt>
      <trkpt lat="49.19034" lon="1.20059">
        <ele>99.400001525879</ele>
        <time>2018-10-27T13:26:10Z</time>
      </trkpt>
      <trkpt lat="49.19038" lon="1.2005">
        <ele>98.199996948242</ele>
        <time>2018-10-27T13:26:13Z</time>
      </trkpt>
      <trkpt lat="49.19043" lon="1.20041">
        <ele>97.199996948242</ele>
        <time>2018-10-27T13:26:15Z</time>
      </trkpt>
      <trkpt lat="49.19051" lon="1.20022">
        <ele>94.800003051758</ele>
        <time>2018-10-27T13:26:17Z</time>
      </trkpt>
      <trkpt lat="49.19056" lon="1.20013">
        <ele>93.400001525879</ele>
        <time>2018-10-27T13:26:19Z</time>
      </trkpt>
      <trkpt lat="49.19062" lon="1.20003">
        <ele>91.599998474121</ele>
        <time>2018-10-27T13:26:23Z</time>
      </trkpt>
      <trkpt lat="49.19069" lon="1.19994">
        <ele>90.400001525879</ele>
        <time>2018-10-27T13:26:28Z</time>
      </trkpt>
      <trkpt lat="49.19075" lon="1.19984">
        <ele>89</ele>
        <time>2018-10-27T13:26:36Z</time>
      </trkpt>
      <trkpt lat="49.19082" lon="1.19974">
        <ele>87.599998474121</ele>
        <time>2018-10-27T13:26:43Z</time>
      </trkpt>
      <trkpt lat="49.1909" lon="1.19963">
        <ele>86.400001525879</ele>
        <time>2018-10-27T13:26:50Z</time>
      </trkpt>
      <trkpt lat="49.19103" lon="1.19943">
        <ele>84.400001525879</ele>
        <time>2018-10-27T13:26:58Z</time>
      </trkpt>
      <trkpt lat="49.1911" lon="1.19931">
        <ele>82.800003051758</ele>
        <time>2018-10-27T13:27:06Z</time>
      </trkpt>
      <trkpt lat="49.19117" lon="1.1992">
        <ele>81.199996948242</ele>
        <time>2018-10-27T13:27:15Z</time>
      </trkpt>
      <trkpt lat="49.19123" lon="1.19909">
        <ele>80</ele>
        <time>2018-10-27T13:27:20Z</time>
      </trkpt>
      <trkpt lat="49.19136" lon="1.19886">
        <ele>78.400001525879</ele>
        <time>2018-10-27T13:27:22Z</time>
      </trkpt>
      <trkpt lat="49.19148" lon="1.19863">
        <ele>77.400001525879</ele>
        <time>2018-10-27T13:27:29Z</time>
      </trkpt>
      <trkpt lat="49.19159" lon="1.1984">
        <ele>75.599998474121</ele>
        <time>2018-10-27T13:27:38Z</time>
      </trkpt>
      <trkpt lat="49.19164" lon="1.19829">
        <ele>74.400001525879</ele>
        <time>2018-10-27T13:27:45Z</time>
      </trkpt>
      <trkpt lat="49.19169" lon="1.19817">
        <ele>73.400001525879</ele>
        <time>2018-10-27T13:27:53Z</time>
      </trkpt>
      <trkpt lat="49.19175" lon="1.19806">
        <ele>71.599998474121</ele>
        <time>2018-10-27T13:27:59Z</time>
      </trkpt>
      <trkpt lat="49.19186" lon="1.19785">
        <ele>70.199996948242</ele>
        <time>2018-10-27T13:28:07Z</time>
      </trkpt>
      <trkpt lat="49.19197" lon="1.19764">
        <ele>68.800003051758</ele>
        <time>2018-10-27T13:28:14Z</time>
      </trkpt>
      <trkpt lat="49.19203" lon="1.19754">
        <ele>67.800003051758</ele>
        <time>2018-10-27T13:28:19Z</time>
      </trkpt>
      <trkpt lat="49.19214" lon="1.19734">
        <ele>67.199996948242</ele>
        <time>2018-10-27T13:28:23Z</time>
      </trkpt>
      <trkpt lat="49.19219" lon="1.19724">
        <ele>66.599998474121</ele>
        <time>2018-10-27T13:28:29Z</time>
      </trkpt>
      <trkpt lat="49.1923" lon="1.19705">
        <ele>65</ele>
        <time>2018-10-27T13:28:32Z</time>
      </trkpt>
      <trkpt lat="49.19242" lon="1.19686">
        <ele>63.799999237061</ele>
        <time>2018-10-27T13:28:33Z</time>
      </trkpt>
      <trkpt lat="49.19248" lon="1.19675">
        <ele>63</ele>
        <time>2018-10-27T13:28:39Z</time>
      </trkpt>
      <trkpt lat="49.19254" lon="1.19665">
        <ele>62</ele>
        <time>2018-10-27T13:28:43Z</time>
      </trkpt>
      <trkpt lat="49.19266" lon="1.19645">
        <ele>60.799999237061</ele>
        <time>2018-10-27T13:28:44Z</time>
      </trkpt>
      <trkpt lat="49.19284" lon="1.19615">
        <ele>59</ele>
        <time>2018-10-27T13:28:50Z</time>
      </trkpt>
      <trkpt lat="49.19296" lon="1.19595">
        <ele>57.599998474121</ele>
        <time>2018-10-27T13:28:54Z</time>
      </trkpt>
      <trkpt lat="49.19302" lon="1.19585">
        <ele>57.200000762939</ele>
        <time>2018-10-27T13:28:56Z</time>
      </trkpt>
      <trkpt lat="49.19307" lon="1.19575">
        <ele>56.400001525879</ele>
        <time>2018-10-27T13:28:59Z</time>
      </trkpt>
      <trkpt lat="49.19313" lon="1.19564">
        <ele>55.400001525879</ele>
        <time>2018-10-27T13:29:02Z</time>
      </trkpt>
      <trkpt lat="49.1933" lon="1.19535">
        <ele>53.799999237061</ele>
        <time>2018-10-27T13:29:03Z</time>
      </trkpt>
      <trkpt lat="49.19343" lon="1.19517">
        <ele>53</ele>
        <time>2018-10-27T13:29:05Z</time>
      </trkpt>
      <trkpt lat="49.19363" lon="1.19492">
        <ele>52.200000762939</ele>
        <time>2018-10-27T13:29:07Z</time>
      </trkpt>
      <trkpt lat="49.19381" lon="1.19469">
        <ele>51.599998474121</ele>
        <time>2018-10-27T13:29:09Z</time>
      </trkpt>
      <trkpt lat="49.19393" lon="1.19458">
        <ele>51</ele>
        <time>2018-10-27T13:29:11Z</time>
      </trkpt>
      <trkpt lat="49.19409" lon="1.19444">
        <ele>51.200000762939</ele>
        <time>2018-10-27T13:29:14Z</time>
      </trkpt>
      <trkpt lat="49.19418" lon="1.19435">
        <ele>51.400001525879</ele>
        <time>2018-10-27T13:29:18Z</time>
      </trkpt>
      <trkpt lat="49.19422" lon="1.19432">
        <ele>51.799999237061</ele>
        <time>2018-10-27T13:29:22Z</time>
      </trkpt>
      <trkpt lat="49.19426" lon="1.19429">
        <ele>51.400001525879</ele>
        <time>2018-10-27T13:29:25Z</time>
      </trkpt>
      <trkpt lat="49.19428" lon="1.19426">
        <ele>51</ele>
        <time>2018-10-27T13:29:29Z</time>
      </trkpt>
      <trkpt lat="49.19442" lon="1.19411">
        <ele>49.799999237061</ele>
        <time>2018-10-27T13:29:30Z</time>
      </trkpt>
      <trkpt lat="49.19451" lon="1.19402">
        <ele>48.799999237061</ele>
        <time>2018-10-27T13:29:33Z</time>
      </trkpt>
      <trkpt lat="49.19466" lon="1.19391">
        <ele>47.799999237061</ele>
        <time>2018-10-27T13:29:37Z</time>
      </trkpt>
      <trkpt lat="49.19471" lon="1.19387">
        <ele>47.400001525879</ele>
        <time>2018-10-27T13:29:46Z</time>
      </trkpt>
      <trkpt lat="49.1948" lon="1.19376">
        <ele>45.799999237061</ele>
        <time>2018-10-27T13:29:48Z</time>
      </trkpt>
      <trkpt lat="49.19491" lon="1.19367">
        <ele>44.599998474121</ele>
        <time>2018-10-27T13:29:50Z</time>
      </trkpt>
      <trkpt lat="49.19497" lon="1.19364">
        <ele>44.400001525879</ele>
        <time>2018-10-27T13:29:54Z</time>
      </trkpt>
      <trkpt lat="49.19515" lon="1.1935">
        <ele>43.200000762939</ele>
        <time>2018-10-27T13:29:56Z</time>
      </trkpt>
      <trkpt lat="49.19526" lon="1.19338">
        <ele>42.200000762939</ele>
        <time>2018-10-27T13:29:58Z</time>
      </trkpt>
      <trkpt lat="49.19543" lon="1.19319">
        <ele>41</ele>
        <time>2018-10-27T13:30:02Z</time>
      </trkpt>
      <trkpt lat="49.19565" lon="1.19292">
        <ele>39.799999237061</ele>
        <time>2018-10-27T13:30:04Z</time>
      </trkpt>
      <trkpt lat="49.1957" lon="1.19285">
        <ele>39.400001525879</ele>
        <time>2018-10-27T13:30:13Z</time>
      </trkpt>
      <trkpt lat="49.19591" lon="1.19255">
        <ele>38.799999237061</ele>
        <time>2018-10-27T13:30:17Z</time>
      </trkpt>
      <trkpt lat="49.19607" lon="1.19232">
        <ele>37.599998474121</ele>
        <time>2018-10-27T13:30:20Z</time>
      </trkpt>
      <trkpt lat="49.19612" lon="1.19225">
        <ele>37</ele>
        <time>2018-10-27T13:30:27Z</time>
      </trkpt>
      <trkpt lat="49.19622" lon="1.19209">
        <ele>36.400001525879</ele>
        <time>2018-10-27T13:30:34Z</time>
      </trkpt>
      <trkpt lat="49.19642" lon="1.19179">
        <ele>35.200000762939</ele>
        <time>2018-10-27T13:30:36Z</time>
      </trkpt>
      <trkpt lat="49.19652" lon="1.19164">
        <ele>35.200000762939</ele>
        <time>2018-10-27T13:30:41Z</time>
      </trkpt>
      <trkpt lat="49.1967" lon="1.19134">
        <ele>34.200000762939</ele>
        <time>2018-10-27T13:30:49Z</time>
      </trkpt>
      <trkpt lat="49.1968" lon="1.19121">
        <ele>33.799999237061</ele>
        <time>2018-10-27T13:30:54Z</time>
      </trkpt>
      <trkpt lat="49.19712" lon="1.19071">
        <ele>33</ele>
        <time>2018-10-27T13:30:56Z</time>
      </trkpt>
      <trkpt lat="49.19731" lon="1.1904">
        <ele>32</ele>
        <time>2018-10-27T13:31:04Z</time>
      </trkpt>
      <trkpt lat="49.19754" lon="1.19003">
        <ele>31.60000038147</ele>
        <time>2018-10-27T13:31:12Z</time>
      </trkpt>
      <trkpt lat="49.19767" lon="1.18979">
        <ele>30.799999237061</ele>
        <time>2018-10-27T13:31:15Z</time>
      </trkpt>
      <trkpt lat="49.19792" lon="1.1893">
        <ele>29.60000038147</ele>
        <time>2018-10-27T13:31:17Z</time>
      </trkpt>
      <trkpt lat="49.19815" lon="1.18881">
        <ele>28.60000038147</ele>
        <time>2018-10-27T13:31:23Z</time>
      </trkpt>
      <trkpt lat="49.19827" lon="1.18858">
        <ele>28.200000762939</ele>
        <time>2018-10-27T13:31:24Z</time>
      </trkpt>
      <trkpt lat="49.19845" lon="1.18829">
        <ele>27.39999961853</ele>
        <time>2018-10-27T13:31:29Z</time>
      </trkpt>
      <trkpt lat="49.19863" lon="1.18801">
        <ele>27</ele>
        <time>2018-10-27T13:31:33Z</time>
      </trkpt>
      <trkpt lat="49.19885" lon="1.1877">
        <ele>26.39999961853</ele>
        <time>2018-10-27T13:31:40Z</time>
      </trkpt>
      <trkpt lat="49.19901" lon="1.18753">
        <ele>26</ele>
        <time>2018-10-27T13:31:41Z</time>
      </trkpt>
      <trkpt lat="49.19937" lon="1.18713">
        <ele>25.39999961853</ele>
        <time>2018-10-27T13:31:47Z</time>
      </trkpt>
      <trkpt lat="49.19943" lon="1.18707">
        <ele>24.799999237061</ele>
        <time>2018-10-27T13:31:48Z</time>
      </trkpt>
      <trkpt lat="49.1997" lon="1.18678">
        <ele>23.799999237061</ele>
        <time>2018-10-27T13:31:50Z</time>
      </trkpt>
      <trkpt lat="49.1998" lon="1.18667">
        <ele>23.799999237061</ele>
        <time>2018-10-27T13:31:52Z</time>
      </trkpt>
      <trkpt lat="49.20008" lon="1.18637">
        <ele>22.60000038147</ele>
        <time>2018-10-27T13:31:53Z</time>
      </trkpt>
      <trkpt lat="49.20019" lon="1.18627">
        <ele>22.200000762939</ele>
        <time>2018-10-27T13:31:54Z</time>
      </trkpt>
      <trkpt lat="49.20055" lon="1.18599">
        <ele>22</ele>
        <time>2018-10-27T13:31:56Z</time>
      </trkpt>
      <trkpt lat="49.20066" lon="1.18592">
        <ele>23.200000762939</ele>
        <time>2018-10-27T13:32:00Z</time>
      </trkpt>
      <trkpt lat="49.2007" lon="1.18588">
        <ele>22.799999237061</ele>
        <time>2018-10-27T13:32:02Z</time>
      </trkpt>
      <trkpt lat="49.2007" lon="1.18587">
        <ele>22.799999237061</ele>
        <time>2018-10-27T13:32:07Z</time>
      </trkpt>
      <trkpt lat="49.20065" lon="1.18587">
        <ele>23</ele>
        <time>2018-10-27T13:32:10Z</time>
      </trkpt>
      <trkpt lat="49.20062" lon="1.18593">
        <ele>23.39999961853</ele>
        <time>2018-10-27T13:32:16Z</time>
      </trkpt>
      <trkpt lat="49.20055" lon="1.18599">
        <ele>23.200000762939</ele>
        <time>2018-10-27T13:32:17Z</time>
      </trkpt>
      <trkpt lat="49.20034" lon="1.18612">
        <ele>23.39999961853</ele>
        <time>2018-10-27T13:32:23Z</time>
      </trkpt>
      <trkpt lat="49.20022" lon="1.18624">
        <ele>23.799999237061</ele>
        <time>2018-10-27T13:32:28Z</time>
      </trkpt>
      <trkpt lat="49.20009" lon="1.18637">
        <ele>24</ele>
        <time>2018-10-27T13:32:32Z</time>
      </trkpt>
      <trkpt lat="49.19986" lon="1.18662">
        <ele>24.60000038147</ele>
        <time>2018-10-27T13:32:36Z</time>
      </trkpt>
      <trkpt lat="49.19976" lon="1.18671">
        <ele>24.799999237061</ele>
        <time>2018-10-27T13:32:39Z</time>
      </trkpt>
      <trkpt lat="49.1996" lon="1.18689">
        <ele>25.39999961853</ele>
        <time>2018-10-27T13:32:43Z</time>
      </trkpt>
      <trkpt lat="49.19949" lon="1.18705">
        <ele>26</ele>
        <time>2018-10-27T13:32:46Z</time>
      </trkpt>
      <trkpt lat="49.19947" lon="1.18714">
        <ele>26</ele>
        <time>2018-10-27T13:32:47Z</time>
      </trkpt>
      <trkpt lat="49.19944" lon="1.18717">
        <ele>26.200000762939</ele>
        <time>2018-10-27T13:32:50Z</time>
      </trkpt>
      <trkpt lat="49.19942" lon="1.18714">
        <ele>26.200000762939</ele>
        <time>2018-10-27T13:32:53Z</time>
      </trkpt>
      <trkpt lat="49.19946" lon="1.18707">
        <ele>26.39999961853</ele>
        <time>2018-10-27T13:32:54Z</time>
      </trkpt>
      <trkpt lat="49.19952" lon="1.18701">
        <ele>25.799999237061</ele>
        <time>2018-10-27T13:33:00Z</time>
      </trkpt>
      <trkpt lat="49.19958" lon="1.18693">
        <ele>25.200000762939</ele>
        <time>2018-10-27T13:33:05Z</time>
      </trkpt>
      <trkpt lat="49.19965" lon="1.18686">
        <ele>25</ele>
        <time>2018-10-27T13:33:10Z</time>
      </trkpt>
      <trkpt lat="49.19972" lon="1.18678">
        <ele>24.60000038147</ele>
        <time>2018-10-27T13:33:12Z</time>
      </trkpt>
      <trkpt lat="49.1998" lon="1.1867">
        <ele>24.200000762939</ele>
        <time>2018-10-27T13:33:19Z</time>
      </trkpt>
      <trkpt lat="49.20001" lon="1.18647">
        <ele>23.799999237061</ele>
        <time>2018-10-27T13:33:27Z</time>
      </trkpt>
      <trkpt lat="49.20009" lon="1.18638">
        <ele>23.60000038147</ele>
        <time>2018-10-27T13:33:29Z</time>
      </trkpt>
      <trkpt lat="49.20036" lon="1.18613">
        <ele>22.799999237061</ele>
        <time>2018-10-27T13:33:34Z</time>
      </trkpt>
      <trkpt lat="49.2004" lon="1.1861">
        <ele>22.799999237061</ele>
        <time>2018-10-27T13:33:42Z</time>
      </trkpt>
      <trkpt lat="49.20074" lon="1.18586">
        <ele>22.39999961853</ele>
        <time>2018-10-27T13:33:48Z</time>
      </trkpt>
      <trkpt lat="49.20079" lon="1.18583">
        <ele>22.200000762939</ele>
        <time>2018-10-27T13:33:49Z</time>
      </trkpt>
      <trkpt lat="49.20095" lon="1.18582">
        <ele>22.200000762939</ele>
        <time>2018-10-27T13:33:54Z</time>
      </trkpt>
      <trkpt lat="49.20106" lon="1.18584">
        <ele>22</ele>
        <time>2018-10-27T13:34:02Z</time>
      </trkpt>
      <trkpt lat="49.20117" lon="1.18582">
        <ele>21.60000038147</ele>
        <time>2018-10-27T13:34:04Z</time>
      </trkpt>
      <trkpt lat="49.20128" lon="1.18582">
        <ele>22</ele>
        <time>2018-10-27T13:34:09Z</time>
      </trkpt>
      <trkpt lat="49.20149" lon="1.18579">
        <ele>20.39999961853</ele>
        <time>2018-10-27T13:34:14Z</time>
      </trkpt>
      <trkpt lat="49.20175" lon="1.18575">
        <ele>20.39999961853</ele>
        <time>2018-10-27T13:34:18Z</time>
      </trkpt>
      <trkpt lat="49.20215" lon="1.18568">
        <ele>20.39999961853</ele>
        <time>2018-10-27T13:34:21Z</time>
      </trkpt>
      <trkpt lat="49.2025" lon="1.18565">
        <ele>20.799999237061</ele>
        <time>2018-10-27T13:34:27Z</time>
      </trkpt>
      <trkpt lat="49.20284" lon="1.1856">
        <ele>21</ele>
        <time>2018-10-27T13:34:28Z</time>
      </trkpt>
      <trkpt lat="49.20322" lon="1.18556">
        <ele>20.60000038147</ele>
        <time>2018-10-27T13:34:35Z</time>
      </trkpt>
      <trkpt lat="49.20359" lon="1.18549">
        <ele>20.60000038147</ele>
        <time>2018-10-27T13:34:36Z</time>
      </trkpt>
      <trkpt lat="49.20402" lon="1.18542">
        <ele>21.200000762939</ele>
        <time>2018-10-27T13:34:43Z</time>
      </trkpt>
      <trkpt lat="49.20426" lon="1.1854">
        <ele>20.200000762939</ele>
        <time>2018-10-27T13:34:44Z</time>
      </trkpt>
      <trkpt lat="49.20436" lon="1.18541">
        <ele>20.39999961853</ele>
        <time>2018-10-27T13:34:52Z</time>
      </trkpt>
      <trkpt lat="49.2047" lon="1.18536">
        <ele>20.200000762939</ele>
        <time>2018-10-27T13:34:59Z</time>
      </trkpt>
      <trkpt lat="49.20515" lon="1.1853">
        <ele>20.39999961853</ele>
        <time>2018-10-27T13:35:00Z</time>
      </trkpt>
      <trkpt lat="49.20551" lon="1.18526">
        <ele>19.799999237061</ele>
        <time>2018-10-27T13:35:06Z</time>
      </trkpt>
      <trkpt lat="49.20591" lon="1.18518">
        <ele>19.60000038147</ele>
        <time>2018-10-27T13:35:07Z</time>
      </trkpt>
      <trkpt lat="49.20622" lon="1.18515">
        <ele>19.60000038147</ele>
        <time>2018-10-27T13:35:13Z</time>
      </trkpt>
      <trkpt lat="49.20661" lon="1.18511">
        <ele>20</ele>
        <time>2018-10-27T13:35:22Z</time>
      </trkpt>
      <trkpt lat="49.20691" lon="1.18505">
        <ele>20.39999961853</ele>
        <time>2018-10-27T13:35:30Z</time>
      </trkpt>
      <trkpt lat="49.20705" lon="1.18499">
        <ele>20.60000038147</ele>
        <time>2018-10-27T13:35:33Z</time>
      </trkpt>
      <trkpt lat="49.20714" lon="1.18498">
        <ele>21</ele>
        <time>2018-10-27T13:35:35Z</time>
      </trkpt>
      <trkpt lat="49.20734" lon="1.18494">
        <ele>20.799999237061</ele>
        <time>2018-10-27T13:35:37Z</time>
      </trkpt>
      <trkpt lat="49.20741" lon="1.18484">
        <ele>21</ele>
        <time>2018-10-27T13:35:40Z</time>
      </trkpt>
      <trkpt lat="49.20742" lon="1.18479">
        <ele>20.799999237061</ele>
        <time>2018-10-27T13:35:47Z</time>
      </trkpt>
      <trkpt lat="49.2075" lon="1.18441">
        <ele>20.200000762939</ele>
        <time>2018-10-27T13:35:55Z</time>
      </trkpt>
      <trkpt lat="49.20756" lon="1.18414">
        <ele>19.60000038147</ele>
        <time>2018-10-27T13:36:02Z</time>
      </trkpt>
      <trkpt lat="49.20757" lon="1.18407">
        <ele>19.39999961853</ele>
        <time>2018-10-27T13:36:03Z</time>
      </trkpt>
      <trkpt lat="49.20763" lon="1.18363">
        <ele>19.39999961853</ele>
        <time>2018-10-27T13:36:11Z</time>
      </trkpt>
      <trkpt lat="49.20766" lon="1.18335">
        <ele>18.39999961853</ele>
        <time>2018-10-27T13:36:18Z</time>
      </trkpt>
      <trkpt lat="49.20768" lon="1.18322">
        <ele>18.60000038147</ele>
        <time>2018-10-27T13:36:19Z</time>
      </trkpt>
      <trkpt lat="49.20772" lon="1.18305">
        <ele>18.200000762939</ele>
        <time>2018-10-27T13:36:22Z</time>
      </trkpt>
      <trkpt lat="49.20775" lon="1.18292">
        <ele>18.60000038147</ele>
        <time>2018-10-27T13:36:24Z</time>
      </trkpt>
      <trkpt lat="49.20777" lon="1.18291">
        <ele>18.60000038147</ele>
        <time>2018-10-27T13:36:27Z</time>
      </trkpt>
      <trkpt lat="49.20783" lon="1.18289">
        <ele>19</ele>
        <time>2018-10-27T13:36:31Z</time>
      </trkpt>
      <trkpt lat="49.20787" lon="1.18283">
        <ele>18.39999961853</ele>
        <time>2018-10-27T13:36:32Z</time>
      </trkpt>
      <trkpt lat="49.20795" lon="1.18278">
        <ele>18.200000762939</ele>
        <time>2018-10-27T13:36:37Z</time>
      </trkpt>
      <trkpt lat="49.20803" lon="1.18272">
        <ele>17.799999237061</ele>
        <time>2018-10-27T13:36:39Z</time>
      </trkpt>
      <trkpt lat="49.20815" lon="1.18264">
        <ele>17.39999961853</ele>
        <time>2018-10-27T13:36:40Z</time>
      </trkpt>
      <trkpt lat="49.20829" lon="1.18263">
        <ele>18</ele>
        <time>2018-10-27T13:36:43Z</time>
      </trkpt>
      <trkpt lat="49.20848" lon="1.18257">
        <ele>17.799999237061</ele>
        <time>2018-10-27T13:36:44Z</time>
      </trkpt>
      <trkpt lat="49.20855" lon="1.18235">
        <ele>18.799999237061</ele>
        <time>2018-10-27T13:36:46Z</time>
      </trkpt>
      <trkpt lat="49.20865" lon="1.182">
        <ele>18.39999961853</ele>
        <time>2018-10-27T13:36:52Z</time>
      </trkpt>
      <trkpt lat="49.20868" lon="1.18191">
        <ele>18.60000038147</ele>
        <time>2018-10-27T13:36:56Z</time>
      </trkpt>
      <trkpt lat="49.20877" lon="1.18168">
        <ele>19.39999961853</ele>
        <time>2018-10-27T13:37:05Z</time>
      </trkpt>
      <trkpt lat="49.2089" lon="1.18139">
        <ele>20.60000038147</ele>
        <time>2018-10-27T13:37:14Z</time>
      </trkpt>
      <trkpt lat="49.20917" lon="1.18081">
        <ele>20.60000038147</ele>
        <time>2018-10-27T13:37:21Z</time>
      </trkpt>
      <trkpt lat="49.20924" lon="1.18072">
        <ele>20.39999961853</ele>
        <time>2018-10-27T13:37:22Z</time>
      </trkpt>
      <trkpt lat="49.20934" lon="1.18064">
        <ele>20</ele>
        <time>2018-10-27T13:37:26Z</time>
      </trkpt>
      <trkpt lat="49.20944" lon="1.18036">
        <ele>20.200000762939</ele>
        <time>2018-10-27T13:37:34Z</time>
      </trkpt>
      <trkpt lat="49.20943" lon="1.18017">
        <ele>20</ele>
        <time>2018-10-27T13:37:44Z</time>
      </trkpt>
      <trkpt lat="49.20942" lon="1.17998">
        <ele>19.39999961853</ele>
        <time>2018-10-27T13:37:54Z</time>
      </trkpt>
      <trkpt lat="49.20944" lon="1.1796">
        <ele>18.39999961853</ele>
        <time>2018-10-27T13:38:03Z</time>
      </trkpt>
      <trkpt lat="49.20946" lon="1.17942">
        <ele>18.60000038147</ele>
        <time>2018-10-27T13:38:05Z</time>
      </trkpt>
      <trkpt lat="49.2096" lon="1.17861">
        <ele>18.39999961853</ele>
        <time>2018-10-27T13:38:14Z</time>
      </trkpt>
      <trkpt lat="49.20969" lon="1.17825">
        <ele>17.200000762939</ele>
        <time>2018-10-27T13:38:24Z</time>
      </trkpt>
      <trkpt lat="49.20975" lon="1.17797">
        <ele>16</ele>
        <time>2018-10-27T13:38:25Z</time>
      </trkpt>
      <trkpt lat="49.20987" lon="1.17738">
        <ele>16.799999237061</ele>
        <time>2018-10-27T13:38:33Z</time>
      </trkpt>
      <trkpt lat="49.20998" lon="1.17685">
        <ele>16.799999237061</ele>
        <time>2018-10-27T13:38:38Z</time>
      </trkpt>
      <trkpt lat="49.21" lon="1.1767">
        <ele>17.200000762939</ele>
        <time>2018-10-27T13:38:41Z</time>
      </trkpt>
      <trkpt lat="49.21008" lon="1.17632">
        <ele>17.60000038147</ele>
        <time>2018-10-27T13:38:51Z</time>
      </trkpt>
      <trkpt lat="49.21021" lon="1.17571">
        <ele>17.799999237061</ele>
        <time>2018-10-27T13:39:00Z</time>
      </trkpt>
      <trkpt lat="49.21028" lon="1.17533">
        <ele>17</ele>
        <time>2018-10-27T13:39:09Z</time>
      </trkpt>
      <trkpt lat="49.21031" lon="1.17519">
        <ele>17.200000762939</ele>
        <time>2018-10-27T13:39:13Z</time>
      </trkpt>
      <trkpt lat="49.21044" lon="1.17456">
        <ele>17.60000038147</ele>
        <time>2018-10-27T13:39:16Z</time>
      </trkpt>
      <trkpt lat="49.21055" lon="1.17386">
        <ele>17.200000762939</ele>
        <time>2018-10-27T13:39:22Z</time>
      </trkpt>
      <trkpt lat="49.21055" lon="1.17361">
        <ele>17.39999961853</ele>
        <time>2018-10-27T13:39:30Z</time>
      </trkpt>
      <trkpt lat="49.21054" lon="1.17344">
        <ele>17.200000762939</ele>
        <time>2018-10-27T13:39:39Z</time>
      </trkpt>
      <trkpt lat="49.21052" lon="1.17298">
        <ele>17.799999237061</ele>
        <time>2018-10-27T13:39:48Z</time>
      </trkpt>
      <trkpt lat="49.21051" lon="1.1729">
        <ele>18</ele>
        <time>2018-10-27T13:39:57Z</time>
      </trkpt>
      <trkpt lat="49.21045" lon="1.1725">
        <ele>18.200000762939</ele>
        <time>2018-10-27T13:40:00Z</time>
      </trkpt>
      <trkpt lat="49.21041" lon="1.1722">
        <ele>18.39999961853</ele>
        <time>2018-10-27T13:40:03Z</time>
      </trkpt>
      <trkpt lat="49.21032" lon="1.17166">
        <ele>19</ele>
        <time>2018-10-27T13:40:10Z</time>
      </trkpt>
      <trkpt lat="49.21031" lon="1.17159">
        <ele>19.200000762939</ele>
        <time>2018-10-27T13:40:18Z</time>
      </trkpt>
      <trkpt lat="49.21024" lon="1.17115">
        <ele>19.39999961853</ele>
        <time>2018-10-27T13:40:27Z</time>
      </trkpt>
      <trkpt lat="49.21024" lon="1.17108">
        <ele>19.799999237061</ele>
        <time>2018-10-27T13:40:37Z</time>
      </trkpt>
      <trkpt lat="49.21024" lon="1.17092">
        <ele>19.799999237061</ele>
        <time>2018-10-27T13:40:46Z</time>
      </trkpt>
      <trkpt lat="49.21024" lon="1.17075">
        <ele>19.60000038147</ele>
        <time>2018-10-27T13:40:55Z</time>
      </trkpt>
      <trkpt lat="49.21023" lon="1.17067">
        <ele>19.39999961853</ele>
        <time>2018-10-27T13:41:02Z</time>
      </trkpt>
      <trkpt lat="49.21022" lon="1.17059">
        <ele>20</ele>
        <time>2018-10-27T13:41:06Z</time>
      </trkpt>
      <trkpt lat="49.21019" lon="1.17044">
        <ele>20.60000038147</ele>
        <time>2018-10-27T13:41:12Z</time>
      </trkpt>
      <trkpt lat="49.21016" lon="1.17017">
        <ele>21.60000038147</ele>
        <time>2018-10-27T13:41:17Z</time>
      </trkpt>
      <trkpt lat="49.21016" lon="1.17004">
        <ele>21.60000038147</ele>
        <time>2018-10-27T13:41:21Z</time>
      </trkpt>
      <trkpt lat="49.21014" lon="1.16974">
        <ele>22.200000762939</ele>
        <time>2018-10-27T13:41:26Z</time>
      </trkpt>
      <trkpt lat="49.21014" lon="1.16956">
        <ele>22.799999237061</ele>
        <time>2018-10-27T13:41:31Z</time>
      </trkpt>
      <trkpt lat="49.21014" lon="1.16921">
        <ele>23.799999237061</ele>
        <time>2018-10-27T13:41:35Z</time>
      </trkpt>
      <trkpt lat="49.21014" lon="1.16915">
        <ele>23.799999237061</ele>
        <time>2018-10-27T13:41:41Z</time>
      </trkpt>
      <trkpt lat="49.21011" lon="1.1688">
        <ele>24.39999961853</ele>
        <time>2018-10-27T13:41:46Z</time>
      </trkpt>
      <trkpt lat="49.2101" lon="1.16849">
        <ele>24.799999237061</ele>
        <time>2018-10-27T13:41:49Z</time>
      </trkpt>
      <trkpt lat="49.21009" lon="1.16826">
        <ele>25</ele>
        <time>2018-10-27T13:41:55Z</time>
      </trkpt>
      <trkpt lat="49.21008" lon="1.168">
        <ele>25.39999961853</ele>
        <time>2018-10-27T13:41:59Z</time>
      </trkpt>
      <trkpt lat="49.21007" lon="1.16781">
        <ele>25.39999961853</ele>
        <time>2018-10-27T13:42:18Z</time>
      </trkpt>
      <trkpt lat="49.21006" lon="1.16753">
        <ele>25.200000762939</ele>
        <time>2018-10-27T13:42:20Z</time>
      </trkpt>
      <trkpt lat="49.21004" lon="1.16733">
        <ele>25.200000762939</ele>
        <time>2018-10-27T13:42:21Z</time>
      </trkpt>
      <trkpt lat="49.21004" lon="1.16727">
        <ele>25.200000762939</ele>
        <time>2018-10-27T13:42:28Z</time>
      </trkpt>
      <trkpt lat="49.21004" lon="1.16711">
        <ele>25.60000038147</ele>
        <time>2018-10-27T13:42:29Z</time>
      </trkpt>
      <trkpt lat="49.21002" lon="1.16702">
        <ele>25.200000762939</ele>
        <time>2018-10-27T13:42:36Z</time>
      </trkpt>
      <trkpt lat="49.21001" lon="1.16699">
        <ele>25.200000762939</ele>
        <time>2018-10-27T13:42:38Z</time>
      </trkpt>
      <trkpt lat="49.20991" lon="1.16691">
        <ele>25.200000762939</ele>
        <time>2018-10-27T13:42:44Z</time>
      </trkpt>
      <trkpt lat="49.20976" lon="1.16688">
        <ele>25.60000038147</ele>
        <time>2018-10-27T13:42:45Z</time>
      </trkpt>
      <trkpt lat="49.2096" lon="1.16687">
        <ele>26</ele>
        <time>2018-10-27T13:42:51Z</time>
      </trkpt>
      <trkpt lat="49.20953" lon="1.16686">
        <ele>26</ele>
        <time>2018-10-27T13:42:53Z</time>
      </trkpt>
      <trkpt lat="49.20931" lon="1.16686">
        <ele>26.39999961853</ele>
        <time>2018-10-27T13:42:59Z</time>
      </trkpt>
      <trkpt lat="49.20906" lon="1.16684">
        <ele>26.799999237061</ele>
        <time>2018-10-27T13:43:00Z</time>
      </trkpt>
      <trkpt lat="49.209" lon="1.16684">
        <ele>27</ele>
        <time>2018-10-27T13:43:07Z</time>
      </trkpt>
      <trkpt lat="49.20882" lon="1.16683">
        <ele>27.200000762939</ele>
        <time>2018-10-27T13:43:08Z</time>
      </trkpt>
      <trkpt lat="49.20854" lon="1.16684">
        <ele>27.799999237061</ele>
        <time>2018-10-27T13:43:14Z</time>
      </trkpt>
      <trkpt lat="49.20834" lon="1.16682">
        <ele>28</ele>
        <time>2018-10-27T13:43:16Z</time>
      </trkpt>
      <trkpt lat="49.20829" lon="1.16681">
        <ele>28</ele>
        <time>2018-10-27T13:43:21Z</time>
      </trkpt>
      <trkpt lat="49.20811" lon="1.16676">
        <ele>28.200000762939</ele>
        <time>2018-10-27T13:43:24Z</time>
      </trkpt>
      <trkpt lat="49.2078" lon="1.16677">
        <ele>28.799999237061</ele>
        <time>2018-10-27T13:43:29Z</time>
      </trkpt>
      <trkpt lat="49.20773" lon="1.16677">
        <ele>29.200000762939</ele>
        <time>2018-10-27T13:43:34Z</time>
      </trkpt>
      <trkpt lat="49.20755" lon="1.16678">
        <ele>29.200000762939</ele>
        <time>2018-10-27T13:43:37Z</time>
      </trkpt>
      <trkpt lat="49.20742" lon="1.16679">
        <ele>29.799999237061</ele>
        <time>2018-10-27T13:43:42Z</time>
      </trkpt>
      <trkpt lat="49.2073" lon="1.16681">
        <ele>30.200000762939</ele>
        <time>2018-10-27T13:43:44Z</time>
      </trkpt>
      <trkpt lat="49.2072" lon="1.16682">
        <ele>30.39999961853</ele>
        <time>2018-10-27T13:43:52Z</time>
      </trkpt>
      <trkpt lat="49.20701" lon="1.16687">
        <ele>31.200000762939</ele>
        <time>2018-10-27T13:43:53Z</time>
      </trkpt>
      <trkpt lat="49.20698" lon="1.16688">
        <ele>31.200000762939</ele>
        <time>2018-10-27T13:44:00Z</time>
      </trkpt>
      <trkpt lat="49.20676" lon="1.16697">
        <ele>32.200000762939</ele>
        <time>2018-10-27T13:44:01Z</time>
      </trkpt>
      <trkpt lat="49.20673" lon="1.16699">
        <ele>32.400001525879</ele>
        <time>2018-10-27T13:44:08Z</time>
      </trkpt>
      <trkpt lat="49.20651" lon="1.16711">
        <ele>33.200000762939</ele>
        <time>2018-10-27T13:44:09Z</time>
      </trkpt>
      <trkpt lat="49.20648" lon="1.16712">
        <ele>33.400001525879</ele>
        <time>2018-10-27T13:44:15Z</time>
      </trkpt>
      <trkpt lat="49.20621" lon="1.1672">
        <ele>34.400001525879</ele>
        <time>2018-10-27T13:44:16Z</time>
      </trkpt>
      <trkpt lat="49.20597" lon="1.1673">
        <ele>35.599998474121</ele>
        <time>2018-10-27T13:44:23Z</time>
      </trkpt>
      <trkpt lat="49.20593" lon="1.16731">
        <ele>35.599998474121</ele>
        <time>2018-10-27T13:44:24Z</time>
      </trkpt>
      <trkpt lat="49.20574" lon="1.1674">
        <ele>36.599998474121</ele>
        <time>2018-10-27T13:44:29Z</time>
      </trkpt>
      <trkpt lat="49.20571" lon="1.16742">
        <ele>37</ele>
        <time>2018-10-27T13:44:32Z</time>
      </trkpt>
      <trkpt lat="49.20551" lon="1.16745">
        <ele>37.799999237061</ele>
        <time>2018-10-27T13:44:34Z</time>
      </trkpt>
      <trkpt lat="49.20523" lon="1.16757">
        <ele>38.799999237061</ele>
        <time>2018-10-27T13:44:39Z</time>
      </trkpt>
      <trkpt lat="49.20497" lon="1.16768">
        <ele>39.799999237061</ele>
        <time>2018-10-27T13:44:40Z</time>
      </trkpt>
      <trkpt lat="49.20489" lon="1.1677">
        <ele>40.599998474121</ele>
        <time>2018-10-27T13:44:45Z</time>
      </trkpt>
      <trkpt lat="49.20487" lon="1.16766">
        <ele>40.599998474121</ele>
        <time>2018-10-27T13:44:47Z</time>
      </trkpt>
      <trkpt lat="49.20487" lon="1.16758">
        <ele>41</ele>
        <time>2018-10-27T13:45:15Z</time>
      </trkpt>
      <trkpt lat="49.20489" lon="1.16746">
        <ele>41</ele>
        <time>2018-10-27T13:45:18Z</time>
      </trkpt>
      <trkpt lat="49.20495" lon="1.1671">
        <ele>41.200000762939</ele>
        <time>2018-10-27T13:45:20Z</time>
      </trkpt>
      <trkpt lat="49.20501" lon="1.16666">
        <ele>41</ele>
        <time>2018-10-27T13:45:23Z</time>
      </trkpt>
      <trkpt lat="49.20508" lon="1.16626">
        <ele>42</ele>
        <time>2018-10-27T13:45:25Z</time>
      </trkpt>
      <trkpt lat="49.20508" lon="1.1662">
        <ele>42.200000762939</ele>
        <time>2018-10-27T13:45:29Z</time>
      </trkpt>
      <trkpt lat="49.20517" lon="1.1657">
        <ele>41.799999237061</ele>
        <time>2018-10-27T13:45:41Z</time>
      </trkpt>
      <trkpt lat="49.20522" lon="1.16521">
        <ele>41.599998474121</ele>
        <time>2018-10-27T13:45:44Z</time>
      </trkpt>
      <trkpt lat="49.20523" lon="1.16514">
        <ele>41.599998474121</ele>
        <time>2018-10-27T13:45:51Z</time>
      </trkpt>
      <trkpt lat="49.20525" lon="1.16495">
        <ele>41.799999237061</ele>
        <time>2018-10-27T13:45:53Z</time>
      </trkpt>
      <trkpt lat="49.20527" lon="1.16483">
        <ele>41.799999237061</ele>
        <time>2018-10-27T13:45:56Z</time>
      </trkpt>
      <trkpt lat="49.20521" lon="1.16468">
        <ele>41.599998474121</ele>
        <time>2018-10-27T13:45:58Z</time>
      </trkpt>
      <trkpt lat="49.20506" lon="1.16462">
        <ele>42</ele>
        <time>2018-10-27T13:46:05Z</time>
      </trkpt>
      <trkpt lat="49.20502" lon="1.16461">
        <ele>42.200000762939</ele>
        <time>2018-10-27T13:46:06Z</time>
      </trkpt>
      <trkpt lat="49.20484" lon="1.16457">
        <ele>43</ele>
        <time>2018-10-27T13:46:36Z</time>
      </trkpt>
      <trkpt lat="49.20476" lon="1.16455">
        <ele>43.599998474121</ele>
        <time>2018-10-27T13:46:39Z</time>
      </trkpt>
      <trkpt lat="49.20472" lon="1.16452">
        <ele>43.599998474121</ele>
        <time>2018-10-27T13:46:41Z</time>
      </trkpt>
      <trkpt lat="49.2046" lon="1.16448">
        <ele>44</ele>
        <time>2018-10-27T13:46:46Z</time>
      </trkpt>
      <trkpt lat="49.20456" lon="1.16447">
        <ele>44.200000762939</ele>
        <time>2018-10-27T13:46:53Z</time>
      </trkpt>
      <trkpt lat="49.20447" lon="1.16444">
        <ele>44.599998474121</ele>
        <time>2018-10-27T13:46:58Z</time>
      </trkpt>
      <trkpt lat="49.2042" lon="1.16438">
        <ele>45.200000762939</ele>
        <time>2018-10-27T13:47:04Z</time>
      </trkpt>
      <trkpt lat="49.20402" lon="1.16434">
        <ele>45.599998474121</ele>
        <time>2018-10-27T13:47:08Z</time>
      </trkpt>
      <trkpt lat="49.20362" lon="1.16427">
        <ele>45.799999237061</ele>
        <time>2018-10-27T13:47:09Z</time>
      </trkpt>
      <trkpt lat="49.20317" lon="1.16421">
        <ele>45.200000762939</ele>
        <time>2018-10-27T13:47:12Z</time>
      </trkpt>
      <trkpt lat="49.2028" lon="1.16415">
        <ele>44.599998474121</ele>
        <time>2018-10-27T13:47:13Z</time>
      </trkpt>
      <trkpt lat="49.20275" lon="1.16413">
        <ele>44.400001525879</ele>
        <time>2018-10-27T13:47:15Z</time>
      </trkpt>
      <trkpt lat="49.20256" lon="1.16408">
        <ele>44.400001525879</ele>
        <time>2018-10-27T13:47:17Z</time>
      </trkpt>
      <trkpt lat="49.20215" lon="1.16395">
        <ele>44</ele>
        <time>2018-10-27T13:47:18Z</time>
      </trkpt>
      <trkpt lat="49.20159" lon="1.16371">
        <ele>43.799999237061</ele>
        <time>2018-10-27T13:47:19Z</time>
      </trkpt>
      <trkpt lat="49.20103" lon="1.16338">
        <ele>43.799999237061</ele>
        <time>2018-10-27T13:47:22Z</time>
      </trkpt>
      <trkpt lat="49.20054" lon="1.16306">
        <ele>43.400001525879</ele>
        <time>2018-10-27T13:47:24Z</time>
      </trkpt>
      <trkpt lat="49.20043" lon="1.16298">
        <ele>43.400001525879</ele>
        <time>2018-10-27T13:47:27Z</time>
      </trkpt>
      <trkpt lat="49.19995" lon="1.16266">
        <ele>43.200000762939</ele>
        <time>2018-10-27T13:47:29Z</time>
      </trkpt>
      <trkpt lat="49.19943" lon="1.16235">
        <ele>43.400001525879</ele>
        <time>2018-10-27T13:47:31Z</time>
      </trkpt>
      <trkpt lat="49.19938" lon="1.16232">
        <ele>43.400001525879</ele>
        <time>2018-10-27T13:47:32Z</time>
      </trkpt>
      <trkpt lat="49.19895" lon="1.16211">
        <ele>43</ele>
        <time>2018-10-27T13:47:35Z</time>
      </trkpt>
      <trkpt lat="49.19868" lon="1.16198">
        <ele>43</ele>
        <time>2018-10-27T13:47:36Z</time>
      </trkpt>
      <trkpt lat="49.19851" lon="1.16191">
        <ele>43</ele>
        <time>2018-10-27T13:47:38Z</time>
      </trkpt>
      <trkpt lat="49.19794" lon="1.16166">
        <ele>42.599998474121</ele>
        <time>2018-10-27T13:47:39Z</time>
      </trkpt>
      <trkpt lat="49.19744" lon="1.16142">
        <ele>42.400001525879</ele>
        <time>2018-10-27T13:47:41Z</time>
      </trkpt>
      <trkpt lat="49.19696" lon="1.1612">
        <ele>42.599998474121</ele>
        <time>2018-10-27T13:47:42Z</time>
      </trkpt>
      <trkpt lat="49.19677" lon="1.1611">
        <ele>42.799999237061</ele>
        <time>2018-10-27T13:47:43Z</time>
      </trkpt>
      <trkpt lat="49.19663" lon="1.16102">
        <ele>42.599998474121</ele>
        <time>2018-10-27T13:47:45Z</time>
      </trkpt>
      <trkpt lat="49.19638" lon="1.16098">
        <ele>43</ele>
        <time>2018-10-27T13:47:46Z</time>
      </trkpt>
      <trkpt lat="49.19607" lon="1.16092">
        <ele>43.200000762939</ele>
        <time>2018-10-27T13:47:47Z</time>
      </trkpt>
      <trkpt lat="49.19574" lon="1.16083">
        <ele>43.200000762939</ele>
        <time>2018-10-27T13:47:48Z</time>
      </trkpt>
      <trkpt lat="49.19539" lon="1.16074">
        <ele>43.599998474121</ele>
        <time>2018-10-27T13:47:49Z</time>
      </trkpt>
      <trkpt lat="49.19506" lon="1.16068">
        <ele>43.599998474121</ele>
        <time>2018-10-27T13:47:50Z</time>
      </trkpt>
      <trkpt lat="49.19497" lon="1.16065">
        <ele>44</ele>
        <time>2018-10-27T13:47:51Z</time>
      </trkpt>
      <trkpt lat="49.1949" lon="1.16064">
        <ele>44.200000762939</ele>
        <time>2018-10-27T13:47:52Z</time>
      </trkpt>
      <trkpt lat="49.19469" lon="1.16062">
        <ele>44</ele>
        <time>2018-10-27T13:47:53Z</time>
      </trkpt>
      <trkpt lat="49.19442" lon="1.16058">
        <ele>44.400001525879</ele>
        <time>2018-10-27T13:47:54Z</time>
      </trkpt>
      <trkpt lat="49.19413" lon="1.16055">
        <ele>45</ele>
        <time>2018-10-27T13:47:55Z</time>
      </trkpt>
      <trkpt lat="49.1938" lon="1.16051">
        <ele>45.599998474121</ele>
        <time>2018-10-27T13:47:56Z</time>
      </trkpt>
      <trkpt lat="49.19354" lon="1.16049">
        <ele>46.200000762939</ele>
        <time>2018-10-27T13:47:57Z</time>
      </trkpt>
      <trkpt lat="49.19328" lon="1.16046">
        <ele>46.799999237061</ele>
        <time>2018-10-27T13:47:58Z</time>
      </trkpt>
      <trkpt lat="49.19307" lon="1.16044">
        <ele>47.200000762939</ele>
        <time>2018-10-27T13:47:59Z</time>
      </trkpt>
      <trkpt lat="49.19296" lon="1.16043">
        <ele>47.599998474121</ele>
        <time>2018-10-27T13:48:00Z</time>
      </trkpt>
      <trkpt lat="49.19279" lon="1.16041">
        <ele>48.200000762939</ele>
        <time>2018-10-27T13:48:02Z</time>
      </trkpt>
      <trkpt lat="49.19266" lon="1.16039">
        <ele>49</ele>
        <time>2018-10-27T13:48:03Z</time>
      </trkpt>
      <trkpt lat="49.19254" lon="1.16038">
        <ele>49.400001525879</ele>
        <time>2018-10-27T13:48:04Z</time>
      </trkpt>
      <trkpt lat="49.1924" lon="1.16038">
        <ele>50</ele>
        <time>2018-10-27T13:48:06Z</time>
      </trkpt>
      <trkpt lat="49.19228" lon="1.16037">
        <ele>50.599998474121</ele>
        <time>2018-10-27T13:48:07Z</time>
      </trkpt>
      <trkpt lat="49.19217" lon="1.16035">
        <ele>50.799999237061</ele>
        <time>2018-10-27T13:48:08Z</time>
      </trkpt>
      <trkpt lat="49.19201" lon="1.16034">
        <ele>51.799999237061</ele>
        <time>2018-10-27T13:48:09Z</time>
      </trkpt>
      <trkpt lat="49.19188" lon="1.16033">
        <ele>52.599998474121</ele>
        <time>2018-10-27T13:48:10Z</time>
      </trkpt>
      <trkpt lat="49.19181" lon="1.16032">
        <ele>52.799999237061</ele>
        <time>2018-10-27T13:48:11Z</time>
      </trkpt>
      <trkpt lat="49.19165" lon="1.1603">
        <ele>53.799999237061</ele>
        <time>2018-10-27T13:48:13Z</time>
      </trkpt>
      <trkpt lat="49.1916" lon="1.1603">
        <ele>54.400001525879</ele>
        <time>2018-10-27T13:48:15Z</time>
      </trkpt>
      <trkpt lat="49.19155" lon="1.16029">
        <ele>54.599998474121</ele>
        <time>2018-10-27T13:48:17Z</time>
      </trkpt>
      <trkpt lat="49.19152" lon="1.16029">
        <ele>54.799999237061</ele>
        <time>2018-10-27T13:48:19Z</time>
      </trkpt>
      <trkpt lat="49.1915" lon="1.16029">
        <ele>55</ele>
        <time>2018-10-27T13:48:24Z</time>
      </trkpt>
      <trkpt lat="49.19135" lon="1.16027">
        <ele>55.799999237061</ele>
        <time>2018-10-27T13:48:28Z</time>
      </trkpt>
      <trkpt lat="49.19132" lon="1.16026">
        <ele>56</ele>
        <time>2018-10-27T13:48:33Z</time>
      </trkpt>
      <trkpt lat="49.19116" lon="1.16023">
        <ele>56.599998474121</ele>
        <time>2018-10-27T13:48:38Z</time>
      </trkpt>
      <trkpt lat="49.19112" lon="1.16023">
        <ele>57</ele>
        <time>2018-10-27T13:48:42Z</time>
      </trkpt>
      <trkpt lat="49.19099" lon="1.16022">
        <ele>58</ele>
        <time>2018-10-27T13:48:43Z</time>
      </trkpt>
      <trkpt lat="49.19097" lon="1.16022">
        <ele>58</ele>
        <time>2018-10-27T13:48:47Z</time>
      </trkpt>
      <trkpt lat="49.19084" lon="1.1602">
        <ele>58.799999237061</ele>
        <time>2018-10-27T13:48:48Z</time>
      </trkpt>
      <trkpt lat="49.19079" lon="1.1602">
        <ele>59.200000762939</ele>
        <time>2018-10-27T13:48:53Z</time>
      </trkpt>
      <trkpt lat="49.19067" lon="1.1602">
        <ele>60</ele>
        <time>2018-10-27T13:48:55Z</time>
      </trkpt>
      <trkpt lat="49.19065" lon="1.1602">
        <ele>60.200000762939</ele>
        <time>2018-10-27T13:48:57Z</time>
      </trkpt>
      <trkpt lat="49.1905" lon="1.16019">
        <ele>61.200000762939</ele>
        <time>2018-10-27T13:48:59Z</time>
      </trkpt>
      <trkpt lat="49.19048" lon="1.16019">
        <ele>61.400001525879</ele>
        <time>2018-10-27T13:49:02Z</time>
      </trkpt>
      <trkpt lat="49.19037" lon="1.16016">
        <ele>62.200000762939</ele>
        <time>2018-10-27T13:49:06Z</time>
      </trkpt>
      <trkpt lat="49.19033" lon="1.16015">
        <ele>62.400001525879</ele>
        <time>2018-10-27T13:49:07Z</time>
      </trkpt>
      <trkpt lat="49.19023" lon="1.16013">
        <ele>62.799999237061</ele>
        <time>2018-10-27T13:49:12Z</time>
      </trkpt>
      <trkpt lat="49.19017" lon="1.16012">
        <ele>63.400001525879</ele>
        <time>2018-10-27T13:49:16Z</time>
      </trkpt>
      <trkpt lat="49.19008" lon="1.16012">
        <ele>64</ele>
        <time>2018-10-27T13:49:17Z</time>
      </trkpt>
      <trkpt lat="49.18999" lon="1.1601">
        <ele>64.599998474121</ele>
        <time>2018-10-27T13:49:25Z</time>
      </trkpt>
      <trkpt lat="49.18993" lon="1.16009">
        <ele>65</ele>
        <time>2018-10-27T13:49:28Z</time>
      </trkpt>
      <trkpt lat="49.18985" lon="1.16008">
        <ele>65.599998474121</ele>
        <time>2018-10-27T13:49:30Z</time>
      </trkpt>
      <trkpt lat="49.18981" lon="1.16008">
        <ele>65.800003051758</ele>
        <time>2018-10-27T13:49:35Z</time>
      </trkpt>
      <trkpt lat="49.18969" lon="1.16006">
        <ele>66.599998474121</ele>
        <time>2018-10-27T13:49:39Z</time>
      </trkpt>
      <trkpt lat="49.18967" lon="1.16006">
        <ele>66.599998474121</ele>
        <time>2018-10-27T13:49:44Z</time>
      </trkpt>
      <trkpt lat="49.18956" lon="1.16005">
        <ele>67.800003051758</ele>
        <time>2018-10-27T13:49:49Z</time>
      </trkpt>
      <trkpt lat="49.18954" lon="1.16005">
        <ele>68</ele>
        <time>2018-10-27T13:49:54Z</time>
      </trkpt>
      <trkpt lat="49.18944" lon="1.16004">
        <ele>68.800003051758</ele>
        <time>2018-10-27T13:49:55Z</time>
      </trkpt>
      <trkpt lat="49.18942" lon="1.16004">
        <ele>69</ele>
        <time>2018-10-27T13:49:58Z</time>
      </trkpt>
      <trkpt lat="49.18932" lon="1.16005">
        <ele>69.800003051758</ele>
        <time>2018-10-27T13:50:02Z</time>
      </trkpt>
      <trkpt lat="49.18931" lon="1.16005">
        <ele>70</ele>
        <time>2018-10-27T13:50:04Z</time>
      </trkpt>
      <trkpt lat="49.18921" lon="1.16002">
        <ele>71</ele>
        <time>2018-10-27T13:50:10Z</time>
      </trkpt>
      <trkpt lat="49.18919" lon="1.16002">
        <ele>71.199996948242</ele>
        <time>2018-10-27T13:50:15Z</time>
      </trkpt>
      <trkpt lat="49.18911" lon="1.16001">
        <ele>72.199996948242</ele>
        <time>2018-10-27T13:50:17Z</time>
      </trkpt>
      <trkpt lat="49.18906" lon="1.16001">
        <ele>72.800003051758</ele>
        <time>2018-10-27T13:50:23Z</time>
      </trkpt>
      <trkpt lat="49.18904" lon="1.16">
        <ele>73.199996948242</ele>
        <time>2018-10-27T13:50:24Z</time>
      </trkpt>
      <trkpt lat="49.18897" lon="1.15999">
        <ele>74</ele>
        <time>2018-10-27T13:50:28Z</time>
      </trkpt>
      <trkpt lat="49.18895" lon="1.15999">
        <ele>74.199996948242</ele>
        <time>2018-10-27T13:50:34Z</time>
      </trkpt>
      <trkpt lat="49.18888" lon="1.15997">
        <ele>75.199996948242</ele>
        <time>2018-10-27T13:50:40Z</time>
      </trkpt>
      <trkpt lat="49.18885" lon="1.15997">
        <ele>75.800003051758</ele>
        <time>2018-10-27T13:50:43Z</time>
      </trkpt>
      <trkpt lat="49.18847" lon="1.15974">
        <ele>80.800003051758</ele>
        <time>2018-10-27T13:50:45Z</time>
      </trkpt>
      <trkpt lat="49.18842" lon="1.1597">
        <ele>81.199996948242</ele>
        <time>2018-10-27T13:50:51Z</time>
      </trkpt>
      <trkpt lat="49.18838" lon="1.15969">
        <ele>81.800003051758</ele>
        <time>2018-10-27T13:50:55Z</time>
      </trkpt>
      <trkpt lat="49.18833" lon="1.15966">
        <ele>82.400001525879</ele>
        <time>2018-10-27T13:50:57Z</time>
      </trkpt>
      <trkpt lat="49.18829" lon="1.15963">
        <ele>82.800003051758</ele>
        <time>2018-10-27T13:51:00Z</time>
      </trkpt>
      <trkpt lat="49.18825" lon="1.15959">
        <ele>83.599998474121</ele>
        <time>2018-10-27T13:51:01Z</time>
      </trkpt>
      <trkpt lat="49.18813" lon="1.15942">
        <ele>85.599998474121</ele>
        <time>2018-10-27T13:51:02Z</time>
      </trkpt>
      <trkpt lat="49.1881" lon="1.15938">
        <ele>86.199996948242</ele>
        <time>2018-10-27T13:51:06Z</time>
      </trkpt>
      <trkpt lat="49.18801" lon="1.15927">
        <ele>87</ele>
        <time>2018-10-27T13:51:07Z</time>
      </trkpt>
      <trkpt lat="49.18796" lon="1.15923">
        <ele>87.199996948242</ele>
        <time>2018-10-27T13:51:11Z</time>
      </trkpt>
      <trkpt lat="49.18788" lon="1.15917">
        <ele>87.800003051758</ele>
        <time>2018-10-27T13:51:16Z</time>
      </trkpt>
      <trkpt lat="49.18785" lon="1.15914">
        <ele>88</ele>
        <time>2018-10-27T13:51:17Z</time>
      </trkpt>
      <trkpt lat="49.18773" lon="1.15902">
        <ele>88.800003051758</ele>
        <time>2018-10-27T13:51:21Z</time>
      </trkpt>
      <trkpt lat="49.18772" lon="1.15901">
        <ele>89</ele>
        <time>2018-10-27T13:51:24Z</time>
      </trkpt>
      <trkpt lat="49.1876" lon="1.1589">
        <ele>89.599998474121</ele>
        <time>2018-10-27T13:51:26Z</time>
      </trkpt>
      <trkpt lat="49.18754" lon="1.15887">
        <ele>89.800003051758</ele>
        <time>2018-10-27T13:51:27Z</time>
      </trkpt>
      <trkpt lat="49.1875" lon="1.15886">
        <ele>89.800003051758</ele>
        <time>2018-10-27T13:51:28Z</time>
      </trkpt>
      <trkpt lat="49.1874" lon="1.1588">
        <ele>90.199996948242</ele>
        <time>2018-10-27T13:51:30Z</time>
      </trkpt>
      <trkpt lat="49.18723" lon="1.1587">
        <ele>89.599998474121</ele>
        <time>2018-10-27T13:51:31Z</time>
      </trkpt>
      <trkpt lat="49.18704" lon="1.15855">
        <ele>88.599998474121</ele>
        <time>2018-10-27T13:51:35Z</time>
      </trkpt>
      <trkpt lat="49.18683" lon="1.15832">
        <ele>87.800003051758</ele>
        <time>2018-10-27T13:51:36Z</time>
      </trkpt>
      <trkpt lat="49.18669" lon="1.15818">
        <ele>87.599998474121</ele>
        <time>2018-10-27T13:51:41Z</time>
      </trkpt>
      <trkpt lat="49.18664" lon="1.15816">
        <ele>87</ele>
        <time>2018-10-27T13:51:42Z</time>
      </trkpt>
      <trkpt lat="49.18651" lon="1.15812">
        <ele>86.400001525879</ele>
        <time>2018-10-27T13:51:47Z</time>
      </trkpt>
      <trkpt lat="49.18647" lon="1.1581">
        <ele>86.199996948242</ele>
        <time>2018-10-27T13:51:54Z</time>
      </trkpt>
      <trkpt lat="49.18638" lon="1.15804">
        <ele>85.199996948242</ele>
        <time>2018-10-27T13:51:58Z</time>
      </trkpt>
      <trkpt lat="49.18628" lon="1.15796">
        <ele>84.199996948242</ele>
        <time>2018-10-27T13:52:02Z</time>
      </trkpt>
      <trkpt lat="49.18623" lon="1.15791">
        <ele>83.599998474121</ele>
        <time>2018-10-27T13:52:03Z</time>
      </trkpt>
      <trkpt lat="49.18618" lon="1.15787">
        <ele>83</ele>
        <time>2018-10-27T13:52:05Z</time>
      </trkpt>
      <trkpt lat="49.18601" lon="1.15772">
        <ele>82</ele>
        <time>2018-10-27T13:52:07Z</time>
      </trkpt>
      <trkpt lat="49.1859" lon="1.1576">
        <ele>81.599998474121</ele>
        <time>2018-10-27T13:52:09Z</time>
      </trkpt>
      <trkpt lat="49.18575" lon="1.15743">
        <ele>80.800003051758</ele>
        <time>2018-10-27T13:52:12Z</time>
      </trkpt>
      <trkpt lat="49.18565" lon="1.15733">
        <ele>80.400001525879</ele>
        <time>2018-10-27T13:52:18Z</time>
      </trkpt>
      <trkpt lat="49.18557" lon="1.15724">
        <ele>79.599998474121</ele>
        <time>2018-10-27T13:52:20Z</time>
      </trkpt>
      <trkpt lat="49.18551" lon="1.15719">
        <ele>78.199996948242</ele>
        <time>2018-10-27T13:52:21Z</time>
      </trkpt>
      <trkpt lat="49.18538" lon="1.15707">
        <ele>77.199996948242</ele>
        <time>2018-10-27T13:52:23Z</time>
      </trkpt>
      <trkpt lat="49.18534" lon="1.15702">
        <ele>76.400001525879</ele>
        <time>2018-10-27T13:52:25Z</time>
      </trkpt>
      <trkpt lat="49.18527" lon="1.15693">
        <ele>75.400001525879</ele>
        <time>2018-10-27T13:52:29Z</time>
      </trkpt>
      <trkpt lat="49.18524" lon="1.15691">
        <ele>75.199996948242</ele>
        <time>2018-10-27T13:52:32Z</time>
      </trkpt>
      <trkpt lat="49.18519" lon="1.15687">
        <ele>74</ele>
        <time>2018-10-27T13:52:36Z</time>
      </trkpt>
      <trkpt lat="49.18517" lon="1.15686">
        <ele>73.400001525879</ele>
        <time>2018-10-27T13:52:42Z</time>
      </trkpt>
      <trkpt lat="49.18514" lon="1.15687">
        <ele>72.400001525879</ele>
        <time>2018-10-27T13:52:46Z</time>
      </trkpt>
      <trkpt lat="49.18509" lon="1.15688">
        <ele>70.400001525879</ele>
        <time>2018-10-27T13:52:47Z</time>
      </trkpt>
      <trkpt lat="49.18506" lon="1.15688">
        <ele>69.199996948242</ele>
        <time>2018-10-27T13:52:53Z</time>
      </trkpt>
      <trkpt lat="49.18503" lon="1.15689">
        <ele>67.800003051758</ele>
        <time>2018-10-27T13:52:56Z</time>
      </trkpt>
      <trkpt lat="49.185" lon="1.1569">
        <ele>66.199996948242</ele>
        <time>2018-10-27T13:52:57Z</time>
      </trkpt>
      <trkpt lat="49.18497" lon="1.15691">
        <ele>65</ele>
        <time>2018-10-27T13:52:58Z</time>
      </trkpt>
      <trkpt lat="49.18493" lon="1.15691">
        <ele>63.799999237061</ele>
        <time>2018-10-27T13:53:01Z</time>
      </trkpt>
      <trkpt lat="49.18488" lon="1.15692">
        <ele>62.599998474121</ele>
        <time>2018-10-27T13:53:03Z</time>
      </trkpt>
      <trkpt lat="49.18482" lon="1.15692">
        <ele>61.200000762939</ele>
        <time>2018-10-27T13:53:04Z</time>
      </trkpt>
      <trkpt lat="49.18475" lon="1.15693">
        <ele>60</ele>
        <time>2018-10-27T13:53:07Z</time>
      </trkpt>
      <trkpt lat="49.18467" lon="1.15694">
        <ele>58.799999237061</ele>
        <time>2018-10-27T13:53:08Z</time>
      </trkpt>
      <trkpt lat="49.18458" lon="1.15695">
        <ele>57.799999237061</ele>
        <time>2018-10-27T13:53:14Z</time>
      </trkpt>
      <trkpt lat="49.18448" lon="1.15697">
        <ele>55.599998474121</ele>
        <time>2018-10-27T13:53:17Z</time>
      </trkpt>
      <trkpt lat="49.18437" lon="1.15699">
        <ele>54.599998474121</ele>
        <time>2018-10-27T13:53:20Z</time>
      </trkpt>
      <trkpt lat="49.18427" lon="1.157">
        <ele>53.400001525879</ele>
        <time>2018-10-27T13:53:22Z</time>
      </trkpt>
      <trkpt lat="49.18417" lon="1.15702">
        <ele>52.400001525879</ele>
        <time>2018-10-27T13:53:25Z</time>
      </trkpt>
      <trkpt lat="49.18407" lon="1.15704">
        <ele>51.400001525879</ele>
        <time>2018-10-27T13:53:29Z</time>
      </trkpt>
      <trkpt lat="49.18387" lon="1.15706">
        <ele>49.799999237061</ele>
        <time>2018-10-27T13:53:32Z</time>
      </trkpt>
      <trkpt lat="49.18379" lon="1.15707">
        <ele>49.400001525879</ele>
        <time>2018-10-27T13:53:34Z</time>
      </trkpt>
      <trkpt lat="49.18371" lon="1.15708">
        <ele>48.599998474121</ele>
        <time>2018-10-27T13:53:39Z</time>
      </trkpt>
      <trkpt lat="49.18357" lon="1.15709">
        <ele>46.799999237061</ele>
        <time>2018-10-27T13:53:42Z</time>
      </trkpt>
      <trkpt lat="49.18348" lon="1.15709">
        <ele>45.599998474121</ele>
        <time>2018-10-27T13:53:46Z</time>
      </trkpt>
      <trkpt lat="49.1834" lon="1.1571">
        <ele>44.400001525879</ele>
        <time>2018-10-27T13:53:49Z</time>
      </trkpt>
      <trkpt lat="49.18332" lon="1.15711">
        <ele>43.200000762939</ele>
        <time>2018-10-27T13:53:53Z</time>
      </trkpt>
      <trkpt lat="49.18324" lon="1.15712">
        <ele>42.200000762939</ele>
        <time>2018-10-27T13:53:55Z</time>
      </trkpt>
      <trkpt lat="49.18315" lon="1.15713">
        <ele>41.200000762939</ele>
        <time>2018-10-27T13:54:01Z</time>
      </trkpt>
      <trkpt lat="49.18298" lon="1.15715">
        <ele>40.200000762939</ele>
        <time>2018-10-27T13:54:08Z</time>
      </trkpt>
      <trkpt lat="49.1828" lon="1.15716">
        <ele>38.799999237061</ele>
        <time>2018-10-27T13:54:10Z</time>
      </trkpt>
      <trkpt lat="49.18259" lon="1.15717">
        <ele>37.599998474121</ele>
        <time>2018-10-27T13:54:15Z</time>
      </trkpt>
      <trkpt lat="49.1824" lon="1.15716">
        <ele>37</ele>
        <time>2018-10-27T13:54:16Z</time>
      </trkpt>
      <trkpt lat="49.18202" lon="1.15708">
        <ele>37.599998474121</ele>
        <time>2018-10-27T13:54:22Z</time>
      </trkpt>
      <trkpt lat="49.18181" lon="1.15704">
        <ele>38.400001525879</ele>
        <time>2018-10-27T13:54:24Z</time>
      </trkpt>
      <trkpt lat="49.18154" lon="1.15708">
        <ele>36.799999237061</ele>
        <time>2018-10-27T13:54:29Z</time>
      </trkpt>
      <trkpt lat="49.18135" lon="1.15707">
        <ele>36.799999237061</ele>
        <time>2018-10-27T13:54:36Z</time>
      </trkpt>
      <trkpt lat="49.18119" lon="1.15707">
        <ele>36.400001525879</ele>
        <time>2018-10-27T13:54:37Z</time>
      </trkpt>
      <trkpt lat="49.18115" lon="1.15708">
        <ele>36</ele>
        <time>2018-10-27T13:54:45Z</time>
      </trkpt>
      <trkpt lat="49.18095" lon="1.15711">
        <ele>35.799999237061</ele>
        <time>2018-10-27T13:54:53Z</time>
      </trkpt>
      <trkpt lat="49.18091" lon="1.15711">
        <ele>35.799999237061</ele>
        <time>2018-10-27T13:54:59Z</time>
      </trkpt>
      <trkpt lat="49.18072" lon="1.15712">
        <ele>36.200000762939</ele>
        <time>2018-10-27T13:55:02Z</time>
      </trkpt>
      <trkpt lat="49.18067" lon="1.15708">
        <ele>36.400001525879</ele>
        <time>2018-10-27T13:55:03Z</time>
      </trkpt>
      <trkpt lat="49.18062" lon="1.15706">
        <ele>36.599998474121</ele>
        <time>2018-10-27T13:55:04Z</time>
      </trkpt>
      <trkpt lat="49.18057" lon="1.15705">
        <ele>36.599998474121</ele>
        <time>2018-10-27T13:55:06Z</time>
      </trkpt>
      <trkpt lat="49.18047" lon="1.15704">
        <ele>36.799999237061</ele>
        <time>2018-10-27T13:55:10Z</time>
      </trkpt>
      <trkpt lat="49.1803" lon="1.15702">
        <ele>36.799999237061</ele>
        <time>2018-10-27T13:55:18Z</time>
      </trkpt>
      <trkpt lat="49.18026" lon="1.15701">
        <ele>36.799999237061</ele>
        <time>2018-10-27T13:55:19Z</time>
      </trkpt>
      <trkpt lat="49.18008" lon="1.15695">
        <ele>37</ele>
        <time>2018-10-27T13:55:27Z</time>
      </trkpt>
      <trkpt lat="49.17994" lon="1.1569">
        <ele>37.400001525879</ele>
        <time>2018-10-27T13:55:35Z</time>
      </trkpt>
      <trkpt lat="49.17992" lon="1.1569">
        <ele>37.599998474121</ele>
        <time>2018-10-27T13:55:42Z</time>
      </trkpt>
      <trkpt lat="49.17986" lon="1.15698">
        <ele>37.599998474121</ele>
        <time>2018-10-27T13:55:43Z</time>
      </trkpt>
      <trkpt lat="49.17986" lon="1.15704">
        <ele>37.799999237061</ele>
        <time>2018-10-27T13:55:47Z</time>
      </trkpt>
      <trkpt lat="49.17988" lon="1.15707">
        <ele>37.799999237061</ele>
        <time>2018-10-27T13:55:48Z</time>
      </trkpt>
      <trkpt lat="49.18001" lon="1.15714">
        <ele>37.799999237061</ele>
        <time>2018-10-27T13:55:56Z</time>
      </trkpt>
      <trkpt lat="49.18012" lon="1.15718">
        <ele>37.799999237061</ele>
        <time>2018-10-27T13:56:03Z</time>
      </trkpt>
      <trkpt lat="49.18027" lon="1.15722">
        <ele>37.200000762939</ele>
        <time>2018-10-27T13:56:13Z</time>
      </trkpt>
      <trkpt lat="49.18042" lon="1.15725">
        <ele>37.400001525879</ele>
        <time>2018-10-27T13:56:14Z</time>
      </trkpt>
      <trkpt lat="49.18064" lon="1.15726">
        <ele>37</ele>
        <time>2018-10-27T13:56:19Z</time>
      </trkpt>
      <trkpt lat="49.18069" lon="1.15726">
        <ele>36.799999237061</ele>
        <time>2018-10-27T13:56:28Z</time>
      </trkpt>
      <trkpt lat="49.18079" lon="1.15728">
        <ele>36.799999237061</ele>
        <time>2018-10-27T13:56:29Z</time>
      </trkpt>
      <trkpt lat="49.18094" lon="1.15731">
        <ele>36.400001525879</ele>
        <time>2018-10-27T13:56:34Z</time>
      </trkpt>
      <trkpt lat="49.18104" lon="1.15733">
        <ele>36.200000762939</ele>
        <time>2018-10-27T13:56:40Z</time>
      </trkpt>
      <trkpt lat="49.18128" lon="1.15741">
        <ele>36.200000762939</ele>
        <time>2018-10-27T13:56:44Z</time>
      </trkpt>
      <trkpt lat="49.18151" lon="1.15752">
        <ele>35.400001525879</ele>
        <time>2018-10-27T13:56:50Z</time>
      </trkpt>
      <trkpt lat="49.18159" lon="1.15755">
        <ele>35.599998474121</ele>
        <time>2018-10-27T13:56:57Z</time>
      </trkpt>
      <trkpt lat="49.18185" lon="1.15769">
        <ele>35.400001525879</ele>
        <time>2018-10-27T13:56:58Z</time>
      </trkpt>
      <trkpt lat="49.1819" lon="1.1577">
        <ele>35.400001525879</ele>
        <time>2018-10-27T13:57:06Z</time>
      </trkpt>
      <trkpt lat="49.1821" lon="1.15776">
        <ele>35.200000762939</ele>
        <time>2018-10-27T13:57:10Z</time>
      </trkpt>
      <trkpt lat="49.18238" lon="1.15784">
        <ele>35.200000762939</ele>
        <time>2018-10-27T13:57:16Z</time>
      </trkpt>
      <trkpt lat="49.18271" lon="1.15788">
        <ele>35</ele>
        <time>2018-10-27T13:57:19Z</time>
      </trkpt>
      <trkpt lat="49.18284" lon="1.15792">
        <ele>35.200000762939</ele>
        <time>2018-10-27T13:57:25Z</time>
      </trkpt>
      <trkpt lat="49.18292" lon="1.15797">
        <ele>35</ele>
        <time>2018-10-27T13:57:27Z</time>
      </trkpt>
      <trkpt lat="49.18319" lon="1.15819">
        <ele>34.799999237061</ele>
        <time>2018-10-27T13:57:33Z</time>
      </trkpt>
      <trkpt lat="49.18335" lon="1.15835">
        <ele>34.599998474121</ele>
        <time>2018-10-27T13:57:35Z</time>
      </trkpt>
      <trkpt lat="49.18341" lon="1.15844">
        <ele>34.599998474121</ele>
        <time>2018-10-27T13:57:42Z</time>
      </trkpt>
      <trkpt lat="49.18351" lon="1.15855">
        <ele>34.400001525879</ele>
        <time>2018-10-27T13:57:45Z</time>
      </trkpt>
      <trkpt lat="49.18354" lon="1.15858">
        <ele>34.200000762939</ele>
        <time>2018-10-27T13:57:49Z</time>
      </trkpt>
      <trkpt lat="49.18358" lon="1.15861">
        <ele>34.200000762939</ele>
        <time>2018-10-27T13:57:55Z</time>
      </trkpt>
      <trkpt lat="49.18372" lon="1.15882">
        <ele>34</ele>
        <time>2018-10-27T13:57:57Z</time>
      </trkpt>
      <trkpt lat="49.18374" lon="1.15888">
        <ele>34</ele>
        <time>2018-10-27T13:58:06Z</time>
      </trkpt>
      <trkpt lat="49.18385" lon="1.1591">
        <ele>34</ele>
        <time>2018-10-27T13:58:10Z</time>
      </trkpt>
      <trkpt lat="49.18396" lon="1.15941">
        <ele>33.200000762939</ele>
        <time>2018-10-27T13:58:16Z</time>
      </trkpt>
      <trkpt lat="49.18399" lon="1.15946">
        <ele>33.200000762939</ele>
        <time>2018-10-27T13:58:18Z</time>
      </trkpt>
      <trkpt lat="49.18409" lon="1.15964">
        <ele>32.599998474121</ele>
        <time>2018-10-27T13:58:24Z</time>
      </trkpt>
      <trkpt lat="49.18418" lon="1.15978">
        <ele>31.799999237061</ele>
      </trkpt>
      <trkpt lat="49.18424" lon="1.1599">
        <ele>31.60000038147</ele>
      </trkpt>
      <trkpt lat="49.18427" lon="1.15998">
        <ele>31.60000038147</ele>
      </trkpt>
      <trkpt lat="49.18429" lon="1.16007">
        <ele>31.39999961853</ele>
      </trkpt>
      <trkpt lat="49.18432" lon="1.16024">
        <ele>31.200000762939</ele>
      </trkpt>
      <trkpt lat="49.18432" lon="1.16033">
        <ele>30.799999237061</ele>
      </trkpt>
      <trkpt lat="49.18431" lon="1.16071">
        <ele>30</ele>
      </trkpt>
      <trkpt lat="49.18429" lon="1.16081">
        <ele>29.799999237061</ele>
      </trkpt>
      <trkpt lat="49.18421" lon="1.16127">
        <ele>29.39999961853</ele>
      </trkpt>
      <trkpt lat="49.1842" lon="1.16136">
        <ele>29.39999961853</ele>
      </trkpt>
      <trkpt lat="49.18414" lon="1.16181">
        <ele>29.39999961853</ele>
      </trkpt>
      <trkpt lat="49.18408" lon="1.16239">
        <ele>29.200000762939</ele>
      </trkpt>
      <trkpt lat="49.18412" lon="1.16266">
        <ele>29.39999961853</ele>
      </trkpt>
      <trkpt lat="49.18425" lon="1.16282">
        <ele>29</ele>
      </trkpt>
      <trkpt lat="49.18429" lon="1.16287">
        <ele>28.799999237061</ele>
      </trkpt>
      <trkpt lat="49.18434" lon="1.16296">
        <ele>28.799999237061</ele>
      </trkpt>
      <trkpt lat="49.18439" lon="1.16304">
        <ele>28.200000762939</ele>
      </trkpt>
      <trkpt lat="49.18443" lon="1.1631">
        <ele>27.60000038147</ele>
      </trkpt>
      <trkpt lat="49.18446" lon="1.16317">
        <ele>28</ele>
      </trkpt>
      <trkpt lat="49.18461" lon="1.16329">
        <ele>28.60000038147</ele>
      </trkpt>
      <trkpt lat="49.18466" lon="1.16333">
        <ele>28.799999237061</ele>
      </trkpt>
      <trkpt lat="49.18467" lon="1.16336">
        <ele>29.200000762939</ele>
      </trkpt>
      <trkpt lat="49.18469" lon="1.16343">
        <ele>29.60000038147</ele>
      </trkpt>
      <trkpt lat="49.1847" lon="1.16349">
        <ele>30</ele>
      </trkpt>
      <trkpt lat="49.1847" lon="1.1636">
        <ele>30.39999961853</ele>
      </trkpt>
      <trkpt lat="49.18469" lon="1.16367">
        <ele>31</ele>
      </trkpt>
      <trkpt lat="49.18469" lon="1.16377">
        <ele>31.200000762939</ele>
      </trkpt>
      <trkpt lat="49.18465" lon="1.16402">
        <ele>30.60000038147</ele>
      </trkpt>
      <trkpt lat="49.18462" lon="1.16424">
        <ele>30</ele>
      </trkpt>
      <trkpt lat="49.1846" lon="1.1643">
        <ele>30</ele>
      </trkpt>
      <trkpt lat="49.18454" lon="1.16463">
        <ele>29.39999961853</ele>
      </trkpt>
      <trkpt lat="49.18449" lon="1.16484">
        <ele>29.200000762939</ele>
      </trkpt>
      <trkpt lat="49.18447" lon="1.16493">
        <ele>28.60000038147</ele>
      </trkpt>
      <trkpt lat="49.18445" lon="1.165">
        <ele>28.39999961853</ele>
      </trkpt>
      <trkpt lat="49.18439" lon="1.16523">
        <ele>27.39999961853</ele>
      </trkpt>
      <trkpt lat="49.18436" lon="1.16542">
        <ele>26.39999961853</ele>
      </trkpt>
      <trkpt lat="49.18434" lon="1.16553">
        <ele>26</ele>
      </trkpt>
      <trkpt lat="49.18434" lon="1.16588">
        <ele>25.39999961853</ele>
      </trkpt>
      <trkpt lat="49.18435" lon="1.16599">
        <ele>25</ele>
      </trkpt>
      <trkpt lat="49.18437" lon="1.16655">
        <ele>24.200000762939</ele>
      </trkpt>
      <trkpt lat="49.18435" lon="1.1668">
        <ele>23.799999237061</ele>
      </trkpt>
      <trkpt lat="49.18431" lon="1.16704">
        <ele>24</ele>
      </trkpt>
      <trkpt lat="49.18427" lon="1.1672">
        <ele>23.799999237061</ele>
      </trkpt>
      <trkpt lat="49.18417" lon="1.16737">
        <ele>23.60000038147</ele>
      </trkpt>
      <trkpt lat="49.18398" lon="1.16745">
        <ele>23.60000038147</ele>
      </trkpt>
      <trkpt lat="49.18383" lon="1.16746">
        <ele>23.799999237061</ele>
      </trkpt>
      <trkpt lat="49.18374" lon="1.16747">
        <ele>24</ele>
      </trkpt>
      <trkpt lat="49.18352" lon="1.16749">
        <ele>24.799999237061</ele>
      </trkpt>
      <trkpt lat="49.18341" lon="1.1675">
        <ele>25.39999961853</ele>
      </trkpt>
      <trkpt lat="49.18328" lon="1.16752">
        <ele>26</ele>
      </trkpt>
      <trkpt lat="49.18319" lon="1.16753">
        <ele>26.39999961853</ele>
      </trkpt>
      <trkpt lat="49.18308" lon="1.16754">
        <ele>27</ele>
      </trkpt>
      <trkpt lat="49.18303" lon="1.16755">
        <ele>27.200000762939</ele>
      </trkpt>
      <trkpt lat="49.18287" lon="1.16756">
        <ele>27</ele>
      </trkpt>
      <trkpt lat="49.18265" lon="1.16758">
        <ele>26.39999961853</ele>
      </trkpt>
      <trkpt lat="49.18258" lon="1.16758">
        <ele>26</ele>
      </trkpt>
      <trkpt lat="49.18236" lon="1.1676">
        <ele>25</ele>
      </trkpt>
      <trkpt lat="49.18231" lon="1.16761">
        <ele>24.60000038147</ele>
      </trkpt>
      <trkpt lat="49.18203" lon="1.16763">
        <ele>24</ele>
      </trkpt>
      <trkpt lat="49.18194" lon="1.16764">
        <ele>23.60000038147</ele>
      </trkpt>
      <trkpt lat="49.1817" lon="1.16766">
        <ele>23.200000762939</ele>
      </trkpt>
      <trkpt lat="49.18133" lon="1.16771">
        <ele>22.60000038147</ele>
      </trkpt>
      <trkpt lat="49.18128" lon="1.16772">
        <ele>22.39999961853</ele>
      </trkpt>
      <trkpt lat="49.18086" lon="1.16781">
        <ele>22.200000762939</ele>
      </trkpt>
      <trkpt lat="49.1805" lon="1.16786">
        <ele>22.799999237061</ele>
      </trkpt>
      <trkpt lat="49.18026" lon="1.1679">
        <ele>23.39999961853</ele>
      </trkpt>
      <trkpt lat="49.18013" lon="1.16797">
        <ele>23.200000762939</ele>
      </trkpt>
      <trkpt lat="49.18009" lon="1.16801">
        <ele>23.200000762939</ele>
      </trkpt>
      <trkpt lat="49.18005" lon="1.16804">
        <ele>23</ele>
      </trkpt>
      <trkpt lat="49.17998" lon="1.16813">
        <ele>23</ele>
      </trkpt>
      <trkpt lat="49.17984" lon="1.1683">
        <ele>22.39999961853</ele>
      </trkpt>
      <trkpt lat="49.17956" lon="1.16864">
        <ele>21.60000038147</ele>
      </trkpt>
      <trkpt lat="49.17952" lon="1.16869">
        <ele>21.60000038147</ele>
      </trkpt>
      <trkpt lat="49.17928" lon="1.16903">
        <ele>21</ele>
      </trkpt>
      <trkpt lat="49.17902" lon="1.16939">
        <ele>21.39999961853</ele>
      </trkpt>
      <trkpt lat="49.17879" lon="1.16964">
        <ele>21.799999237061</ele>
      </trkpt>
      <trkpt lat="49.17876" lon="1.16966">
        <ele>21.799999237061</ele>
      </trkpt>
      <trkpt lat="49.1786" lon="1.16968">
        <ele>22</ele>
      </trkpt>
      <trkpt lat="49.17856" lon="1.16968">
        <ele>22</ele>
      </trkpt>
      <trkpt lat="49.17824" lon="1.16966">
        <ele>22.200000762939</ele>
      </trkpt>
      <trkpt lat="49.17795" lon="1.16965">
        <ele>22</ele>
      </trkpt>
      <trkpt lat="49.17755" lon="1.16966">
        <ele>22.39999961853</ele>
      </trkpt>
      <trkpt lat="49.17752" lon="1.16966">
        <ele>22.60000038147</ele>
      </trkpt>
      <trkpt lat="49.17737" lon="1.16965">
        <ele>22.799999237061</ele>
      </trkpt>
      <trkpt lat="49.17708" lon="1.16964">
        <ele>23.60000038147</ele>
      </trkpt>
      <trkpt lat="49.17705" lon="1.16964">
        <ele>23.799999237061</ele>
      </trkpt>
      <trkpt lat="49.17687" lon="1.16964">
        <ele>24</ele>
      </trkpt>
      <trkpt lat="49.17668" lon="1.16963">
        <ele>24.799999237061</ele>
      </trkpt>
      <trkpt lat="49.17656" lon="1.16961">
        <ele>24.60000038147</ele>
      </trkpt>
      <trkpt lat="49.17639" lon="1.16961">
        <ele>25.200000762939</ele>
      </trkpt>
      <trkpt lat="49.17617" lon="1.16961">
        <ele>25.799999237061</ele>
      </trkpt>
      <trkpt lat="49.17614" lon="1.16961">
        <ele>26</ele>
      </trkpt>
      <trkpt lat="49.17589" lon="1.16962">
        <ele>26.799999237061</ele>
      </trkpt>
      <trkpt lat="49.17576" lon="1.16962">
        <ele>27.39999961853</ele>
      </trkpt>
      <trkpt lat="49.17555" lon="1.16963">
        <ele>28</ele>
      </trkpt>
      <trkpt lat="49.17545" lon="1.16963">
        <ele>28.200000762939</ele>
      </trkpt>
      <trkpt lat="49.17525" lon="1.16963">
        <ele>29</ele>
      </trkpt>
      <trkpt lat="49.17519" lon="1.16963">
        <ele>29</ele>
      </trkpt>
      <trkpt lat="49.17501" lon="1.16962">
        <ele>30.200000762939</ele>
      </trkpt>
      <trkpt lat="49.17495" lon="1.16961">
        <ele>30.39999961853</ele>
      </trkpt>
      <trkpt lat="49.17474" lon="1.1696">
        <ele>30.799999237061</ele>
      </trkpt>
      <trkpt lat="49.17465" lon="1.1696">
        <ele>31.200000762939</ele>
      </trkpt>
      <trkpt lat="49.17453" lon="1.1696">
        <ele>31.60000038147</ele>
      </trkpt>
      <trkpt lat="49.17436" lon="1.16959">
        <ele>32.200000762939</ele>
      </trkpt>
      <trkpt lat="49.17431" lon="1.16959">
        <ele>32.400001525879</ele>
      </trkpt>
      <trkpt lat="49.17405" lon="1.16958">
        <ele>33</ele>
      </trkpt>
      <trkpt lat="49.17393" lon="1.16957">
        <ele>33.400001525879</ele>
      </trkpt>
      <trkpt lat="49.17378" lon="1.16955">
        <ele>34.200000762939</ele>
      </trkpt>
      <trkpt lat="49.17373" lon="1.16955">
        <ele>34.599998474121</ele>
      </trkpt>
      <trkpt lat="49.17359" lon="1.16954">
        <ele>35.599998474121</ele>
      </trkpt>
      <trkpt lat="49.17354" lon="1.1673">
        <ele>47</ele>
      </trkpt>
      <trkpt lat="49.17336" lon="1.1659">
        <ele>70.2</ele>
      </trkpt>
      <trkpt lat="49.17221" lon="1.16075">
        <ele>125.1</ele>
      </trkpt>
      <trkpt lat="49.17142" lon="1.15807">
        <ele>128.8</ele>
      </trkpt>
      <trkpt lat="49.17064" lon="1.1568">
        <ele>124</ele>
      </trkpt>
      <trkpt lat="49.16701" lon="1.15918">
        <ele>91.6</ele>
      </trkpt>
      <trkpt lat="49.16649" lon="1.15681">
        <ele>106.2</ele>
      </trkpt>
      <trkpt lat="49.16659" lon="1.1511">
        <ele>127.7</ele>
      </trkpt>
      <trkpt lat="49.16539" lon="1.15101">
        <ele>125.9</ele>
      </trkpt>
      <trkpt lat="49.16602" lon="1.14935">
        <ele>125.3</ele>
      </trkpt>
      <trkpt lat="49.16628" lon="1.14767">
        <ele>126.9</ele>
      </trkpt>
      <trkpt lat="49.16293" lon="1.1477">
        <ele>127.8</ele>
      </trkpt>
      <trkpt lat="49.16278" lon="1.14763">
        <ele>127.7</ele>
      </trkpt>
      <trkpt lat="49.16293" lon="1.14433">
        <ele>129.3</ele>
      </trkpt>
      <trkpt lat="49.15951" lon="1.1444">
        <ele>127.7</ele>
      </trkpt>
      <trkpt lat="49.15932" lon="1.14264">
        <ele>127.7</ele>
      </trkpt>
      <trkpt lat="49.15894" lon="1.14263">
        <ele>129.6</ele>
      </trkpt>
      <trkpt lat="49.15789" lon="1.1417">
        <ele>128.4</ele>
      </trkpt>
      <trkpt lat="49.15729" lon="1.14045">
        <ele>123.6</ele>
      </trkpt>
      <trkpt lat="49.15723" lon="1.14033">
        <ele>123.4</ele>
      </trkpt>
      <trkpt lat="49.15552" lon="1.14172">
        <ele>124.6</ele>
      </trkpt>
      <trkpt lat="49.15498" lon="1.14294">
        <ele>119.2</ele>
      </trkpt>
      <trkpt lat="49.15482" lon="1.14446">
        <ele>109.8</ele>
      </trkpt>
      <trkpt lat="49.15432" lon="1.14575">
        <ele>101</ele>
      </trkpt>
      <trkpt lat="49.15355" lon="1.14649">
        <ele>85.9</ele>
      </trkpt>
      <trkpt lat="49.15312" lon="1.14691">
        <ele>68.4</ele>
      </trkpt>
      <trkpt lat="49.153" lon="1.14728">
        <ele>65.3</ele>
      </trkpt>
      <trkpt lat="49.15303" lon="1.14836">
        <ele>52.7</ele>
      </trkpt>
      <trkpt lat="49.15311" lon="1.14873">
        <ele>51.6</ele>
      </trkpt>
      <trkpt lat="49.15295" lon="1.14887">
        <ele>49.5</ele>
      </trkpt>
      <trkpt lat="49.15279" lon="1.1487">
        <ele>48.2</ele>
      </trkpt>
      <trkpt lat="49.15246" lon="1.1482">
        <ele>41.3</ele>
      </trkpt>
      <trkpt lat="49.15211" lon="1.14777">
        <ele>40.3</ele>
      </trkpt>
      <trkpt lat="49.15167" lon="1.14794">
        <ele>31.7</ele>
      </trkpt>
      <trkpt lat="49.15106" lon="1.14819">
        <ele>28.9</ele>
      </trkpt>
      <trkpt lat="49.15148" lon="1.14912">
        <ele>29.1</ele>
      </trkpt>
      <trkpt lat="49.15198" lon="1.14981">
        <ele>31.9</ele>
      </trkpt>
      <trkpt lat="49.15269" lon="1.15158">
        <ele>31.9</ele>
      </trkpt>
      <trkpt lat="49.15309" lon="1.15258">
        <ele>28.6</ele>
      </trkpt>
      <trkpt lat="49.15326" lon="1.15331">
        <ele>27.9</ele>
      </trkpt>
      <trkpt lat="49.15348" lon="1.15414">
        <ele>28.2</ele>
      </trkpt>
      <trkpt lat="49.15365" lon="1.1547">
        <ele>26.7</ele>
      </trkpt>
      <trkpt lat="49.15427" lon="1.15589">
        <ele>25.2</ele>
      </trkpt>
      <trkpt lat="49.15523" lon="1.15778">
        <ele>25.2</ele>
      </trkpt>
      <trkpt lat="49.15587" lon="1.15925">
        <ele>27.4</ele>
      </trkpt>
    </trkseg>
  </trk>
</gpx>